<?xml version="1.0" encoding="UTF-8" standalone="no" ?><gpx xmlns="http://www.topografix.com/GPX/1/1" xmlns:gpxx="http://www.garmin.com/xmlschemas/GpxExtensions/v3" xmlns:wptx1="http://www.garmin.com/xmlschemas/WaypointExtension/v1" xmlns:gpxtpx="http://www.garmin.com/xmlschemas/TrackPointExtension/v1" creator="GuideVTT.com" version="1.1" xmlns:xsi="http://www.w3.org/2001/XMLSchema-instance" xsi:schemaLocation="http://www.topografix.com/GPX/1/1 http://www.topografix.com/GPX/1/1/gpx.xsd http://www.garmin.com/xmlschemas/GpxExtensions/v3 http://www8.garmin.com/xmlschemas/GpxExtensionsv3.xsd http://www.garmin.com/xmlschemas/WaypointExtension/v1 http://www8.garmin.com/xmlschemas/WaypointExtensionv1.xsd http://www.garmin.com/xmlschemas/TrackPointExtension/v1 http://www.garmin.com/xmlschemas/TrackPointExtensionv1.xsd">
<metadata><link href="http://www.garmin.com"><text>Garmin International</text></link><time>2013-06-22T15:13:50Z</time></metadata>
<trk><name>bex-leysin26.09.gpx</name><extensions><gpxx:TrackExtension><gpxx:DisplayColor>Cyan</gpxx:DisplayColor></gpxx:TrackExtension></extensions><trkseg>
<trkpt lat="46.24615479" lon="7.01248884"><ele>441.287994</ele><time>2009-09-26T09:15:02Z</time></trkpt>
<trkpt lat="46.24619293" lon="7.01228094"><ele>438.688995</ele><time>2009-09-26T09:15:09Z</time></trkpt>
<trkpt lat="46.24631882" lon="7.01205921"><ele>436.635986</ele><time>2009-09-26T09:15:13Z</time></trkpt>
<trkpt lat="46.24641037" lon="7.01195383"><ele>435.898987</ele><time>2009-09-26T09:15:15Z</time></trkpt>
<trkpt lat="46.24657059" lon="7.01165581"><ele>433.790985</ele><time>2009-09-26T09:15:20Z</time></trkpt>
<trkpt lat="46.24656677" lon="7.01157522"><ele>433.502991</ele><time>2009-09-26T09:15:21Z</time></trkpt>
<trkpt lat="46.24648666" lon="7.01088285"><ele>433.100006</ele><time>2009-09-26T09:15:29Z</time></trkpt>
<trkpt lat="46.24633789" lon="7.01013184"><ele>431.234985</ele><time>2009-09-26T09:15:37Z</time></trkpt>
<trkpt lat="46.24617386" lon="7.00956821"><ele>429.007996</ele><time>2009-09-26T09:15:43Z</time></trkpt>
<trkpt lat="46.24604797" lon="7.00919008"><ele>427.981995</ele><time>2009-09-26T09:15:47Z</time></trkpt>
<trkpt lat="46.24606323" lon="7.00878477"><ele>427.585999</ele><time>2009-09-26T09:15:51Z</time></trkpt>
<trkpt lat="46.24619293" lon="7.00852919"><ele>427.131989</ele><time>2009-09-26T09:15:54Z</time></trkpt>
<trkpt lat="46.24631500" lon="7.00823212"><ele>424.191986</ele><time>2009-09-26T09:15:57Z</time></trkpt>
<trkpt lat="46.24663162" lon="7.00769711"><ele>419.557007</ele><time>2009-09-26T09:16:02Z</time></trkpt>
<trkpt lat="46.24703598" lon="7.00733805"><ele>417.477997</ele><time>2009-09-26T09:16:07Z</time></trkpt>
<trkpt lat="46.24735260" lon="7.00709486"><ele>417.372009</ele><time>2009-09-26T09:16:11Z</time></trkpt>
<trkpt lat="46.24766159" lon="7.00668001"><ele>416.28299</ele><time>2009-09-26T09:16:16Z</time></trkpt>
<trkpt lat="46.24774933" lon="7.00657797"><ele>415.997009</ele><time>2009-09-26T09:16:20Z</time></trkpt>
<trkpt lat="46.24774933" lon="7.00656414"><ele>415.888</ele><time>2009-09-26T09:16:22Z</time></trkpt>
<trkpt lat="46.24775314" lon="7.00639296"><ele>415.584991</ele><time>2009-09-26T09:16:27Z</time></trkpt>
<trkpt lat="46.24772644" lon="7.00608015"><ele>415.253998</ele><time>2009-09-26T09:16:31Z</time></trkpt>
<trkpt lat="46.24758148" lon="7.00532389"><ele>414.632996</ele><time>2009-09-26T09:16:38Z</time></trkpt>
<trkpt lat="46.24731827" lon="7.00451899"><ele>414.695007</ele><time>2009-09-26T09:16:46Z</time></trkpt>
<trkpt lat="46.24708176" lon="7.00400019"><ele>414.274994</ele><time>2009-09-26T09:16:52Z</time></trkpt>
<trkpt lat="46.24703979" lon="7.00392294"><ele>414.015015</ele><time>2009-09-26T09:16:53Z</time></trkpt>
<trkpt lat="46.24694824" lon="7.00366211"><ele>414.085999</ele><time>2009-09-26T09:16:56Z</time></trkpt>
<trkpt lat="46.24676514" lon="7.00335217"><ele>413.440002</ele><time>2009-09-26T09:17:00Z</time></trkpt>
<trkpt lat="46.24647522" lon="7.00243521"><ele>411.972992</ele><time>2009-09-26T09:17:08Z</time></trkpt>
<trkpt lat="46.24644470" lon="7.00231886"><ele>411.580994</ele><time>2009-09-26T09:17:09Z</time></trkpt>
<trkpt lat="46.24630356" lon="7.00184011"><ele>411.487</ele><time>2009-09-26T09:17:13Z</time></trkpt>
<trkpt lat="46.24613571" lon="7.00101614"><ele>410.442993</ele><time>2009-09-26T09:17:21Z</time></trkpt>
<trkpt lat="46.24591064" lon="6.99994993"><ele>409.183014</ele><time>2009-09-26T09:17:31Z</time></trkpt>
<trkpt lat="46.24572754" lon="6.99911690"><ele>408.062988</ele><time>2009-09-26T09:17:39Z</time></trkpt>
<trkpt lat="46.24576569" lon="6.99882221"><ele>407.881012</ele><time>2009-09-26T09:17:42Z</time></trkpt>
<trkpt lat="46.24589157" lon="6.99872780"><ele>407.520996</ele><time>2009-09-26T09:17:44Z</time></trkpt>
<trkpt lat="46.24650955" lon="6.99845409"><ele>409.048004</ele><time>2009-09-26T09:17:53Z</time></trkpt>
<trkpt lat="46.24695587" lon="6.99822903"><ele>409.110992</ele><time>2009-09-26T09:18:00Z</time></trkpt>
<trkpt lat="46.24749756" lon="6.99794292"><ele>409.141998</ele><time>2009-09-26T09:18:09Z</time></trkpt>
<trkpt lat="46.24805832" lon="6.99763680"><ele>409.756989</ele><time>2009-09-26T09:18:19Z</time></trkpt>
<trkpt lat="46.24861908" lon="6.99732780"><ele>410.68399</ele><time>2009-09-26T09:18:29Z</time></trkpt>
<trkpt lat="46.24924850" lon="6.99699020"><ele>410.975006</ele><time>2009-09-26T09:18:40Z</time></trkpt>
<trkpt lat="46.24978256" lon="6.99670410"><ele>410.583008</ele><time>2009-09-26T09:18:49Z</time></trkpt>
<trkpt lat="46.25043106" lon="6.99635506"><ele>410.382996</ele><time>2009-09-26T09:19:00Z</time></trkpt>
<trkpt lat="46.25108337" lon="6.99599695"><ele>410.313995</ele><time>2009-09-26T09:19:11Z</time></trkpt>
<trkpt lat="46.25161743" lon="6.99570513"><ele>410.265991</ele><time>2009-09-26T09:19:20Z</time></trkpt>
<trkpt lat="46.25227356" lon="6.99534416"><ele>410.174988</ele><time>2009-09-26T09:19:31Z</time></trkpt>
<trkpt lat="46.25274277" lon="6.99508476"><ele>410.11499</ele><time>2009-09-26T09:19:39Z</time></trkpt>
<trkpt lat="46.25329590" lon="6.99479294"><ele>410.015991</ele><time>2009-09-26T09:19:48Z</time></trkpt>
<trkpt lat="46.25391006" lon="6.99443197"><ele>410.14801</ele><time>2009-09-26T09:19:58Z</time></trkpt>
<trkpt lat="46.25440216" lon="6.99422979"><ele>410.084015</ele><time>2009-09-26T09:20:06Z</time></trkpt>
<trkpt lat="46.25453568" lon="6.99409819"><ele>409.795013</ele><time>2009-09-26T09:20:09Z</time></trkpt>
<trkpt lat="46.25452423" lon="6.99391794"><ele>408.660004</ele><time>2009-09-26T09:20:11Z</time></trkpt>
<trkpt lat="46.25439835" lon="6.99313116"><ele>405.057007</ele><time>2009-09-26T09:20:18Z</time></trkpt>
<trkpt lat="46.25421906" lon="6.99259710"><ele>404.473999</ele><time>2009-09-26T09:20:23Z</time></trkpt>
<trkpt lat="46.25405121" lon="6.99204683"><ele>403.015991</ele><time>2009-09-26T09:20:28Z</time></trkpt>
<trkpt lat="46.25407410" lon="6.99157190"><ele>402.312012</ele><time>2009-09-26T09:20:32Z</time></trkpt>
<trkpt lat="46.25412750" lon="6.99148417"><ele>401.845001</ele><time>2009-09-26T09:20:33Z</time></trkpt>
<trkpt lat="46.25455475" lon="6.99068880"><ele>401.584991</ele><time>2009-09-26T09:20:42Z</time></trkpt>
<trkpt lat="46.25481796" lon="6.99006796"><ele>400.60199</ele><time>2009-09-26T09:20:49Z</time></trkpt>
<trkpt lat="46.25497055" lon="6.98953199"><ele>399.968994</ele><time>2009-09-26T09:20:55Z</time></trkpt>
<trkpt lat="46.25513840" lon="6.98892689"><ele>401.144012</ele><time>2009-09-26T09:21:03Z</time></trkpt>
<trkpt lat="46.25518036" lon="6.98879099"><ele>401.733002</ele><time>2009-09-26T09:21:05Z</time></trkpt>
<trkpt lat="46.25525665" lon="6.98862123"><ele>402.798004</ele><time>2009-09-26T09:21:08Z</time></trkpt>
<trkpt lat="46.25538254" lon="6.98821592"><ele>402.940002</ele><time>2009-09-26T09:21:14Z</time></trkpt>
<trkpt lat="46.25542831" lon="6.98807001"><ele>403.510986</ele><time>2009-09-26T09:21:16Z</time></trkpt>
<trkpt lat="46.25556946" lon="6.98783922"><ele>403.919006</ele><time>2009-09-26T09:21:20Z</time></trkpt>
<trkpt lat="46.25600052" lon="6.98731709"><ele>405.782013</ele><time>2009-09-26T09:21:30Z</time></trkpt>
<trkpt lat="46.25640869" lon="6.98681021"><ele>405.194</ele><time>2009-09-26T09:21:39Z</time></trkpt>
<trkpt lat="46.25650024" lon="6.98670006"><ele>404.968994</ele><time>2009-09-26T09:21:41Z</time></trkpt>
<trkpt lat="46.25658798" lon="6.98639202"><ele>404.165985</ele><time>2009-09-26T09:21:45Z</time></trkpt>
<trkpt lat="46.25656509" lon="6.98545313"><ele>401.79599</ele><time>2009-09-26T09:21:55Z</time></trkpt>
<trkpt lat="46.25656128" lon="6.98525000"><ele>401.006012</ele><time>2009-09-26T09:21:57Z</time></trkpt>
<trkpt lat="46.25666046" lon="6.98498487"><ele>400.268005</ele><time>2009-09-26T09:22:00Z</time></trkpt>
<trkpt lat="46.25672150" lon="6.98493099"><ele>400.164001</ele><time>2009-09-26T09:22:01Z</time></trkpt>
<trkpt lat="46.25726700" lon="6.98441982"><ele>399.627014</ele><time>2009-09-26T09:22:10Z</time></trkpt>
<trkpt lat="46.25790405" lon="6.98378801"><ele>399.46701</ele><time>2009-09-26T09:22:21Z</time></trkpt>
<trkpt lat="46.25847244" lon="6.98323202"><ele>399.205994</ele><time>2009-09-26T09:22:31Z</time></trkpt>
<trkpt lat="46.25898743" lon="6.98273087"><ele>398.777008</ele><time>2009-09-26T09:22:40Z</time></trkpt>
<trkpt lat="46.25949097" lon="6.98225117"><ele>398.139008</ele><time>2009-09-26T09:22:49Z</time></trkpt>
<trkpt lat="46.25995255" lon="6.98182106"><ele>397.838013</ele><time>2009-09-26T09:22:57Z</time></trkpt>
<trkpt lat="46.26045609" lon="6.98133802"><ele>397.838989</ele><time>2009-09-26T09:23:06Z</time></trkpt>
<trkpt lat="46.26077271" lon="6.98105717"><ele>397.911987</ele><time>2009-09-26T09:23:12Z</time></trkpt>
<trkpt lat="46.26115036" lon="6.98088789"><ele>398.639008</ele><time>2009-09-26T09:23:19Z</time></trkpt>
<trkpt lat="46.26132584" lon="6.98078394"><ele>400.151001</ele><time>2009-09-26T09:23:24Z</time></trkpt>
<trkpt lat="46.26145172" lon="6.98072004"><ele>401.458008</ele><time>2009-09-26T09:23:30Z</time></trkpt>
<trkpt lat="46.26163483" lon="6.98060417"><ele>403.713013</ele><time>2009-09-26T09:23:40Z</time></trkpt>
<trkpt lat="46.26176453" lon="6.98052216"><ele>404.850006</ele><time>2009-09-26T09:23:47Z</time></trkpt>
<trkpt lat="46.26180267" lon="6.98037386"><ele>404.717987</ele><time>2009-09-26T09:23:52Z</time></trkpt>
<trkpt lat="46.26174545" lon="6.98017120"><ele>403.627014</ele><time>2009-09-26T09:23:57Z</time></trkpt>
<trkpt lat="46.26160812" lon="6.97977400"><ele>402.317993</ele><time>2009-09-26T09:24:05Z</time></trkpt>
<trkpt lat="46.26148224" lon="6.97937584"><ele>400.996002</ele><time>2009-09-26T09:24:11Z</time></trkpt>
<trkpt lat="46.26130676" lon="6.97883987"><ele>398.325989</ele><time>2009-09-26T09:24:17Z</time></trkpt>
<trkpt lat="46.26111603" lon="6.97829008"><ele>397.319</ele><time>2009-09-26T09:24:23Z</time></trkpt>
<trkpt lat="46.26093674" lon="6.97770786"><ele>397.485992</ele><time>2009-09-26T09:24:30Z</time></trkpt>
<trkpt lat="46.26076889" lon="6.97715282"><ele>397.078003</ele><time>2009-09-26T09:24:38Z</time></trkpt>
<trkpt lat="46.26062775" lon="6.97667503"><ele>398.097992</ele><time>2009-09-26T09:24:46Z</time></trkpt>
<trkpt lat="46.26048660" lon="6.97621107"><ele>400.006989</ele><time>2009-09-26T09:24:54Z</time></trkpt>
<trkpt lat="46.26047134" lon="6.97615290"><ele>400.052002</ele><time>2009-09-26T09:24:55Z</time></trkpt>
<trkpt lat="46.26033783" lon="6.97581816"><ele>401.067993</ele><time>2009-09-26T09:25:01Z</time></trkpt>
<trkpt lat="46.26025772" lon="6.97556114"><ele>401.612</ele><time>2009-09-26T09:25:06Z</time></trkpt>
<trkpt lat="46.26033783" lon="6.97539806"><ele>401.200989</ele><time>2009-09-26T09:25:10Z</time></trkpt>
<trkpt lat="46.26066971" lon="6.97497606"><ele>399.950989</ele><time>2009-09-26T09:25:20Z</time></trkpt>
<trkpt lat="46.26081467" lon="6.97480488"><ele>399.457001</ele><time>2009-09-26T09:25:24Z</time></trkpt>
<trkpt lat="46.26114273" lon="6.97441292"><ele>399.583008</ele><time>2009-09-26T09:25:33Z</time></trkpt>
<trkpt lat="46.26147461" lon="6.97402811"><ele>399.117004</ele><time>2009-09-26T09:25:42Z</time></trkpt>
<trkpt lat="46.26173019" lon="6.97377300"><ele>399.584015</ele><time>2009-09-26T09:25:49Z</time></trkpt>
<trkpt lat="46.26200104" lon="6.97342777"><ele>399.109985</ele><time>2009-09-26T09:25:56Z</time></trkpt>
<trkpt lat="46.26231766" lon="6.97305822"><ele>399.278015</ele><time>2009-09-26T09:26:03Z</time></trkpt>
<trkpt lat="46.26272964" lon="6.97258902"><ele>398.979004</ele><time>2009-09-26T09:26:11Z</time></trkpt>
<trkpt lat="46.26331329" lon="6.97189713"><ele>399.050995</ele><time>2009-09-26T09:26:22Z</time></trkpt>
<trkpt lat="46.26391220" lon="6.97120094"><ele>399.085999</ele><time>2009-09-26T09:26:33Z</time></trkpt>
<trkpt lat="46.26457977" lon="6.97042418"><ele>398.716003</ele><time>2009-09-26T09:26:45Z</time></trkpt>
<trkpt lat="46.26513672" lon="6.96976995"><ele>398.466003</ele><time>2009-09-26T09:26:55Z</time></trkpt>
<trkpt lat="46.26557922" lon="6.96925402"><ele>398.238007</ele><time>2009-09-26T09:27:03Z</time></trkpt>
<trkpt lat="46.26623917" lon="6.96847486"><ele>397.947998</ele><time>2009-09-26T09:27:15Z</time></trkpt>
<trkpt lat="46.26673889" lon="6.96789694"><ele>396.902008</ele><time>2009-09-26T09:27:24Z</time></trkpt>
<trkpt lat="46.26717758" lon="6.96739483"><ele>396.630005</ele><time>2009-09-26T09:27:32Z</time></trkpt>
<trkpt lat="46.26750183" lon="6.96702909"><ele>396.774994</ele><time>2009-09-26T09:27:38Z</time></trkpt>
<trkpt lat="46.26795959" lon="6.96654987"><ele>397.019012</ele><time>2009-09-26T09:27:46Z</time></trkpt>
<trkpt lat="46.26844406" lon="6.96609879"><ele>397.480988</ele><time>2009-09-26T09:27:54Z</time></trkpt>
<trkpt lat="46.26881027" lon="6.96579504"><ele>397.641998</ele><time>2009-09-26T09:28:00Z</time></trkpt>
<trkpt lat="46.26932144" lon="6.96544409"><ele>397.091003</ele><time>2009-09-26T09:28:08Z</time></trkpt>
<trkpt lat="46.26984024" lon="6.96513700"><ele>397.446991</ele><time>2009-09-26T09:28:16Z</time></trkpt>
<trkpt lat="46.27037430" lon="6.96490908"><ele>397.850006</ele><time>2009-09-26T09:28:24Z</time></trkpt>
<trkpt lat="46.27105713" lon="6.96466017"><ele>398.136993</ele><time>2009-09-26T09:28:34Z</time></trkpt>
<trkpt lat="46.27167511" lon="6.96451521"><ele>398.791992</ele><time>2009-09-26T09:28:43Z</time></trkpt>
<trkpt lat="46.27226639" lon="6.96440220"><ele>399.912994</ele><time>2009-09-26T09:28:52Z</time></trkpt>
<trkpt lat="46.27303696" lon="6.96430016"><ele>400.901001</ele><time>2009-09-26T09:29:04Z</time></trkpt>
<trkpt lat="46.27342224" lon="6.96425295"><ele>400.910004</ele><time>2009-09-26T09:29:10Z</time></trkpt>
<trkpt lat="46.27405167" lon="6.96413708"><ele>401.299988</ele><time>2009-09-26T09:29:20Z</time></trkpt>
<trkpt lat="46.27447510" lon="6.96398211"><ele>400.899994</ele><time>2009-09-26T09:29:27Z</time></trkpt>
<trkpt lat="46.27513885" lon="6.96374798"><ele>399.463013</ele><time>2009-09-26T09:29:38Z</time></trkpt>
<trkpt lat="46.27561569" lon="6.96357012"><ele>399.661987</ele><time>2009-09-26T09:29:46Z</time></trkpt>
<trkpt lat="46.27586746" lon="6.96349716"><ele>399.528015</ele><time>2009-09-26T09:29:50Z</time></trkpt>
<trkpt lat="46.27621078" lon="6.96345282"><ele>398.25</ele><time>2009-09-26T09:29:55Z</time></trkpt>
<trkpt lat="46.27663040" lon="6.96332312"><ele>396.07901</ele><time>2009-09-26T09:30:00Z</time></trkpt>
<trkpt lat="46.27671432" lon="6.96331501"><ele>395.881012</ele><time>2009-09-26T09:30:01Z</time></trkpt>
<trkpt lat="46.27703476" lon="6.96315479"><ele>396.518005</ele><time>2009-09-26T09:30:06Z</time></trkpt>
<trkpt lat="46.27740479" lon="6.96298790"><ele>397.722992</ele><time>2009-09-26T09:30:13Z</time></trkpt>
<trkpt lat="46.27779770" lon="6.96293688"><ele>397.824005</ele><time>2009-09-26T09:30:20Z</time></trkpt>
<trkpt lat="46.27832794" lon="6.96287584"><ele>398.462006</ele><time>2009-09-26T09:30:29Z</time></trkpt>
<trkpt lat="46.27883148" lon="6.96280289"><ele>397.927002</ele><time>2009-09-26T09:30:37Z</time></trkpt>
<trkpt lat="46.27938461" lon="6.96266222"><ele>398.134003</ele><time>2009-09-26T09:30:46Z</time></trkpt>
<trkpt lat="46.28005219" lon="6.96245718"><ele>398.441986</ele><time>2009-09-26T09:30:57Z</time></trkpt>
<trkpt lat="46.28060532" lon="6.96229219"><ele>397.852997</ele><time>2009-09-26T09:31:06Z</time></trkpt>
<trkpt lat="46.28111649" lon="6.96211290"><ele>398.369995</ele><time>2009-09-26T09:31:15Z</time></trkpt>
<trkpt lat="46.28164673" lon="6.96188211"><ele>398.067993</ele><time>2009-09-26T09:31:24Z</time></trkpt>
<trkpt lat="46.28232956" lon="6.96156883"><ele>397.605011</ele><time>2009-09-26T09:31:36Z</time></trkpt>
<trkpt lat="46.28301620" lon="6.96125078"><ele>397.644989</ele><time>2009-09-26T09:31:48Z</time></trkpt>
<trkpt lat="46.28342819" lon="6.96102905"><ele>397.960999</ele><time>2009-09-26T09:31:55Z</time></trkpt>
<trkpt lat="46.28379822" lon="6.96074390"><ele>398.871002</ele><time>2009-09-26T09:32:02Z</time></trkpt>
<trkpt lat="46.28416824" lon="6.96042395"><ele>397.97699</ele><time>2009-09-26T09:32:09Z</time></trkpt>
<trkpt lat="46.28462601" lon="6.95998621"><ele>397.154999</ele><time>2009-09-26T09:32:18Z</time></trkpt>
<trkpt lat="46.28506851" lon="6.95950222"><ele>396.148987</ele><time>2009-09-26T09:32:27Z</time></trkpt>
<trkpt lat="46.28550720" lon="6.95894909"><ele>395.484985</ele><time>2009-09-26T09:32:37Z</time></trkpt>
<trkpt lat="46.28600693" lon="6.95829391"><ele>394.674011</ele><time>2009-09-26T09:32:48Z</time></trkpt>
<trkpt lat="46.28647614" lon="6.95759392"><ele>394.325989</ele><time>2009-09-26T09:32:59Z</time></trkpt>
<trkpt lat="46.28693771" lon="6.95689917"><ele>394.161011</ele><time>2009-09-26T09:33:10Z</time></trkpt>
<trkpt lat="46.28747940" lon="6.95607281"><ele>394.829987</ele><time>2009-09-26T09:33:23Z</time></trkpt>
<trkpt lat="46.28794861" lon="6.95537901"><ele>394.644012</ele><time>2009-09-26T09:33:34Z</time></trkpt>
<trkpt lat="46.28834534" lon="6.95482779"><ele>394.515015</ele><time>2009-09-26T09:33:43Z</time></trkpt>
<trkpt lat="46.28870773" lon="6.95434618"><ele>395.002991</ele><time>2009-09-26T09:33:51Z</time></trkpt>
<trkpt lat="46.28915787" lon="6.95371103"><ele>394.746002</ele><time>2009-09-26T09:34:01Z</time></trkpt>
<trkpt lat="46.28970337" lon="6.95292711"><ele>395.182007</ele><time>2009-09-26T09:34:13Z</time></trkpt>
<trkpt lat="46.29016876" lon="6.95230007"><ele>394.752014</ele><time>2009-09-26T09:34:23Z</time></trkpt>
<trkpt lat="46.29054260" lon="6.95181417"><ele>394.371002</ele><time>2009-09-26T09:34:31Z</time></trkpt>
<trkpt lat="46.29087067" lon="6.95129824"><ele>394.673004</ele><time>2009-09-26T09:34:39Z</time></trkpt>
<trkpt lat="46.29127121" lon="6.95066881"><ele>395.181</ele><time>2009-09-26T09:34:49Z</time></trkpt>
<trkpt lat="46.29167175" lon="6.94992113"><ele>395.52301</ele><time>2009-09-26T09:35:00Z</time></trkpt>
<trkpt lat="46.29191208" lon="6.94943285"><ele>395.377014</ele><time>2009-09-26T09:35:07Z</time></trkpt>
<trkpt lat="46.29228592" lon="6.94863605"><ele>394.829987</ele><time>2009-09-26T09:35:18Z</time></trkpt>
<trkpt lat="46.29255295" lon="6.94794607"><ele>395.167999</ele><time>2009-09-26T09:35:27Z</time></trkpt>
<trkpt lat="46.29284286" lon="6.94717216"><ele>395.481995</ele><time>2009-09-26T09:35:37Z</time></trkpt>
<trkpt lat="46.29311752" lon="6.94636917"><ele>395.381989</ele><time>2009-09-26T09:35:47Z</time></trkpt>
<trkpt lat="46.29336166" lon="6.94563913"><ele>394.289001</ele><time>2009-09-26T09:35:56Z</time></trkpt>
<trkpt lat="46.29360580" lon="6.94480515"><ele>394.628998</ele><time>2009-09-26T09:36:06Z</time></trkpt>
<trkpt lat="46.29387283" lon="6.94380999"><ele>394.753998</ele><time>2009-09-26T09:36:18Z</time></trkpt>
<trkpt lat="46.29417419" lon="6.94292307"><ele>394.477997</ele><time>2009-09-26T09:36:29Z</time></trkpt>
<trkpt lat="46.29446411" lon="6.94233084"><ele>394.11499</ele><time>2009-09-26T09:36:37Z</time></trkpt>
<trkpt lat="46.29476547" lon="6.94180202"><ele>394.109009</ele><time>2009-09-26T09:36:45Z</time></trkpt>
<trkpt lat="46.29513931" lon="6.94113922"><ele>394.460999</ele><time>2009-09-26T09:36:55Z</time></trkpt>
<trkpt lat="46.29553986" lon="6.94044590"><ele>392.845001</ele><time>2009-09-26T09:37:05Z</time></trkpt>
<trkpt lat="46.29594040" lon="6.93976688"><ele>392.460999</ele><time>2009-09-26T09:37:15Z</time></trkpt>
<trkpt lat="46.29626083" lon="6.93921804"><ele>392.950012</ele><time>2009-09-26T09:37:23Z</time></trkpt>
<trkpt lat="46.29666138" lon="6.93865299"><ele>393.339996</ele><time>2009-09-26T09:37:32Z</time></trkpt>
<trkpt lat="46.29725266" lon="6.93794584"><ele>393.341003</ele><time>2009-09-26T09:37:44Z</time></trkpt>
<trkpt lat="46.29776764" lon="6.93745899"><ele>393.559998</ele><time>2009-09-26T09:37:54Z</time></trkpt>
<trkpt lat="46.29825211" lon="6.93714190"><ele>393.619995</ele><time>2009-09-26T09:38:03Z</time></trkpt>
<trkpt lat="46.29896164" lon="6.93673277"><ele>393.531006</ele><time>2009-09-26T09:38:16Z</time></trkpt>
<trkpt lat="46.29941177" lon="6.93656921"><ele>393.705994</ele><time>2009-09-26T09:38:24Z</time></trkpt>
<trkpt lat="46.29980469" lon="6.93648195"><ele>394.764008</ele><time>2009-09-26T09:38:31Z</time></trkpt>
<trkpt lat="46.30027390" lon="6.93644714"><ele>395.161987</ele><time>2009-09-26T09:38:39Z</time></trkpt>
<trkpt lat="46.30093002" lon="6.93639708"><ele>395.031006</ele><time>2009-09-26T09:38:50Z</time></trkpt>
<trkpt lat="46.30105209" lon="6.93639183"><ele>395.191986</ele><time>2009-09-26T09:38:52Z</time></trkpt>
<trkpt lat="46.30175018" lon="6.93641996"><ele>396.088989</ele><time>2009-09-26T09:39:03Z</time></trkpt>
<trkpt lat="46.30217743" lon="6.93647289"><ele>396.82901</ele><time>2009-09-26T09:39:10Z</time></trkpt>
<trkpt lat="46.30258560" lon="6.93652105"><ele>397.566986</ele><time>2009-09-26T09:39:17Z</time></trkpt>
<trkpt lat="46.30306625" lon="6.93656111"><ele>397.612</ele><time>2009-09-26T09:39:25Z</time></trkpt>
<trkpt lat="46.30348969" lon="6.93655777"><ele>398.026001</ele><time>2009-09-26T09:39:32Z</time></trkpt>
<trkpt lat="46.30398178" lon="6.93652916"><ele>398.296997</ele><time>2009-09-26T09:39:40Z</time></trkpt>
<trkpt lat="46.30454254" lon="6.93643618"><ele>398.485992</ele><time>2009-09-26T09:39:49Z</time></trkpt>
<trkpt lat="46.30508804" lon="6.93629885"><ele>398.998993</ele><time>2009-09-26T09:39:58Z</time></trkpt>
<trkpt lat="46.30561447" lon="6.93608904"><ele>397.53299</ele><time>2009-09-26T09:40:07Z</time></trkpt>
<trkpt lat="46.30607605" lon="6.93585300"><ele>395.765991</ele><time>2009-09-26T09:40:15Z</time></trkpt>
<trkpt lat="46.30665588" lon="6.93557882"><ele>395.031006</ele><time>2009-09-26T09:40:25Z</time></trkpt>
<trkpt lat="46.30704880" lon="6.93541718"><ele>394.257996</ele><time>2009-09-26T09:40:32Z</time></trkpt>
<trkpt lat="46.30758286" lon="6.93521309"><ele>393.731995</ele><time>2009-09-26T09:40:41Z</time></trkpt>
<trkpt lat="46.30815887" lon="6.93499279"><ele>393.970001</ele><time>2009-09-26T09:40:51Z</time></trkpt>
<trkpt lat="46.30853653" lon="6.93485594"><ele>393.933014</ele><time>2009-09-26T09:40:58Z</time></trkpt>
<trkpt lat="46.30907440" lon="6.93468189"><ele>393.70401</ele><time>2009-09-26T09:41:08Z</time></trkpt>
<trkpt lat="46.30962372" lon="6.93453503"><ele>393.483002</ele><time>2009-09-26T09:41:18Z</time></trkpt>
<trkpt lat="46.31011963" lon="6.93444300"><ele>394.316986</ele><time>2009-09-26T09:41:27Z</time></trkpt>
<trkpt lat="46.31051636" lon="6.93439198"><ele>394.019989</ele><time>2009-09-26T09:41:34Z</time></trkpt>
<trkpt lat="46.31103134" lon="6.93429613"><ele>394.434998</ele><time>2009-09-26T09:41:43Z</time></trkpt>
<trkpt lat="46.31143570" lon="6.93421698"><ele>394.595001</ele><time>2009-09-26T09:41:50Z</time></trkpt>
<trkpt lat="46.31202698" lon="6.93409109"><ele>394.47699</ele><time>2009-09-26T09:42:00Z</time></trkpt>
<trkpt lat="46.31254196" lon="6.93390083"><ele>395.644989</ele><time>2009-09-26T09:42:09Z</time></trkpt>
<trkpt lat="46.31282043" lon="6.93384314"><ele>395.382996</ele><time>2009-09-26T09:42:14Z</time></trkpt>
<trkpt lat="46.31297302" lon="6.93402004"><ele>395.106995</ele><time>2009-09-26T09:42:18Z</time></trkpt>
<trkpt lat="46.31298828" lon="6.93409920"><ele>395.061005</ele><time>2009-09-26T09:42:19Z</time></trkpt>
<trkpt lat="46.31303024" lon="6.93435812"><ele>395.234009</ele><time>2009-09-26T09:42:22Z</time></trkpt>
<trkpt lat="46.31314850" lon="6.93503094"><ele>393.752991</ele><time>2009-09-26T09:42:29Z</time></trkpt>
<trkpt lat="46.31325531" lon="6.93560791"><ele>391.700989</ele><time>2009-09-26T09:42:35Z</time></trkpt>
<trkpt lat="46.31334305" lon="6.93633890"><ele>393.438995</ele><time>2009-09-26T09:42:43Z</time></trkpt>
<trkpt lat="46.31341171" lon="6.93702316"><ele>394.776001</ele><time>2009-09-26T09:42:51Z</time></trkpt>
<trkpt lat="46.31350708" lon="6.93794584"><ele>392.045013</ele><time>2009-09-26T09:43:02Z</time></trkpt>
<trkpt lat="46.31360626" lon="6.93886518"><ele>390.973999</ele><time>2009-09-26T09:43:13Z</time></trkpt>
<trkpt lat="46.31370163" lon="6.93970108"><ele>390.878998</ele><time>2009-09-26T09:43:23Z</time></trkpt>
<trkpt lat="46.31377792" lon="6.94034195"><ele>392.074005</ele><time>2009-09-26T09:43:31Z</time></trkpt>
<trkpt lat="46.31384659" lon="6.94093084"><ele>392.161987</ele><time>2009-09-26T09:43:39Z</time></trkpt>
<trkpt lat="46.31385040" lon="6.94099522"><ele>392.273987</ele><time>2009-09-26T09:43:40Z</time></trkpt>
<trkpt lat="46.31381989" lon="6.94123220"><ele>392.604004</ele><time>2009-09-26T09:43:44Z</time></trkpt>
<trkpt lat="46.31382751" lon="6.94150686"><ele>392.692993</ele><time>2009-09-26T09:43:48Z</time></trkpt>
<trkpt lat="46.31385422" lon="6.94156885"><ele>392.787994</ele><time>2009-09-26T09:43:49Z</time></trkpt>
<trkpt lat="46.31398773" lon="6.94214201"><ele>393.406006</ele><time>2009-09-26T09:43:57Z</time></trkpt>
<trkpt lat="46.31404114" lon="6.94275379"><ele>394.187012</ele><time>2009-09-26T09:44:05Z</time></trkpt>
<trkpt lat="46.31409073" lon="6.94323015"><ele>395.588013</ele><time>2009-09-26T09:44:12Z</time></trkpt>
<trkpt lat="46.31416321" lon="6.94393301"><ele>398.199005</ele><time>2009-09-26T09:44:22Z</time></trkpt>
<trkpt lat="46.31423569" lon="6.94455624"><ele>399.369995</ele><time>2009-09-26T09:44:31Z</time></trkpt>
<trkpt lat="46.31432724" lon="6.94512701"><ele>399.786011</ele><time>2009-09-26T09:44:39Z</time></trkpt>
<trkpt lat="46.31444931" lon="6.94583321"><ele>399.440002</ele><time>2009-09-26T09:44:48Z</time></trkpt>
<trkpt lat="46.31460190" lon="6.94649076"><ele>398.075012</ele><time>2009-09-26T09:44:55Z</time></trkpt>
<trkpt lat="46.31476593" lon="6.94714594"><ele>396.516998</ele><time>2009-09-26T09:45:01Z</time></trkpt>
<trkpt lat="46.31487274" lon="6.94749498"><ele>395.203003</ele><time>2009-09-26T09:45:04Z</time></trkpt>
<trkpt lat="46.31488419" lon="6.94779682"><ele>394.053009</ele><time>2009-09-26T09:45:07Z</time></trkpt>
<trkpt lat="46.31476593" lon="6.94789982"><ele>393.355988</ele><time>2009-09-26T09:45:09Z</time></trkpt>
<trkpt lat="46.31427383" lon="6.94824600"><ele>393.317993</ele><time>2009-09-26T09:45:17Z</time></trkpt>
<trkpt lat="46.31390381" lon="6.94852209"><ele>394.108002</ele><time>2009-09-26T09:45:24Z</time></trkpt>
<trkpt lat="46.31347656" lon="6.94885492"><ele>394.437012</ele><time>2009-09-26T09:45:32Z</time></trkpt>
<trkpt lat="46.31299973" lon="6.94923306"><ele>394.427002</ele><time>2009-09-26T09:45:41Z</time></trkpt>
<trkpt lat="46.31239319" lon="6.94971180"><ele>393.877991</ele><time>2009-09-26T09:45:52Z</time></trkpt>
<trkpt lat="46.31183624" lon="6.95016098"><ele>394.169006</ele><time>2009-09-26T09:46:02Z</time></trkpt>
<trkpt lat="46.31131363" lon="6.95058012"><ele>393.714996</ele><time>2009-09-26T09:46:11Z</time></trkpt>
<trkpt lat="46.31077957" lon="6.95101213"><ele>392.513</ele><time>2009-09-26T09:46:20Z</time></trkpt>
<trkpt lat="46.31026077" lon="6.95141792"><ele>392.14801</ele><time>2009-09-26T09:46:29Z</time></trkpt>
<trkpt lat="46.31015396" lon="6.95151091"><ele>392.118988</ele><time>2009-09-26T09:46:31Z</time></trkpt>
<trkpt lat="46.31009293" lon="6.95177794"><ele>392.028015</ele><time>2009-09-26T09:46:35Z</time></trkpt>
<trkpt lat="46.31012726" lon="6.95183516"><ele>392.118988</ele><time>2009-09-26T09:46:36Z</time></trkpt>
<trkpt lat="46.31042862" lon="6.95232916"><ele>393.050995</ele><time>2009-09-26T09:46:45Z</time></trkpt>
<trkpt lat="46.31071091" lon="6.95279312"><ele>394.166992</ele><time>2009-09-26T09:46:54Z</time></trkpt>
<trkpt lat="46.31104660" lon="6.95335293"><ele>395.415009</ele><time>2009-09-26T09:47:05Z</time></trkpt>
<trkpt lat="46.31127548" lon="6.95374393"><ele>396.191986</ele><time>2009-09-26T09:47:13Z</time></trkpt>
<trkpt lat="46.31156158" lon="6.95422792"><ele>397.02301</ele><time>2009-09-26T09:47:23Z</time></trkpt>
<trkpt lat="46.31185150" lon="6.95475006"><ele>397.282013</ele><time>2009-09-26T09:47:34Z</time></trkpt>
<trkpt lat="46.31210327" lon="6.95518017"><ele>397.434998</ele><time>2009-09-26T09:47:43Z</time></trkpt>
<trkpt lat="46.31235123" lon="6.95561886"><ele>397.760986</ele><time>2009-09-26T09:47:52Z</time></trkpt>
<trkpt lat="46.31260300" lon="6.95604897"><ele>398.756989</ele><time>2009-09-26T09:48:01Z</time></trkpt>
<trkpt lat="46.31285858" lon="6.95649385"><ele>399.81601</ele><time>2009-09-26T09:48:10Z</time></trkpt>
<trkpt lat="46.31313324" lon="6.95697594"><ele>402.756989</ele><time>2009-09-26T09:48:20Z</time></trkpt>
<trkpt lat="46.31332397" lon="6.95731211"><ele>405.484985</ele><time>2009-09-26T09:48:28Z</time></trkpt>
<trkpt lat="46.31349564" lon="6.95759583"><ele>407.144989</ele><time>2009-09-26T09:48:35Z</time></trkpt>
<trkpt lat="46.31362152" lon="6.95793390"><ele>406.944</ele><time>2009-09-26T09:48:42Z</time></trkpt>
<trkpt lat="46.31372452" lon="6.95841122"><ele>406.136993</ele><time>2009-09-26T09:48:49Z</time></trkpt>
<trkpt lat="46.31382751" lon="6.95890379"><ele>405.824005</ele><time>2009-09-26T09:48:55Z</time></trkpt>
<trkpt lat="46.31391525" lon="6.95943689"><ele>405.97699</ele><time>2009-09-26T09:49:03Z</time></trkpt>
<trkpt lat="46.31402969" lon="6.96002102"><ele>406.088013</ele><time>2009-09-26T09:49:12Z</time></trkpt>
<trkpt lat="46.31413269" lon="6.96060801"><ele>406.645996</ele><time>2009-09-26T09:49:21Z</time></trkpt>
<trkpt lat="46.31423569" lon="6.96122313"><ele>406.970001</ele><time>2009-09-26T09:49:31Z</time></trkpt>
<trkpt lat="46.31431198" lon="6.96169090"><ele>407.346008</ele><time>2009-09-26T09:49:39Z</time></trkpt>
<trkpt lat="46.31441879" lon="6.96223879"><ele>408.890015</ele><time>2009-09-26T09:49:48Z</time></trkpt>
<trkpt lat="46.31452942" lon="6.96284819"><ele>409.408997</ele><time>2009-09-26T09:49:58Z</time></trkpt>
<trkpt lat="46.31460953" lon="6.96338797"><ele>412.355011</ele><time>2009-09-26T09:50:07Z</time></trkpt>
<trkpt lat="46.31460953" lon="6.96384096"><ele>414.526001</ele><time>2009-09-26T09:50:15Z</time></trkpt>
<trkpt lat="46.31459808" lon="6.96414614"><ele>415.678009</ele><time>2009-09-26T09:50:22Z</time></trkpt>
<trkpt lat="46.31459045" lon="6.96433115"><ele>416.237</ele><time>2009-09-26T09:50:27Z</time></trkpt>
<trkpt lat="46.31461716" lon="6.96455622"><ele>418.018005</ele><time>2009-09-26T09:50:32Z</time></trkpt>
<trkpt lat="46.31467819" lon="6.96478510"><ele>419.278992</ele><time>2009-09-26T09:50:37Z</time></trkpt>
<trkpt lat="46.31476212" lon="6.96512985"><ele>418.834015</ele><time>2009-09-26T09:50:44Z</time></trkpt>
<trkpt lat="46.31486130" lon="6.96547413"><ele>417.519012</ele><time>2009-09-26T09:50:49Z</time></trkpt>
<trkpt lat="46.31491089" lon="6.96563101"><ele>417.286011</ele><time>2009-09-26T09:50:51Z</time></trkpt>
<trkpt lat="46.31504440" lon="6.96582508"><ele>416.54599</ele><time>2009-09-26T09:50:55Z</time></trkpt>
<trkpt lat="46.31528854" lon="6.96585083"><ele>416.334015</ele><time>2009-09-26T09:51:01Z</time></trkpt>
<trkpt lat="46.31537247" lon="6.96585798"><ele>415.936005</ele><time>2009-09-26T09:51:03Z</time></trkpt>
<trkpt lat="46.31559372" lon="6.96591806"><ele>416.132996</ele><time>2009-09-26T09:51:08Z</time></trkpt>
<trkpt lat="46.31563568" lon="6.96590900"><ele>416.100006</ele><time>2009-09-26T09:51:09Z</time></trkpt>
<trkpt lat="46.31604385" lon="6.96577692"><ele>416.122986</ele><time>2009-09-26T09:51:18Z</time></trkpt>
<trkpt lat="46.31618500" lon="6.96573114"><ele>415.752991</ele><time>2009-09-26T09:51:21Z</time></trkpt>
<trkpt lat="46.31633377" lon="6.96581793"><ele>415.744995</ele><time>2009-09-26T09:51:25Z</time></trkpt>
<trkpt lat="46.31635284" lon="6.96594715"><ele>415.740997</ele><time>2009-09-26T09:51:27Z</time></trkpt>
<trkpt lat="46.31641769" lon="6.96644497"><ele>415.920013</ele><time>2009-09-26T09:51:35Z</time></trkpt>
<trkpt lat="46.31650162" lon="6.96695423"><ele>416.944</ele><time>2009-09-26T09:51:43Z</time></trkpt>
<trkpt lat="46.31645203" lon="6.96736193"><ele>418.147003</ele><time>2009-09-26T09:51:49Z</time></trkpt>
<trkpt lat="46.31650162" lon="6.96772623"><ele>419.192993</ele><time>2009-09-26T09:51:56Z</time></trkpt>
<trkpt lat="46.31650925" lon="6.96778584"><ele>419.539001</ele><time>2009-09-26T09:52:00Z</time></trkpt>
<trkpt lat="46.31652451" lon="6.96789694"><ele>420.253998</ele><time>2009-09-26T09:52:04Z</time></trkpt>
<trkpt lat="46.31656647" lon="6.96812820"><ele>421.634003</ele><time>2009-09-26T09:52:09Z</time></trkpt>
<trkpt lat="46.31663513" lon="6.96856689"><ele>422.261993</ele><time>2009-09-26T09:52:17Z</time></trkpt>
<trkpt lat="46.31672668" lon="6.96919489"><ele>423.242004</ele><time>2009-09-26T09:52:28Z</time></trkpt>
<trkpt lat="46.31670761" lon="6.96975279"><ele>423.622986</ele><time>2009-09-26T09:52:37Z</time></trkpt>
<trkpt lat="46.31676102" lon="6.97001600"><ele>423.761993</ele><time>2009-09-26T09:52:41Z</time></trkpt>
<trkpt lat="46.31691742" lon="6.97003603"><ele>424.083008</ele><time>2009-09-26T09:52:46Z</time></trkpt>
<trkpt lat="46.31715393" lon="6.97009993"><ele>424.411987</ele><time>2009-09-26T09:52:53Z</time></trkpt>
<trkpt lat="46.31746674" lon="6.97017813"><ele>425.966003</ele><time>2009-09-26T09:53:01Z</time></trkpt>
<trkpt lat="46.31774521" lon="6.97023010"><ele>426.561005</ele><time>2009-09-26T09:53:08Z</time></trkpt>
<trkpt lat="46.31800461" lon="6.97007799"><ele>426.811005</ele><time>2009-09-26T09:53:13Z</time></trkpt>
<trkpt lat="46.31819153" lon="6.97016001"><ele>427.756989</ele><time>2009-09-26T09:53:17Z</time></trkpt>
<trkpt lat="46.31860352" lon="6.97035789"><ele>428.71701</ele><time>2009-09-26T09:53:26Z</time></trkpt>
<trkpt lat="46.31878281" lon="6.97041988"><ele>428.513</ele><time>2009-09-26T09:53:30Z</time></trkpt>
<trkpt lat="46.31892014" lon="6.97046280"><ele>428.321014</ele><time>2009-09-26T09:53:33Z</time></trkpt>
<trkpt lat="46.31904984" lon="6.97057104"><ele>428.143005</ele><time>2009-09-26T09:53:36Z</time></trkpt>
<trkpt lat="46.31922150" lon="6.97061586"><ele>427.359009</ele><time>2009-09-26T09:53:40Z</time></trkpt>
<trkpt lat="46.31931305" lon="6.97073221"><ele>427.56601</ele><time>2009-09-26T09:53:43Z</time></trkpt>
<trkpt lat="46.31940842" lon="6.97084284"><ele>427.532013</ele><time>2009-09-26T09:53:46Z</time></trkpt>
<trkpt lat="46.31940079" lon="6.97100401"><ele>427.428009</ele><time>2009-09-26T09:53:50Z</time></trkpt>
<trkpt lat="46.31932449" lon="6.97123098"><ele>427.417999</ele><time>2009-09-26T09:53:53Z</time></trkpt>
<trkpt lat="46.31922913" lon="6.97158623"><ele>427.335999</ele><time>2009-09-26T09:53:58Z</time></trkpt>
<trkpt lat="46.31914902" lon="6.97184992"><ele>427.96701</ele><time>2009-09-26T09:54:03Z</time></trkpt>
<trkpt lat="46.31902695" lon="6.97221613"><ele>429.212006</ele><time>2009-09-26T09:54:10Z</time></trkpt>
<trkpt lat="46.31902313" lon="6.97246790"><ele>430.253998</ele><time>2009-09-26T09:54:16Z</time></trkpt>
<trkpt lat="46.31902313" lon="6.97259808"><ele>433.65799</ele><time>2009-09-26T09:54:22Z</time></trkpt>
<trkpt lat="46.31902313" lon="6.97273111"><ele>433.781006</ele><time>2009-09-26T09:54:28Z</time></trkpt>
<trkpt lat="46.31902313" lon="6.97289515"><ele>435.984985</ele><time>2009-09-26T09:54:36Z</time></trkpt>
<trkpt lat="46.31902313" lon="6.97296000"><ele>441.86499</ele><time>2009-09-26T09:54:40Z</time></trkpt>
<trkpt lat="46.31905746" lon="6.97315884"><ele>440.867004</ele><time>2009-09-26T09:54:49Z</time></trkpt>
<trkpt lat="46.31908417" lon="6.97332287"><ele>443.752014</ele><time>2009-09-26T09:54:57Z</time></trkpt>
<trkpt lat="46.31909180" lon="6.97335911"><ele>445.391998</ele><time>2009-09-26T09:54:59Z</time></trkpt>
<trkpt lat="46.31911087" lon="6.97346401"><ele>447.643005</ele><time>2009-09-26T09:55:04Z</time></trkpt>
<trkpt lat="46.31914139" lon="6.97365808"><ele>446.957001</ele><time>2009-09-26T09:55:13Z</time></trkpt>
<trkpt lat="46.31919098" lon="6.97382402"><ele>446.817993</ele><time>2009-09-26T09:55:21Z</time></trkpt>
<trkpt lat="46.31920242" lon="6.97385597"><ele>447.01001</ele><time>2009-09-26T09:55:23Z</time></trkpt>
<trkpt lat="46.31923294" lon="6.97394180"><ele>447.230988</ele><time>2009-09-26T09:55:28Z</time></trkpt>
<trkpt lat="46.31930161" lon="6.97403193"><ele>448.404999</ele><time>2009-09-26T09:55:36Z</time></trkpt>
<trkpt lat="46.31936264" lon="6.97410107"><ele>449.192993</ele><time>2009-09-26T09:55:43Z</time></trkpt>
<trkpt lat="46.31938934" lon="6.97413683"><ele>449.550995</ele><time>2009-09-26T09:55:46Z</time></trkpt>
<trkpt lat="46.31943130" lon="6.97419405"><ele>450.078003</ele><time>2009-09-26T09:55:52Z</time></trkpt>
<trkpt lat="46.31952286" lon="6.97423697"><ele>451.174988</ele><time>2009-09-26T09:56:02Z</time></trkpt>
<trkpt lat="46.31959152" lon="6.97423697"><ele>450.664001</ele><time>2009-09-26T09:56:08Z</time></trkpt>
<trkpt lat="46.31962204" lon="6.97423697"><ele>450.562012</ele><time>2009-09-26T09:56:11Z</time></trkpt>
<trkpt lat="46.31966782" lon="6.97423697"><ele>450.050995</ele><time>2009-09-26T09:56:15Z</time></trkpt>
<trkpt lat="46.31976318" lon="6.97421312"><ele>450.548004</ele><time>2009-09-26T09:56:24Z</time></trkpt>
<trkpt lat="46.31986237" lon="6.97418022"><ele>451.43399</ele><time>2009-09-26T09:56:33Z</time></trkpt>
<trkpt lat="46.31996155" lon="6.97414589"><ele>452.708008</ele><time>2009-09-26T09:56:42Z</time></trkpt>
<trkpt lat="46.32003403" lon="6.97412205"><ele>453.795013</ele><time>2009-09-26T09:56:49Z</time></trkpt>
<trkpt lat="46.32014084" lon="6.97408724"><ele>455.864014</ele><time>2009-09-26T09:56:59Z</time></trkpt>
<trkpt lat="46.32019424" lon="6.97408104"><ele>456.825012</ele><time>2009-09-26T09:57:04Z</time></trkpt>
<trkpt lat="46.32030869" lon="6.97406816"><ele>459.457001</ele><time>2009-09-26T09:57:15Z</time></trkpt>
<trkpt lat="46.32039261" lon="6.97405720"><ele>461.539001</ele><time>2009-09-26T09:57:23Z</time></trkpt>
<trkpt lat="46.32048035" lon="6.97404480"><ele>464.269012</ele><time>2009-09-26T09:57:32Z</time></trkpt>
<trkpt lat="46.32057953" lon="6.97406006"><ele>465.993011</ele><time>2009-09-26T09:57:41Z</time></trkpt>
<trkpt lat="46.32064819" lon="6.97409487"><ele>467.091003</ele><time>2009-09-26T09:57:48Z</time></trkpt>
<trkpt lat="46.32074356" lon="6.97410107"><ele>468.765015</ele><time>2009-09-26T09:57:55Z</time></trkpt>
<trkpt lat="46.32074356" lon="6.97413206"><ele>469.540985</ele><time>2009-09-26T09:57:57Z</time></trkpt>
<trkpt lat="46.32074356" lon="6.97416115"><ele>470.127014</ele><time>2009-09-26T09:57:59Z</time></trkpt>
<trkpt lat="46.32074356" lon="6.97410202"><ele>469.97699</ele><time>2009-09-26T09:58:04Z</time></trkpt>
<trkpt lat="46.32077026" lon="6.97398806"><ele>470.931</ele><time>2009-09-26T09:58:09Z</time></trkpt>
<trkpt lat="46.32079697" lon="6.97392607"><ele>472.122009</ele><time>2009-09-26T09:58:14Z</time></trkpt>
<trkpt lat="46.32086945" lon="6.97378922"><ele>473.753998</ele><time>2009-09-26T09:58:24Z</time></trkpt>
<trkpt lat="46.32096481" lon="6.97369194"><ele>473.687012</ele><time>2009-09-26T09:58:30Z</time></trkpt>
<trkpt lat="46.32114029" lon="6.97348213"><ele>473.535004</ele><time>2009-09-26T09:58:37Z</time></trkpt>
<trkpt lat="46.32123184" lon="6.97333479"><ele>472.984985</ele><time>2009-09-26T09:58:41Z</time></trkpt>
<trkpt lat="46.32130051" lon="6.97317123"><ele>471.933014</ele><time>2009-09-26T09:58:44Z</time></trkpt>
<trkpt lat="46.32136917" lon="6.97284698"><ele>470.188995</ele><time>2009-09-26T09:58:48Z</time></trkpt>
<trkpt lat="46.32144547" lon="6.97228813"><ele>468.098999</ele><time>2009-09-26T09:58:54Z</time></trkpt>
<trkpt lat="46.32144547" lon="6.97155809"><ele>466.26001</ele><time>2009-09-26T09:59:01Z</time></trkpt>
<trkpt lat="46.32147980" lon="6.97143507"><ele>465.93399</ele><time>2009-09-26T09:59:02Z</time></trkpt>
<trkpt lat="46.32167435" lon="6.97114801"><ele>463.979004</ele><time>2009-09-26T09:59:06Z</time></trkpt>
<trkpt lat="46.32174301" lon="6.97108698"><ele>463.510986</ele><time>2009-09-26T09:59:07Z</time></trkpt>
<trkpt lat="46.32233810" lon="6.97065306"><ele>460.855988</ele><time>2009-09-26T09:59:15Z</time></trkpt>
<trkpt lat="46.32241058" lon="6.97058821"><ele>461.069</ele><time>2009-09-26T09:59:16Z</time></trkpt>
<trkpt lat="46.32258606" lon="6.97030878"><ele>460.901001</ele><time>2009-09-26T09:59:20Z</time></trkpt>
<trkpt lat="46.32276535" lon="6.96995592"><ele>460.522003</ele><time>2009-09-26T09:59:25Z</time></trkpt>
<trkpt lat="46.32295990" lon="6.96984291"><ele>460.34201</ele><time>2009-09-26T09:59:29Z</time></trkpt>
<trkpt lat="46.32316971" lon="6.96972418"><ele>458.584991</ele><time>2009-09-26T09:59:33Z</time></trkpt>
<trkpt lat="46.32324982" lon="6.96960402"><ele>457.118988</ele><time>2009-09-26T09:59:36Z</time></trkpt>
<trkpt lat="46.32327652" lon="6.96955013"><ele>456.252991</ele><time>2009-09-26T09:59:39Z</time></trkpt>
<trkpt lat="46.32333374" lon="6.96946621"><ele>455.033997</ele><time>2009-09-26T09:59:41Z</time></trkpt>
<trkpt lat="46.32340622" lon="6.96911621"><ele>450.321991</ele><time>2009-09-26T09:59:45Z</time></trkpt>
<trkpt lat="46.32341385" lon="6.96897793"><ele>448.609985</ele><time>2009-09-26T09:59:46Z</time></trkpt>
<trkpt lat="46.32337189" lon="6.96868801"><ele>444.549011</ele><time>2009-09-26T09:59:49Z</time></trkpt>
<trkpt lat="46.32322693" lon="6.96853113"><ele>440.783997</ele><time>2009-09-26T09:59:52Z</time></trkpt>
<trkpt lat="46.32304382" lon="6.96847582"><ele>437.199005</ele><time>2009-09-26T09:59:55Z</time></trkpt>
<trkpt lat="46.32289124" lon="6.96846485"><ele>435.75</ele><time>2009-09-26T09:59:57Z</time></trkpt>
<trkpt lat="46.32278061" lon="6.96841717"><ele>434.295013</ele><time>2009-09-26T09:59:59Z</time></trkpt>
<trkpt lat="46.32281113" lon="6.96834898"><ele>432.596985</ele><time>2009-09-26T10:00:03Z</time></trkpt>
<trkpt lat="46.32290268" lon="6.96816206"><ele>431.890991</ele><time>2009-09-26T10:00:09Z</time></trkpt>
<trkpt lat="46.32297516" lon="6.96801281"><ele>432.473999</ele><time>2009-09-26T10:00:15Z</time></trkpt>
<trkpt lat="46.32303238" lon="6.96789312"><ele>433.246002</ele><time>2009-09-26T10:00:22Z</time></trkpt>
<trkpt lat="46.32312393" lon="6.96774101"><ele>434.432007</ele><time>2009-09-26T10:00:31Z</time></trkpt>
<trkpt lat="46.32315826" lon="6.96767998"><ele>434.438995</ele><time>2009-09-26T10:00:35Z</time></trkpt>
<trkpt lat="46.32324600" lon="6.96752024"><ele>434.352997</ele><time>2009-09-26T10:00:45Z</time></trkpt>
<trkpt lat="46.32333374" lon="6.96738195"><ele>434.729004</ele><time>2009-09-26T10:00:54Z</time></trkpt>
<trkpt lat="46.32341385" lon="6.96727610"><ele>436.571014</ele><time>2009-09-26T10:01:02Z</time></trkpt>
<trkpt lat="46.32348251" lon="6.96718311"><ele>437.075012</ele><time>2009-09-26T10:01:09Z</time></trkpt>
<trkpt lat="46.32356644" lon="6.96706581"><ele>438.325012</ele><time>2009-09-26T10:01:17Z</time></trkpt>
<trkpt lat="46.32366562" lon="6.96693707"><ele>439.468994</ele><time>2009-09-26T10:01:26Z</time></trkpt>
<trkpt lat="46.32369614" lon="6.96689987"><ele>440.028992</ele><time>2009-09-26T10:01:29Z</time></trkpt>
<trkpt lat="46.32374191" lon="6.96684790"><ele>440.196991</ele><time>2009-09-26T10:01:33Z</time></trkpt>
<trkpt lat="46.32384872" lon="6.96672487"><ele>441.908997</ele><time>2009-09-26T10:01:43Z</time></trkpt>
<trkpt lat="46.32392120" lon="6.96664000"><ele>442.972992</ele><time>2009-09-26T10:01:50Z</time></trkpt>
<trkpt lat="46.32398987" lon="6.96654892"><ele>444.446014</ele><time>2009-09-26T10:01:57Z</time></trkpt>
<trkpt lat="46.32399750" lon="6.96653509"><ele>444.656006</ele><time>2009-09-26T10:01:58Z</time></trkpt>
<trkpt lat="46.32407379" lon="6.96641111"><ele>445.533997</ele><time>2009-09-26T10:02:06Z</time></trkpt>
<trkpt lat="46.32413483" lon="6.96635914"><ele>445.67099</ele><time>2009-09-26T10:02:10Z</time></trkpt>
<trkpt lat="46.32427216" lon="6.96628618"><ele>445.890991</ele><time>2009-09-26T10:02:18Z</time></trkpt>
<trkpt lat="46.32441711" lon="6.96622419"><ele>446.678009</ele><time>2009-09-26T10:02:27Z</time></trkpt>
<trkpt lat="46.32455826" lon="6.96619606"><ele>447.915985</ele><time>2009-09-26T10:02:34Z</time></trkpt>
<trkpt lat="46.32466125" lon="6.96617413"><ele>448.179993</ele><time>2009-09-26T10:02:39Z</time></trkpt>
<trkpt lat="46.32479095" lon="6.96609020"><ele>447.622986</ele><time>2009-09-26T10:02:43Z</time></trkpt>
<trkpt lat="46.32493591" lon="6.96621609"><ele>447.354004</ele><time>2009-09-26T10:02:47Z</time></trkpt>
<trkpt lat="46.32506180" lon="6.96632814"><ele>448.528992</ele><time>2009-09-26T10:02:53Z</time></trkpt>
<trkpt lat="46.32517242" lon="6.96647215"><ele>450.542999</ele><time>2009-09-26T10:03:01Z</time></trkpt>
<trkpt lat="46.32529449" lon="6.96665001"><ele>452.321014</ele><time>2009-09-26T10:03:10Z</time></trkpt>
<trkpt lat="46.32540131" lon="6.96681023"><ele>454.03299</ele><time>2009-09-26T10:03:18Z</time></trkpt>
<trkpt lat="46.32548523" lon="6.96695709"><ele>455.481995</ele><time>2009-09-26T10:03:25Z</time></trkpt>
<trkpt lat="46.32561874" lon="6.96721315"><ele>456.95401</ele><time>2009-09-26T10:03:36Z</time></trkpt>
<trkpt lat="46.32574463" lon="6.96733093"><ele>457.894012</ele><time>2009-09-26T10:03:43Z</time></trkpt>
<trkpt lat="46.32584763" lon="6.96739197"><ele>458.13501</ele><time>2009-09-26T10:03:50Z</time></trkpt>
<trkpt lat="46.32594681" lon="6.96744823"><ele>459.657013</ele><time>2009-09-26T10:03:58Z</time></trkpt>
<trkpt lat="46.32607269" lon="6.96752119"><ele>461.575989</ele><time>2009-09-26T10:04:08Z</time></trkpt>
<trkpt lat="46.32619858" lon="6.96759701"><ele>463.915985</ele><time>2009-09-26T10:04:18Z</time></trkpt>
<trkpt lat="46.32628632" lon="6.96765518"><ele>465.549988</ele><time>2009-09-26T10:04:25Z</time></trkpt>
<trkpt lat="46.32638931" lon="6.96772385"><ele>467.580994</ele><time>2009-09-26T10:04:34Z</time></trkpt>
<trkpt lat="46.32648849" lon="6.96780205"><ele>469.92099</ele><time>2009-09-26T10:04:43Z</time></trkpt>
<trkpt lat="46.32659149" lon="6.96782112"><ele>470.976013</ele><time>2009-09-26T10:04:50Z</time></trkpt>
<trkpt lat="46.32667160" lon="6.96779299"><ele>471.644989</ele><time>2009-09-26T10:04:56Z</time></trkpt>
<trkpt lat="46.32676697" lon="6.96768904"><ele>472.789001</ele><time>2009-09-26T10:05:03Z</time></trkpt>
<trkpt lat="46.32686234" lon="6.96757317"><ele>474.049011</ele><time>2009-09-26T10:05:10Z</time></trkpt>
<trkpt lat="46.32698441" lon="6.96741676"><ele>475.348999</ele><time>2009-09-26T10:05:19Z</time></trkpt>
<trkpt lat="46.32709885" lon="6.96727324"><ele>476.67099</ele><time>2009-09-26T10:05:27Z</time></trkpt>
<trkpt lat="46.32722473" lon="6.96724176"><ele>478.653015</ele><time>2009-09-26T10:05:36Z</time></trkpt>
<trkpt lat="46.32730484" lon="6.96724176"><ele>479.877991</ele><time>2009-09-26T10:05:43Z</time></trkpt>
<trkpt lat="46.32739258" lon="6.96726990"><ele>481.852997</ele><time>2009-09-26T10:05:52Z</time></trkpt>
<trkpt lat="46.32748413" lon="6.96727610"><ele>483.470001</ele><time>2009-09-26T10:06:00Z</time></trkpt>
<trkpt lat="46.32758331" lon="6.96727991"><ele>486.518005</ele><time>2009-09-26T10:06:09Z</time></trkpt>
<trkpt lat="46.32767105" lon="6.96730614"><ele>489.35199</ele><time>2009-09-26T10:06:18Z</time></trkpt>
<trkpt lat="46.32776642" lon="6.96730185"><ele>492.036987</ele><time>2009-09-26T10:06:27Z</time></trkpt>
<trkpt lat="46.32780457" lon="6.96729994"><ele>492.872009</ele><time>2009-09-26T10:06:31Z</time></trkpt>
<trkpt lat="46.32785797" lon="6.96729803"><ele>494</ele><time>2009-09-26T10:06:36Z</time></trkpt>
<trkpt lat="46.32790756" lon="6.96729612"><ele>494.76001</ele><time>2009-09-26T10:06:41Z</time></trkpt>
<trkpt lat="46.32799911" lon="6.96729183"><ele>495.653992</ele><time>2009-09-26T10:06:49Z</time></trkpt>
<trkpt lat="46.32807922" lon="6.96728802"><ele>496.265991</ele><time>2009-09-26T10:06:56Z</time></trkpt>
<trkpt lat="46.32811737" lon="6.96728706"><ele>496.424988</ele><time>2009-09-26T10:06:59Z</time></trkpt>
<trkpt lat="46.32822037" lon="6.96726799"><ele>497.126007</ele><time>2009-09-26T10:07:07Z</time></trkpt>
<trkpt lat="46.32834244" lon="6.96723223"><ele>498.178009</ele><time>2009-09-26T10:07:16Z</time></trkpt>
<trkpt lat="46.32844925" lon="6.96718597"><ele>499.532013</ele><time>2009-09-26T10:07:24Z</time></trkpt>
<trkpt lat="46.32856369" lon="6.96713018"><ele>500.895996</ele><time>2009-09-26T10:07:33Z</time></trkpt>
<trkpt lat="46.32868576" lon="6.96705484"><ele>501.684998</ele><time>2009-09-26T10:07:41Z</time></trkpt>
<trkpt lat="46.32882690" lon="6.96696377"><ele>502.806</ele><time>2009-09-26T10:07:50Z</time></trkpt>
<trkpt lat="46.32897949" lon="6.96686697"><ele>504.299011</ele><time>2009-09-26T10:08:00Z</time></trkpt>
<trkpt lat="46.32911301" lon="6.96678209"><ele>505.819</ele><time>2009-09-26T10:08:09Z</time></trkpt>
<trkpt lat="46.32926178" lon="6.96671295"><ele>507.407013</ele><time>2009-09-26T10:08:19Z</time></trkpt>
<trkpt lat="46.32938766" lon="6.96667290"><ele>508.36499</ele><time>2009-09-26T10:08:27Z</time></trkpt>
<trkpt lat="46.32954025" lon="6.96662378"><ele>509.093994</ele><time>2009-09-26T10:08:36Z</time></trkpt>
<trkpt lat="46.32967377" lon="6.96654415"><ele>509.533997</ele><time>2009-09-26T10:08:43Z</time></trkpt>
<trkpt lat="46.32983780" lon="6.96640921"><ele>509.851013</ele><time>2009-09-26T10:08:51Z</time></trkpt>
<trkpt lat="46.32997131" lon="6.96629000"><ele>510.242004</ele><time>2009-09-26T10:08:58Z</time></trkpt>
<trkpt lat="46.33013535" lon="6.96615696"><ele>510.677002</ele><time>2009-09-26T10:09:06Z</time></trkpt>
<trkpt lat="46.33021927" lon="6.96610022"><ele>511.764008</ele><time>2009-09-26T10:09:12Z</time></trkpt>
<trkpt lat="46.33031845" lon="6.96606302"><ele>513.255005</ele><time>2009-09-26T10:09:20Z</time></trkpt>
<trkpt lat="46.33039474" lon="6.96603489"><ele>514.39502</ele><time>2009-09-26T10:09:26Z</time></trkpt>
<trkpt lat="46.33050919" lon="6.96599388"><ele>515.367981</ele><time>2009-09-26T10:09:35Z</time></trkpt>
<trkpt lat="46.33061218" lon="6.96595716"><ele>516.401978</ele><time>2009-09-26T10:09:43Z</time></trkpt>
<trkpt lat="46.33075714" lon="6.96590424"><ele>517.674988</ele><time>2009-09-26T10:09:54Z</time></trkpt>
<trkpt lat="46.33087921" lon="6.96584177"><ele>518.546997</ele><time>2009-09-26T10:10:03Z</time></trkpt>
<trkpt lat="46.33096695" lon="6.96577120"><ele>518.64502</ele><time>2009-09-26T10:10:09Z</time></trkpt>
<trkpt lat="46.33112335" lon="6.96560287"><ele>519.015991</ele><time>2009-09-26T10:10:17Z</time></trkpt>
<trkpt lat="46.33132172" lon="6.96541882"><ele>520.150024</ele><time>2009-09-26T10:10:26Z</time></trkpt>
<trkpt lat="46.33145142" lon="6.96530485"><ele>520.981995</ele><time>2009-09-26T10:10:32Z</time></trkpt>
<trkpt lat="46.33162308" lon="6.96517420"><ele>521.72699</ele><time>2009-09-26T10:10:40Z</time></trkpt>
<trkpt lat="46.33178711" lon="6.96503782"><ele>521.854004</ele><time>2009-09-26T10:10:48Z</time></trkpt>
<trkpt lat="46.33193207" lon="6.96487808"><ele>521.784973</ele><time>2009-09-26T10:10:56Z</time></trkpt>
<trkpt lat="46.33208466" lon="6.96464396"><ele>522.41803</ele><time>2009-09-26T10:11:05Z</time></trkpt>
<trkpt lat="46.33222198" lon="6.96440887"><ele>523.671997</ele><time>2009-09-26T10:11:14Z</time></trkpt>
<trkpt lat="46.33230209" lon="6.96427298"><ele>524.401978</ele><time>2009-09-26T10:11:21Z</time></trkpt>
<trkpt lat="46.33239365" lon="6.96413612"><ele>525.424011</ele><time>2009-09-26T10:11:29Z</time></trkpt>
<trkpt lat="46.33248520" lon="6.96401405"><ele>527.219971</ele><time>2009-09-26T10:11:37Z</time></trkpt>
<trkpt lat="46.33258057" lon="6.96389389"><ele>528.473022</ele><time>2009-09-26T10:11:45Z</time></trkpt>
<trkpt lat="46.33268356" lon="6.96376896"><ele>528.697998</ele><time>2009-09-26T10:11:53Z</time></trkpt>
<trkpt lat="46.33278275" lon="6.96362782"><ele>526.833984</ele><time>2009-09-26T10:11:58Z</time></trkpt>
<trkpt lat="46.33288956" lon="6.96349478"><ele>528.007019</ele><time>2009-09-26T10:12:02Z</time></trkpt>
<trkpt lat="46.33295059" lon="6.96345377"><ele>529.922974</ele><time>2009-09-26T10:12:07Z</time></trkpt>
<trkpt lat="46.33301544" lon="6.96342182"><ele>529.049011</ele><time>2009-09-26T10:12:13Z</time></trkpt>
<trkpt lat="46.33304214" lon="6.96355200"><ele>529.682007</ele><time>2009-09-26T10:12:19Z</time></trkpt>
<trkpt lat="46.33295441" lon="6.96369410"><ele>532.354004</ele><time>2009-09-26T10:12:28Z</time></trkpt>
<trkpt lat="46.33288574" lon="6.96380281"><ele>537.091003</ele><time>2009-09-26T10:12:34Z</time></trkpt>
<trkpt lat="46.33277130" lon="6.96399212"><ele>540.486023</ele><time>2009-09-26T10:12:44Z</time></trkpt>
<trkpt lat="46.33266830" lon="6.96419716"><ele>543.015015</ele><time>2009-09-26T10:12:54Z</time></trkpt>
<trkpt lat="46.33257675" lon="6.96440792"><ele>544.796997</ele><time>2009-09-26T10:13:04Z</time></trkpt>
<trkpt lat="46.33250427" lon="6.96465302"><ele>544.755981</ele><time>2009-09-26T10:13:15Z</time></trkpt>
<trkpt lat="46.33250046" lon="6.96466684"><ele>544.703979</ele><time>2009-09-26T10:13:16Z</time></trkpt>
<trkpt lat="46.33252335" lon="6.96473122"><ele>543.901001</ele><time>2009-09-26T10:13:20Z</time></trkpt>
<trkpt lat="46.33261108" lon="6.96477413"><ele>543.085999</ele><time>2009-09-26T10:13:26Z</time></trkpt>
<trkpt lat="46.33271027" lon="6.96462917"><ele>543.291992</ele><time>2009-09-26T10:13:34Z</time></trkpt>
<trkpt lat="46.33282852" lon="6.96436119"><ele>544.554993</ele><time>2009-09-26T10:13:45Z</time></trkpt>
<trkpt lat="46.33294678" lon="6.96425200"><ele>545.370972</ele><time>2009-09-26T10:13:53Z</time></trkpt>
<trkpt lat="46.33305740" lon="6.96421194"><ele>545.992981</ele><time>2009-09-26T10:14:00Z</time></trkpt>
<trkpt lat="46.33307266" lon="6.96420622"><ele>546.132996</ele><time>2009-09-26T10:14:01Z</time></trkpt>
<trkpt lat="46.33317947" lon="6.96421003"><ele>546.718994</ele><time>2009-09-26T10:14:09Z</time></trkpt>
<trkpt lat="46.33320618" lon="6.96421480"><ele>547.030029</ele><time>2009-09-26T10:14:15Z</time></trkpt>
<trkpt lat="46.33330536" lon="6.96423483"><ele>539.015015</ele><time>2009-09-26T10:14:34Z</time></trkpt>
<trkpt lat="46.33342743" lon="6.96431780"><ele>537.809998</ele><time>2009-09-26T10:14:43Z</time></trkpt>
<trkpt lat="46.33345795" lon="6.96433878"><ele>537.882996</ele><time>2009-09-26T10:14:45Z</time></trkpt>
<trkpt lat="46.33353806" lon="6.96439600"><ele>538.164001</ele><time>2009-09-26T10:14:51Z</time></trkpt>
<trkpt lat="46.33357239" lon="6.96442080"><ele>538.338013</ele><time>2009-09-26T10:14:54Z</time></trkpt>
<trkpt lat="46.33359528" lon="6.96443796"><ele>538.265015</ele><time>2009-09-26T10:14:56Z</time></trkpt>
<trkpt lat="46.33361435" lon="6.96445179"><ele>538.937988</ele><time>2009-09-26T10:15:00Z</time></trkpt>
<trkpt lat="46.33367920" lon="6.96448421"><ele>541.494995</ele><time>2009-09-26T10:15:32Z</time></trkpt>
<trkpt lat="46.33378220" lon="6.96450901"><ele>540.84198</ele><time>2009-09-26T10:15:39Z</time></trkpt>
<trkpt lat="46.33388519" lon="6.96450377"><ele>541.737</ele><time>2009-09-26T10:15:46Z</time></trkpt>
<trkpt lat="46.33401871" lon="6.96447515"><ele>543.322021</ele><time>2009-09-26T10:15:54Z</time></trkpt>
<trkpt lat="46.33413696" lon="6.96442509"><ele>545.35199</ele><time>2009-09-26T10:16:02Z</time></trkpt>
<trkpt lat="46.33426666" lon="6.96435308"><ele>547.65802</ele><time>2009-09-26T10:16:11Z</time></trkpt>
<trkpt lat="46.33438873" lon="6.96428490"><ele>550.231018</ele><time>2009-09-26T10:16:20Z</time></trkpt>
<trkpt lat="46.33447647" lon="6.96423578"><ele>552.26001</ele><time>2009-09-26T10:16:27Z</time></trkpt>
<trkpt lat="46.33455658" lon="6.96419096"><ele>553.820007</ele><time>2009-09-26T10:16:33Z</time></trkpt>
<trkpt lat="46.33457947" lon="6.96417618"><ele>554.320007</ele><time>2009-09-26T10:16:35Z</time></trkpt>
<trkpt lat="46.33461380" lon="6.96415806"><ele>555.189026</ele><time>2009-09-26T10:16:40Z</time></trkpt>
<trkpt lat="46.33465576" lon="6.96413612"><ele>556.950012</ele><time>2009-09-26T10:17:51Z</time></trkpt>
<trkpt lat="46.33475494" lon="6.96408606"><ele>558.10199</ele><time>2009-09-26T10:17:58Z</time></trkpt>
<trkpt lat="46.33489990" lon="6.96401405"><ele>560.359985</ele><time>2009-09-26T10:18:08Z</time></trkpt>
<trkpt lat="46.33499908" lon="6.96396399"><ele>562.091003</ele><time>2009-09-26T10:18:15Z</time></trkpt>
<trkpt lat="46.33513260" lon="6.96389914"><ele>564.171021</ele><time>2009-09-26T10:18:24Z</time></trkpt>
<trkpt lat="46.33528137" lon="6.96383095"><ele>566.530029</ele><time>2009-09-26T10:18:34Z</time></trkpt>
<trkpt lat="46.33535385" lon="6.96384001"><ele>567.999023</ele><time>2009-09-26T10:18:41Z</time></trkpt>
<trkpt lat="46.33535385" lon="6.96384001"><ele>568.377991</ele><time>2009-09-26T10:18:43Z</time></trkpt>
<trkpt lat="46.33539581" lon="6.96384382"><ele>566.10199</ele><time>2009-09-26T10:19:35Z</time></trkpt>
<trkpt lat="46.33551025" lon="6.96387291"><ele>565.797974</ele><time>2009-09-26T10:19:42Z</time></trkpt>
<trkpt lat="46.33563614" lon="6.96392822"><ele>566.392029</ele><time>2009-09-26T10:19:50Z</time></trkpt>
<trkpt lat="46.33580399" lon="6.96400404"><ele>567.929016</ele><time>2009-09-26T10:20:01Z</time></trkpt>
<trkpt lat="46.33596420" lon="6.96408176"><ele>570.142029</ele><time>2009-09-26T10:20:12Z</time></trkpt>
<trkpt lat="46.33600616" lon="6.96410322"><ele>570.682007</ele><time>2009-09-26T10:20:15Z</time></trkpt>
<trkpt lat="46.33612823" lon="6.96417522"><ele>571.994019</ele><time>2009-09-26T10:20:26Z</time></trkpt>
<trkpt lat="46.33620071" lon="6.96425676"><ele>572.908997</ele><time>2009-09-26T10:20:34Z</time></trkpt>
<trkpt lat="46.33626938" lon="6.96433401"><ele>573.586975</ele><time>2009-09-26T10:20:41Z</time></trkpt>
<trkpt lat="46.33632660" lon="6.96444798"><ele>574.999023</ele><time>2009-09-26T10:20:50Z</time></trkpt>
<trkpt lat="46.33640671" lon="6.96456003"><ele>576.424988</ele><time>2009-09-26T10:20:59Z</time></trkpt>
<trkpt lat="46.33642578" lon="6.96470022"><ele>580.710999</ele><time>2009-09-26T10:21:08Z</time></trkpt>
<trkpt lat="46.33635712" lon="6.96487713"><ele>583.822998</ele><time>2009-09-26T10:21:16Z</time></trkpt>
<trkpt lat="46.33619690" lon="6.96487188"><ele>585.744995</ele><time>2009-09-26T10:21:24Z</time></trkpt>
<trkpt lat="46.33609772" lon="6.96478605"><ele>587.198975</ele><time>2009-09-26T10:21:31Z</time></trkpt>
<trkpt lat="46.33594513" lon="6.96464205"><ele>588.427979</ele><time>2009-09-26T10:21:41Z</time></trkpt>
<trkpt lat="46.33581924" lon="6.96462107"><ele>589.419006</ele><time>2009-09-26T10:21:50Z</time></trkpt>
<trkpt lat="46.33580780" lon="6.96462917"><ele>589.414001</ele><time>2009-09-26T10:21:51Z</time></trkpt>
<trkpt lat="46.33578110" lon="6.96466112"><ele>591.666992</ele><time>2009-09-26T10:21:58Z</time></trkpt>
<trkpt lat="46.33614731" lon="6.96419477"><ele>575.669006</ele><time>2009-09-26T10:23:19Z</time></trkpt>
<trkpt lat="46.33589554" lon="6.96487999"><ele>579.004028</ele><time>2009-09-26T10:23:27Z</time></trkpt>
<trkpt lat="46.33599472" lon="6.96492004"><ele>582.512024</ele><time>2009-09-26T10:23:34Z</time></trkpt>
<trkpt lat="46.33610535" lon="6.96501780"><ele>586.382996</ele><time>2009-09-26T10:23:43Z</time></trkpt>
<trkpt lat="46.33621597" lon="6.96511221"><ele>591.856018</ele><time>2009-09-26T10:23:52Z</time></trkpt>
<trkpt lat="46.33633041" lon="6.96519995"><ele>595.955017</ele><time>2009-09-26T10:24:01Z</time></trkpt>
<trkpt lat="46.33643341" lon="6.96526289"><ele>597.356995</ele><time>2009-09-26T10:24:09Z</time></trkpt>
<trkpt lat="46.33657074" lon="6.96533823"><ele>599.005981</ele><time>2009-09-26T10:24:19Z</time></trkpt>
<trkpt lat="46.33666229" lon="6.96541786"><ele>602.286987</ele><time>2009-09-26T10:24:27Z</time></trkpt>
<trkpt lat="46.33676529" lon="6.96552086"><ele>602.687012</ele><time>2009-09-26T10:24:36Z</time></trkpt>
<trkpt lat="46.33684540" lon="6.96561289"><ele>602.406006</ele><time>2009-09-26T10:24:43Z</time></trkpt>
<trkpt lat="46.33692932" lon="6.96568823"><ele>605.557983</ele><time>2009-09-26T10:24:49Z</time></trkpt>
<trkpt lat="46.33705139" lon="6.96573782"><ele>611.52002</ele><time>2009-09-26T10:24:58Z</time></trkpt>
<trkpt lat="46.33713913" lon="6.96577597"><ele>614.315979</ele><time>2009-09-26T10:25:05Z</time></trkpt>
<trkpt lat="46.33722305" lon="6.96586418"><ele>616.500977</ele><time>2009-09-26T10:25:14Z</time></trkpt>
<trkpt lat="46.33730698" lon="6.96596384"><ele>624.111023</ele><time>2009-09-26T10:25:22Z</time></trkpt>
<trkpt lat="46.33732605" lon="6.96598577"><ele>626.249023</ele><time>2009-09-26T10:25:24Z</time></trkpt>
<trkpt lat="46.33745193" lon="6.96606207"><ele>629.242004</ele><time>2009-09-26T10:25:30Z</time></trkpt>
<trkpt lat="46.33754349" lon="6.96601295"><ele>625.984985</ele><time>2009-09-26T10:25:36Z</time></trkpt>
<trkpt lat="46.33761597" lon="6.96587706"><ele>624.296021</ele><time>2009-09-26T10:25:43Z</time></trkpt>
<trkpt lat="46.33764267" lon="6.96571398"><ele>624.328003</ele><time>2009-09-26T10:25:50Z</time></trkpt>
<trkpt lat="46.33765030" lon="6.96551514"><ele>624.028992</ele><time>2009-09-26T10:25:58Z</time></trkpt>
<trkpt lat="46.33765030" lon="6.96537781"><ele>624.426025</ele><time>2009-09-26T10:26:04Z</time></trkpt>
<trkpt lat="46.33765793" lon="6.96524382"><ele>626.174988</ele><time>2009-09-26T10:26:10Z</time></trkpt>
<trkpt lat="46.33767319" lon="6.96507311"><ele>627.137024</ele><time>2009-09-26T10:26:18Z</time></trkpt>
<trkpt lat="46.33768845" lon="6.96492815"><ele>627.22998</ele><time>2009-09-26T10:26:25Z</time></trkpt>
<trkpt lat="46.33771515" lon="6.96478319"><ele>627.765015</ele><time>2009-09-26T10:26:32Z</time></trkpt>
<trkpt lat="46.33773041" lon="6.96472979"><ele>628.224976</ele><time>2009-09-26T10:26:35Z</time></trkpt>
<trkpt lat="46.33780289" lon="6.96457577"><ele>628.044983</ele><time>2009-09-26T10:26:44Z</time></trkpt>
<trkpt lat="46.33792114" lon="6.96442318"><ele>627.861023</ele><time>2009-09-26T10:26:53Z</time></trkpt>
<trkpt lat="46.33807755" lon="6.96433306"><ele>628.828979</ele><time>2009-09-26T10:27:03Z</time></trkpt>
<trkpt lat="46.33810806" lon="6.96432686"><ele>628.54303</ele><time>2009-09-26T10:27:05Z</time></trkpt>
<trkpt lat="46.33813477" lon="6.96442890"><ele>627.341003</ele><time>2009-09-26T10:27:10Z</time></trkpt>
<trkpt lat="46.33800125" lon="6.96464109"><ele>629.301025</ele><time>2009-09-26T10:27:21Z</time></trkpt>
<trkpt lat="46.33789825" lon="6.96478987"><ele>632.341003</ele><time>2009-09-26T10:27:31Z</time></trkpt>
<trkpt lat="46.33770370" lon="6.96483183"><ele>636.356018</ele><time>2009-09-26T10:27:39Z</time></trkpt>
<trkpt lat="46.33784485" lon="6.96497917"><ele>637.577026</ele><time>2009-09-26T10:27:43Z</time></trkpt>
<trkpt lat="46.33788681" lon="6.96501017"><ele>633.642029</ele><time>2009-09-26T10:27:49Z</time></trkpt>
<trkpt lat="46.33792877" lon="6.96501017"><ele>632.669983</ele><time>2009-09-26T10:27:54Z</time></trkpt>
<trkpt lat="46.33799744" lon="6.96493196"><ele>632.940002</ele><time>2009-09-26T10:27:59Z</time></trkpt>
<trkpt lat="46.33809280" lon="6.96482515"><ele>634.973999</ele><time>2009-09-26T10:28:06Z</time></trkpt>
<trkpt lat="46.33818436" lon="6.96477509"><ele>638.007019</ele><time>2009-09-26T10:28:12Z</time></trkpt>
<trkpt lat="46.33825684" lon="6.96476078"><ele>640.887024</ele><time>2009-09-26T10:28:18Z</time></trkpt>
<trkpt lat="46.33829880" lon="6.96479416"><ele>639.632019</ele><time>2009-09-26T10:28:22Z</time></trkpt>
<trkpt lat="46.33829498" lon="6.96490288"><ele>640.888977</ele><time>2009-09-26T10:28:27Z</time></trkpt>
<trkpt lat="46.33821869" lon="6.96504307"><ele>643.112976</ele><time>2009-09-26T10:28:35Z</time></trkpt>
<trkpt lat="46.33814621" lon="6.96517515"><ele>644.435974</ele><time>2009-09-26T10:28:43Z</time></trkpt>
<trkpt lat="46.33809662" lon="6.96531916"><ele>648.124023</ele><time>2009-09-26T10:28:51Z</time></trkpt>
<trkpt lat="46.33803558" lon="6.96550417"><ele>656.432983</ele><time>2009-09-26T10:29:01Z</time></trkpt>
<trkpt lat="46.33803558" lon="6.96563292"><ele>657.684021</ele><time>2009-09-26T10:29:10Z</time></trkpt>
<trkpt lat="46.33805084" lon="6.96566105"><ele>656.47699</ele><time>2009-09-26T10:29:12Z</time></trkpt>
<trkpt lat="46.33817673" lon="6.96566010"><ele>654.484009</ele><time>2009-09-26T10:29:19Z</time></trkpt>
<trkpt lat="46.33820343" lon="6.96560717"><ele>654.328003</ele><time>2009-09-26T10:29:22Z</time></trkpt>
<trkpt lat="46.33831024" lon="6.96549702"><ele>656.185974</ele><time>2009-09-26T10:29:32Z</time></trkpt>
<trkpt lat="46.33839417" lon="6.96549320"><ele>657.200012</ele><time>2009-09-26T10:29:39Z</time></trkpt>
<trkpt lat="46.33850479" lon="6.96551323"><ele>656.59198</ele><time>2009-09-26T10:29:48Z</time></trkpt>
<trkpt lat="46.33862305" lon="6.96555805"><ele>658.539978</ele><time>2009-09-26T10:29:57Z</time></trkpt>
<trkpt lat="46.33870316" lon="6.96561193"><ele>659.835999</ele><time>2009-09-26T10:30:04Z</time></trkpt>
<trkpt lat="46.33879852" lon="6.96566486"><ele>659.554016</ele><time>2009-09-26T10:30:12Z</time></trkpt>
<trkpt lat="46.33889389" lon="6.96575499"><ele>660.716003</ele><time>2009-09-26T10:30:21Z</time></trkpt>
<trkpt lat="46.33896637" lon="6.96582508"><ele>661.815979</ele><time>2009-09-26T10:30:28Z</time></trkpt>
<trkpt lat="46.33907700" lon="6.96593094"><ele>663.901978</ele><time>2009-09-26T10:30:38Z</time></trkpt>
<trkpt lat="46.33917236" lon="6.96602201"><ele>666.192993</ele><time>2009-09-26T10:30:47Z</time></trkpt>
<trkpt lat="46.33927917" lon="6.96612597"><ele>666.281006</ele><time>2009-09-26T10:30:58Z</time></trkpt>
<trkpt lat="46.33929062" lon="6.96616697"><ele>667.715027</ele><time>2009-09-26T10:31:02Z</time></trkpt>
<trkpt lat="46.33929443" lon="6.96623182"><ele>668.189026</ele><time>2009-09-26T10:31:05Z</time></trkpt>
<trkpt lat="46.33913040" lon="6.96627188"><ele>670.54303</ele><time>2009-09-26T10:31:15Z</time></trkpt>
<trkpt lat="46.33902359" lon="6.96625090"><ele>668.973022</ele><time>2009-09-26T10:31:24Z</time></trkpt>
<trkpt lat="46.33890915" lon="6.96623278"><ele>670.10199</ele><time>2009-09-26T10:31:33Z</time></trkpt>
<trkpt lat="46.33878708" lon="6.96625423"><ele>671.83197</ele><time>2009-09-26T10:31:43Z</time></trkpt>
<trkpt lat="46.33879471" lon="6.96636391"><ele>673.314026</ele><time>2009-09-26T10:31:50Z</time></trkpt>
<trkpt lat="46.33888626" lon="6.96639395"><ele>672.846008</ele><time>2009-09-26T10:31:56Z</time></trkpt>
<trkpt lat="46.33902359" lon="6.96646023"><ele>673.205994</ele><time>2009-09-26T10:32:04Z</time></trkpt>
<trkpt lat="46.33909988" lon="6.96657181"><ele>675.14801</ele><time>2009-09-26T10:32:12Z</time></trkpt>
<trkpt lat="46.33917618" lon="6.96670294"><ele>675.85199</ele><time>2009-09-26T10:32:20Z</time></trkpt>
<trkpt lat="46.33925629" lon="6.96683979"><ele>681.268982</ele><time>2009-09-26T10:32:29Z</time></trkpt>
<trkpt lat="46.33935165" lon="6.96695995"><ele>684.062012</ele><time>2009-09-26T10:32:37Z</time></trkpt>
<trkpt lat="46.33950424" lon="6.96698713"><ele>684.304993</ele><time>2009-09-26T10:32:46Z</time></trkpt>
<trkpt lat="46.33961868" lon="6.96686602"><ele>682.98999</ele><time>2009-09-26T10:32:54Z</time></trkpt>
<trkpt lat="46.33962250" lon="6.96670485"><ele>682.119019</ele><time>2009-09-26T10:33:01Z</time></trkpt>
<trkpt lat="46.33962250" lon="6.96643209"><ele>681.653992</ele><time>2009-09-26T10:33:11Z</time></trkpt>
<trkpt lat="46.33968353" lon="6.96613884"><ele>682.067993</ele><time>2009-09-26T10:33:19Z</time></trkpt>
<trkpt lat="46.33979416" lon="6.96606207"><ele>681.526978</ele><time>2009-09-26T10:33:26Z</time></trkpt>
<trkpt lat="46.33993530" lon="6.96598387"><ele>682.606995</ele><time>2009-09-26T10:33:33Z</time></trkpt>
<trkpt lat="46.34008026" lon="6.96585512"><ele>682.999023</ele><time>2009-09-26T10:33:40Z</time></trkpt>
<trkpt lat="46.34020996" lon="6.96573400"><ele>684.223022</ele><time>2009-09-26T10:33:47Z</time></trkpt>
<trkpt lat="46.34030914" lon="6.96571207"><ele>684.807983</ele><time>2009-09-26T10:33:54Z</time></trkpt>
<trkpt lat="46.34040833" lon="6.96565723"><ele>685.710022</ele><time>2009-09-26T10:34:01Z</time></trkpt>
<trkpt lat="46.34048462" lon="6.96556807"><ele>686.838013</ele><time>2009-09-26T10:34:08Z</time></trkpt>
<trkpt lat="46.34049988" lon="6.96541500"><ele>689.625</ele><time>2009-09-26T10:34:15Z</time></trkpt>
<trkpt lat="46.34051895" lon="6.96521521"><ele>693.245972</ele><time>2009-09-26T10:34:24Z</time></trkpt>
<trkpt lat="46.34057999" lon="6.96506310"><ele>693.947021</ele><time>2009-09-26T10:34:32Z</time></trkpt>
<trkpt lat="46.34064865" lon="6.96497011"><ele>697.348022</ele><time>2009-09-26T10:34:39Z</time></trkpt>
<trkpt lat="46.34075928" lon="6.96484089"><ele>700.289001</ele><time>2009-09-26T10:34:49Z</time></trkpt>
<trkpt lat="46.34088135" lon="6.96469879"><ele>701.995972</ele><time>2009-09-26T10:34:59Z</time></trkpt>
<trkpt lat="46.34098053" lon="6.96458578"><ele>704.176025</ele><time>2009-09-26T10:35:08Z</time></trkpt>
<trkpt lat="46.34107208" lon="6.96450090"><ele>703.973999</ele><time>2009-09-26T10:35:16Z</time></trkpt>
<trkpt lat="46.34113693" lon="6.96447897"><ele>702.294983</ele><time>2009-09-26T10:35:21Z</time></trkpt>
<trkpt lat="46.34120941" lon="6.96452379"><ele>703.52002</ele><time>2009-09-26T10:35:28Z</time></trkpt>
<trkpt lat="46.34123230" lon="6.96462584"><ele>704.317993</ele><time>2009-09-26T10:35:30Z</time></trkpt>
<trkpt lat="46.34111786" lon="6.96474218"><ele>704.854004</ele><time>2009-09-26T10:35:39Z</time></trkpt>
<trkpt lat="46.34100723" lon="6.96485901"><ele>703.656006</ele><time>2009-09-26T10:35:50Z</time></trkpt>
<trkpt lat="46.34093475" lon="6.96497583"><ele>705.94397</ele><time>2009-09-26T10:35:58Z</time></trkpt>
<trkpt lat="46.34084702" lon="6.96510601"><ele>705.984009</ele><time>2009-09-26T10:36:09Z</time></trkpt>
<trkpt lat="46.34078217" lon="6.96521807"><ele>708.333984</ele><time>2009-09-26T10:36:17Z</time></trkpt>
<trkpt lat="46.34078598" lon="6.96529579"><ele>712.90802</ele><time>2009-09-26T10:36:22Z</time></trkpt>
<trkpt lat="46.34086990" lon="6.96533203"><ele>711.491028</ele><time>2009-09-26T10:36:29Z</time></trkpt>
<trkpt lat="46.34091187" lon="6.96529102"><ele>711.841003</ele><time>2009-09-26T10:36:32Z</time></trkpt>
<trkpt lat="46.34103394" lon="6.96516609"><ele>713.708008</ele><time>2009-09-26T10:36:42Z</time></trkpt>
<trkpt lat="46.34111404" lon="6.96509504"><ele>715.241028</ele><time>2009-09-26T10:36:49Z</time></trkpt>
<trkpt lat="46.34116364" lon="6.96508980"><ele>716.672974</ele><time>2009-09-26T10:36:53Z</time></trkpt>
<trkpt lat="46.34128571" lon="6.96507597"><ele>716.924011</ele><time>2009-09-26T10:37:01Z</time></trkpt>
<trkpt lat="46.34137344" lon="6.96504498"><ele>718.828003</ele><time>2009-09-26T10:37:09Z</time></trkpt>
<trkpt lat="46.34137344" lon="6.96504498"><ele>720.323975</ele><time>2009-09-26T10:37:11Z</time></trkpt>
<trkpt lat="46.34146881" lon="6.96500921"><ele>743.010986</ele><time>2009-09-26T10:38:14Z</time></trkpt>
<trkpt lat="46.34154510" lon="6.96498013"><ele>742.919983</ele><time>2009-09-26T10:38:21Z</time></trkpt>
<trkpt lat="46.34159470" lon="6.96497679"><ele>741.164001</ele><time>2009-09-26T10:38:29Z</time></trkpt>
<trkpt lat="46.34166718" lon="6.96501589"><ele>740.617981</ele><time>2009-09-26T10:38:36Z</time></trkpt>
<trkpt lat="46.34176636" lon="6.96506691"><ele>735.645996</ele><time>2009-09-26T10:38:43Z</time></trkpt>
<trkpt lat="46.34185028" lon="6.96511316"><ele>733.723999</ele><time>2009-09-26T10:38:50Z</time></trkpt>
<trkpt lat="46.34197617" lon="6.96514988"><ele>731.616028</ele><time>2009-09-26T10:38:57Z</time></trkpt>
<trkpt lat="46.34207153" lon="6.96511984"><ele>733.578003</ele><time>2009-09-26T10:39:03Z</time></trkpt>
<trkpt lat="46.34220505" lon="6.96507883"><ele>732.473022</ele><time>2009-09-26T10:39:12Z</time></trkpt>
<trkpt lat="46.34237671" lon="6.96510077"><ele>732.062012</ele><time>2009-09-26T10:39:20Z</time></trkpt>
<trkpt lat="46.34241104" lon="6.96508980"><ele>732.262024</ele><time>2009-09-26T10:39:28Z</time></trkpt>
<trkpt lat="46.34242630" lon="6.96509886"><ele>732.026978</ele><time>2009-09-26T10:39:32Z</time></trkpt>
<trkpt lat="46.34240723" lon="6.96508598"><ele>738.843994</ele><time>2009-09-26T10:40:39Z</time></trkpt>
<trkpt lat="46.34241867" lon="6.96509409"><ele>739.018982</ele><time>2009-09-26T10:40:40Z</time></trkpt>
<trkpt lat="46.34236526" lon="6.96512413"><ele>740.307983</ele><time>2009-09-26T10:40:46Z</time></trkpt>
<trkpt lat="46.34235001" lon="6.96515083"><ele>740.390991</ele><time>2009-09-26T10:40:49Z</time></trkpt>
<trkpt lat="46.34231186" lon="6.96521521"><ele>741.744995</ele><time>2009-09-26T10:40:57Z</time></trkpt>
<trkpt lat="46.34229279" lon="6.96524191"><ele>741.684998</ele><time>2009-09-26T10:40:59Z</time></trkpt>
<trkpt lat="46.34225082" lon="6.96530390"><ele>741.112976</ele><time>2009-09-26T10:41:05Z</time></trkpt>
<trkpt lat="46.34219742" lon="6.96537495"><ele>742.934998</ele><time>2009-09-26T10:41:12Z</time></trkpt>
<trkpt lat="46.34218979" lon="6.96545601"><ele>740.255981</ele><time>2009-09-26T10:41:19Z</time></trkpt>
<trkpt lat="46.34218597" lon="6.96549988"><ele>740.036011</ele><time>2009-09-26T10:41:22Z</time></trkpt>
<trkpt lat="46.34214783" lon="6.96561909"><ele>746.471008</ele><time>2009-09-26T10:41:28Z</time></trkpt>
<trkpt lat="46.34211731" lon="6.96564388"><ele>748.94397</ele><time>2009-09-26T10:41:30Z</time></trkpt>
<trkpt lat="46.34205246" lon="6.96568298"><ele>750.974976</ele><time>2009-09-26T10:41:37Z</time></trkpt>
<trkpt lat="46.34198761" lon="6.96572399"><ele>749.650024</ele><time>2009-09-26T10:41:45Z</time></trkpt>
<trkpt lat="46.34189224" lon="6.96578121"><ele>750.223022</ele><time>2009-09-26T10:41:54Z</time></trkpt>
<trkpt lat="46.34182358" lon="6.96581602"><ele>747.343018</ele><time>2009-09-26T10:42:02Z</time></trkpt>
<trkpt lat="46.34172821" lon="6.96584606"><ele>752.646973</ele><time>2009-09-26T10:42:10Z</time></trkpt>
<trkpt lat="46.34166718" lon="6.96584320"><ele>755.921997</ele><time>2009-09-26T10:42:15Z</time></trkpt>
<trkpt lat="46.34162903" lon="6.96583986"><ele>758.034973</ele><time>2009-09-26T10:42:19Z</time></trkpt>
<trkpt lat="46.34155655" lon="6.96583414"><ele>759.346008</ele><time>2009-09-26T10:42:27Z</time></trkpt>
<trkpt lat="46.34153748" lon="6.96583223"><ele>754.526978</ele><time>2009-09-26T10:42:34Z</time></trkpt>
<trkpt lat="46.34149933" lon="6.96582985"><ele>753.987976</ele><time>2009-09-26T10:42:38Z</time></trkpt>
<trkpt lat="46.34145737" lon="6.96582603"><ele>757.692017</ele><time>2009-09-26T10:42:45Z</time></trkpt>
<trkpt lat="46.34143066" lon="6.96586418"><ele>767.060974</ele><time>2009-09-26T10:42:50Z</time></trkpt>
<trkpt lat="46.34140015" lon="6.96593380"><ele>767.216003</ele><time>2009-09-26T10:42:57Z</time></trkpt>
<trkpt lat="46.34136200" lon="6.96601820"><ele>765.814026</ele><time>2009-09-26T10:43:03Z</time></trkpt>
<trkpt lat="46.34136200" lon="6.96601820"><ele>765.963013</ele><time>2009-09-26T10:43:09Z</time></trkpt>
<trkpt lat="46.34130478" lon="6.96614599"><ele>759.705017</ele><time>2009-09-26T10:43:15Z</time></trkpt>
<trkpt lat="46.34127426" lon="6.96621895"><ele>765.077026</ele><time>2009-09-26T10:43:20Z</time></trkpt>
<trkpt lat="46.34123230" lon="6.96630907"><ele>768.357971</ele><time>2009-09-26T10:43:27Z</time></trkpt>
<trkpt lat="46.34121704" lon="6.96634817"><ele>768.991028</ele><time>2009-09-26T10:43:30Z</time></trkpt>
<trkpt lat="46.34117889" lon="6.96643782"><ele>777.614014</ele><time>2009-09-26T10:43:36Z</time></trkpt>
<trkpt lat="46.34114456" lon="6.96652412"><ele>788.333008</ele><time>2009-09-26T10:43:42Z</time></trkpt>
<trkpt lat="46.34112167" lon="6.96658182"><ele>790.460022</ele><time>2009-09-26T10:43:48Z</time></trkpt>
<trkpt lat="46.34110260" lon="6.96662712"><ele>788.643982</ele><time>2009-09-26T10:43:55Z</time></trkpt>
<trkpt lat="46.34108734" lon="6.96668100"><ele>784.846985</ele><time>2009-09-26T10:44:01Z</time></trkpt>
<trkpt lat="46.34107971" lon="6.96671104"><ele>782.094971</ele><time>2009-09-26T10:44:06Z</time></trkpt>
<trkpt lat="46.34106064" lon="6.96681690"><ele>782.21698</ele><time>2009-09-26T10:44:14Z</time></trkpt>
<trkpt lat="46.34106064" lon="6.96681690"><ele>782.802002</ele><time>2009-09-26T10:44:15Z</time></trkpt>
<trkpt lat="46.34106064" lon="6.96689987"><ele>785.267029</ele><time>2009-09-26T10:44:20Z</time></trkpt>
<trkpt lat="46.34106064" lon="6.96695995"><ele>784.994995</ele><time>2009-09-26T10:44:24Z</time></trkpt>
<trkpt lat="46.34106064" lon="6.96700716"><ele>782.494995</ele><time>2009-09-26T10:44:27Z</time></trkpt>
<trkpt lat="46.34106064" lon="6.96703720"><ele>781.190979</ele><time>2009-09-26T10:44:29Z</time></trkpt>
<trkpt lat="46.34105301" lon="6.96711922"><ele>778.994995</ele><time>2009-09-26T10:44:34Z</time></trkpt>
<trkpt lat="46.34102631" lon="6.96724081"><ele>776.929016</ele><time>2009-09-26T10:44:44Z</time></trkpt>
<trkpt lat="46.34102249" lon="6.96727705"><ele>776.799011</ele><time>2009-09-26T10:44:47Z</time></trkpt>
<trkpt lat="46.34100723" lon="6.96733379"><ele>776.942017</ele><time>2009-09-26T10:44:52Z</time></trkpt>
<trkpt lat="46.34099197" lon="6.96742105"><ele>776.159973</ele><time>2009-09-26T10:44:59Z</time></trkpt>
<trkpt lat="46.34098816" lon="6.96744680"><ele>776.333008</ele><time>2009-09-26T10:45:01Z</time></trkpt>
<trkpt lat="46.34097672" lon="6.96756077"><ele>779.133972</ele><time>2009-09-26T10:45:10Z</time></trkpt>
<trkpt lat="46.34098053" lon="6.96763992"><ele>780.129028</ele><time>2009-09-26T10:45:17Z</time></trkpt>
<trkpt lat="46.34100723" lon="6.96772480"><ele>780.338989</ele><time>2009-09-26T10:45:25Z</time></trkpt>
<trkpt lat="46.34104538" lon="6.96779394"><ele>779.947021</ele><time>2009-09-26T10:45:33Z</time></trkpt>
<trkpt lat="46.34113312" lon="6.96781683"><ele>779.921021</ele><time>2009-09-26T10:45:40Z</time></trkpt>
<trkpt lat="46.34118652" lon="6.96777916"><ele>779.637024</ele><time>2009-09-26T10:45:48Z</time></trkpt>
<trkpt lat="46.34123993" lon="6.96771622"><ele>782.21698</ele><time>2009-09-26T10:46:00Z</time></trkpt>
<trkpt lat="46.34130478" lon="6.96758604"><ele>783.330017</ele><time>2009-09-26T10:46:09Z</time></trkpt>
<trkpt lat="46.34129715" lon="6.96764994"><ele>784.807983</ele><time>2009-09-26T10:46:18Z</time></trkpt>
<trkpt lat="46.34133148" lon="6.96773005"><ele>789.643005</ele><time>2009-09-26T10:47:08Z</time></trkpt>
<trkpt lat="46.34133148" lon="6.96773005"><ele>792.973999</ele><time>2009-09-26T10:47:14Z</time></trkpt>
<trkpt lat="46.34139252" lon="6.96783018"><ele>793.354004</ele><time>2009-09-26T10:47:16Z</time></trkpt>
<trkpt lat="46.34140778" lon="6.96784306"><ele>795.721985</ele><time>2009-09-26T10:47:25Z</time></trkpt>
<trkpt lat="46.34140778" lon="6.96784306"><ele>796.036987</ele><time>2009-09-26T10:47:32Z</time></trkpt>
<trkpt lat="46.34140778" lon="6.96784306"><ele>796.017029</ele><time>2009-09-26T10:47:38Z</time></trkpt>
<trkpt lat="46.34140778" lon="6.96784306"><ele>794.786011</ele><time>2009-09-26T10:47:46Z</time></trkpt>
<trkpt lat="46.34140778" lon="6.96784306"><ele>795.377014</ele><time>2009-09-26T10:47:51Z</time></trkpt>
<trkpt lat="46.34169006" lon="6.96797323"><ele>786.413025</ele><time>2009-09-26T10:48:12Z</time></trkpt>
<trkpt lat="46.34169006" lon="6.96797323"><ele>787.825012</ele><time>2009-09-26T10:48:13Z</time></trkpt>
<trkpt lat="46.34175110" lon="6.96797514"><ele>802.505981</ele><time>2009-09-26T10:49:00Z</time></trkpt>
<trkpt lat="46.34176254" lon="6.96797609"><ele>801.171021</ele><time>2009-09-26T10:49:08Z</time></trkpt>
<trkpt lat="46.34176254" lon="6.96797609"><ele>802.642029</ele><time>2009-09-26T10:49:15Z</time></trkpt>
<trkpt lat="46.34190750" lon="6.96797991"><ele>803.468018</ele><time>2009-09-26T10:49:24Z</time></trkpt>
<trkpt lat="46.34196472" lon="6.96798182"><ele>806.77301</ele><time>2009-09-26T10:49:30Z</time></trkpt>
<trkpt lat="46.34205246" lon="6.96798515"><ele>806.981018</ele><time>2009-09-26T10:49:37Z</time></trkpt>
<trkpt lat="46.34207916" lon="6.96798611"><ele>809.971985</ele><time>2009-09-26T10:49:44Z</time></trkpt>
<trkpt lat="46.34207916" lon="6.96798611"><ele>812.132019</ele><time>2009-09-26T10:49:52Z</time></trkpt>
<trkpt lat="46.34207916" lon="6.96798611"><ele>811.896973</ele><time>2009-09-26T10:49:53Z</time></trkpt>
<trkpt lat="46.34207916" lon="6.96798611"><ele>814.034973</ele><time>2009-09-26T10:50:07Z</time></trkpt>
<trkpt lat="46.34207916" lon="6.96798611"><ele>815.015015</ele><time>2009-09-26T10:50:13Z</time></trkpt>
<trkpt lat="46.34207916" lon="6.96798611"><ele>815.026001</ele><time>2009-09-26T10:50:24Z</time></trkpt>
<trkpt lat="46.34207916" lon="6.96798611"><ele>814.289001</ele><time>2009-09-26T10:50:25Z</time></trkpt>
<trkpt lat="46.34246826" lon="6.96801519"><ele>803.468018</ele><time>2009-09-26T10:51:12Z</time></trkpt>
<trkpt lat="46.34248352" lon="6.96801710"><ele>809.744019</ele><time>2009-09-26T10:51:21Z</time></trkpt>
<trkpt lat="46.34248352" lon="6.96801710"><ele>814.437012</ele><time>2009-09-26T10:51:31Z</time></trkpt>
<trkpt lat="46.34263611" lon="6.96803379"><ele>821.294983</ele><time>2009-09-26T10:51:40Z</time></trkpt>
<trkpt lat="46.34263611" lon="6.96803379"><ele>822.823975</ele><time>2009-09-26T10:51:45Z</time></trkpt>
<trkpt lat="46.34263611" lon="6.96803379"><ele>822.791992</ele><time>2009-09-26T10:51:46Z</time></trkpt>
<trkpt lat="46.34269714" lon="6.96804905"><ele>830.41803</ele><time>2009-09-26T10:51:55Z</time></trkpt>
<trkpt lat="46.34269714" lon="6.96804905"><ele>808.122009</ele><time>2009-09-26T10:52:15Z</time></trkpt>
<trkpt lat="46.34269714" lon="6.96804905"><ele>815.330994</ele><time>2009-09-26T10:52:27Z</time></trkpt>
<trkpt lat="46.34269714" lon="6.96804905"><ele>822.56897</ele><time>2009-09-26T10:52:32Z</time></trkpt>
<trkpt lat="46.34269714" lon="6.96804905"><ele>828.710022</ele><time>2009-09-26T10:52:37Z</time></trkpt>
<trkpt lat="46.34296036" lon="6.96812201"><ele>842.442993</ele><time>2009-09-26T10:52:44Z</time></trkpt>
<trkpt lat="46.34296036" lon="6.96812201"><ele>849.151978</ele><time>2009-09-26T10:52:47Z</time></trkpt>
<trkpt lat="46.34296036" lon="6.96812201"><ele>849.672974</ele><time>2009-09-26T10:52:49Z</time></trkpt>
<trkpt lat="46.34300995" lon="6.96813488"><ele>856.344971</ele><time>2009-09-26T10:52:55Z</time></trkpt>
<trkpt lat="46.34300995" lon="6.96813488"><ele>859.080994</ele><time>2009-09-26T10:53:00Z</time></trkpt>
<trkpt lat="46.34300995" lon="6.96813488"><ele>860.260986</ele><time>2009-09-26T10:53:05Z</time></trkpt>
<trkpt lat="46.34300995" lon="6.96813488"><ele>862.039001</ele><time>2009-09-26T10:53:10Z</time></trkpt>
<trkpt lat="46.34300995" lon="6.96813488"><ele>863.586975</ele><time>2009-09-26T10:53:17Z</time></trkpt>
<trkpt lat="46.34300995" lon="6.96813488"><ele>863.963989</ele><time>2009-09-26T10:53:22Z</time></trkpt>
<trkpt lat="46.34300995" lon="6.96813488"><ele>864.104004</ele><time>2009-09-26T10:53:25Z</time></trkpt>
<trkpt lat="46.34300995" lon="6.96813488"><ele>857.288025</ele><time>2009-09-26T10:53:31Z</time></trkpt>
<trkpt lat="46.34300995" lon="6.96813488"><ele>855.841003</ele><time>2009-09-26T10:53:34Z</time></trkpt>
<trkpt lat="46.34341431" lon="6.96823597"><ele>852.525024</ele><time>2009-09-26T10:53:40Z</time></trkpt>
<trkpt lat="46.34351730" lon="6.96823502"><ele>850.919983</ele><time>2009-09-26T10:53:45Z</time></trkpt>
<trkpt lat="46.34357071" lon="6.96820784"><ele>849.54303</ele><time>2009-09-26T10:53:53Z</time></trkpt>
<trkpt lat="46.34357071" lon="6.96820784"><ele>849.612</ele><time>2009-09-26T10:53:55Z</time></trkpt>
<trkpt lat="46.34357071" lon="6.96820784"><ele>846.018982</ele><time>2009-09-26T10:54:04Z</time></trkpt>
<trkpt lat="46.34357071" lon="6.96820784"><ele>845.018005</ele><time>2009-09-26T10:54:10Z</time></trkpt>
<trkpt lat="46.34379196" lon="6.96813107"><ele>844.440002</ele><time>2009-09-26T10:54:20Z</time></trkpt>
<trkpt lat="46.34389496" lon="6.96812916"><ele>842.557007</ele><time>2009-09-26T10:54:25Z</time></trkpt>
<trkpt lat="46.34389496" lon="6.96812916"><ele>839.27301</ele><time>2009-09-26T10:54:30Z</time></trkpt>
<trkpt lat="46.34405518" lon="6.96808004"><ele>839.78302</ele><time>2009-09-26T10:54:37Z</time></trkpt>
<trkpt lat="46.34405518" lon="6.96808004"><ele>847.536987</ele><time>2009-09-26T10:54:46Z</time></trkpt>
<trkpt lat="46.34405518" lon="6.96808004"><ele>856.002014</ele><time>2009-09-26T10:54:52Z</time></trkpt>
<trkpt lat="46.34405518" lon="6.96808004"><ele>857.015991</ele><time>2009-09-26T10:54:54Z</time></trkpt>
<trkpt lat="46.34405518" lon="6.96808004"><ele>861.603027</ele><time>2009-09-26T10:55:03Z</time></trkpt>
<trkpt lat="46.34405518" lon="6.96808004"><ele>865.086975</ele><time>2009-09-26T10:55:08Z</time></trkpt>
<trkpt lat="46.34405518" lon="6.96808004"><ele>866.515015</ele><time>2009-09-26T10:55:12Z</time></trkpt>
<trkpt lat="46.34437943" lon="6.96810913"><ele>861.385986</ele><time>2009-09-26T10:55:16Z</time></trkpt>
<trkpt lat="46.34444809" lon="6.96815395"><ele>862.466003</ele><time>2009-09-26T10:55:21Z</time></trkpt>
<trkpt lat="46.34450531" lon="6.96819305"><ele>862.388</ele><time>2009-09-26T10:55:30Z</time></trkpt>
<trkpt lat="46.34450531" lon="6.96819305"><ele>862.213989</ele><time>2009-09-26T10:55:34Z</time></trkpt>
<trkpt lat="46.34450531" lon="6.96819305"><ele>862.237</ele><time>2009-09-26T10:55:38Z</time></trkpt>
<trkpt lat="46.34450531" lon="6.96819305"><ele>858.656982</ele><time>2009-09-26T10:55:41Z</time></trkpt>
<trkpt lat="46.34464645" lon="6.96827412"><ele>858.299011</ele><time>2009-09-26T10:55:46Z</time></trkpt>
<trkpt lat="46.34464645" lon="6.96827412"><ele>860.231018</ele><time>2009-09-26T10:55:48Z</time></trkpt>
<trkpt lat="46.34466934" lon="6.96828604"><ele>865.442993</ele><time>2009-09-26T10:55:55Z</time></trkpt>
<trkpt lat="46.34466934" lon="6.96828604"><ele>865.604004</ele><time>2009-09-26T10:55:59Z</time></trkpt>
<trkpt lat="46.34466934" lon="6.96828604"><ele>873.578979</ele><time>2009-09-26T10:56:06Z</time></trkpt>
<trkpt lat="46.34466934" lon="6.96828604"><ele>878.705994</ele><time>2009-09-26T10:56:12Z</time></trkpt>
<trkpt lat="46.34466934" lon="6.96828604"><ele>880.372986</ele><time>2009-09-26T10:56:17Z</time></trkpt>
<trkpt lat="46.34474182" lon="6.96851492"><ele>888.249023</ele><time>2009-09-26T10:56:29Z</time></trkpt>
<trkpt lat="46.34464264" lon="6.96857882"><ele>900.453979</ele><time>2009-09-26T10:56:37Z</time></trkpt>
<trkpt lat="46.34464264" lon="6.96857882"><ele>906.965027</ele><time>2009-09-26T10:56:39Z</time></trkpt>
<trkpt lat="46.34457016" lon="6.96862507"><ele>916.612976</ele><time>2009-09-26T10:56:46Z</time></trkpt>
<trkpt lat="46.34452438" lon="6.96865511"><ele>915.664978</ele><time>2009-09-26T10:56:53Z</time></trkpt>
<trkpt lat="46.34444809" lon="6.96870422"><ele>907.276978</ele><time>2009-09-26T10:57:02Z</time></trkpt>
<trkpt lat="46.34436035" lon="6.96874905"><ele>902.237</ele><time>2009-09-26T10:57:12Z</time></trkpt>
<trkpt lat="46.34424210" lon="6.96881008"><ele>904.84198</ele><time>2009-09-26T10:57:22Z</time></trkpt>
<trkpt lat="46.34419250" lon="6.96883678"><ele>905.815002</ele><time>2009-09-26T10:57:28Z</time></trkpt>
<trkpt lat="46.34409332" lon="6.96888924"><ele>906.879028</ele><time>2009-09-26T10:57:36Z</time></trkpt>
<trkpt lat="46.34405899" lon="6.96890688"><ele>907.518005</ele><time>2009-09-26T10:57:40Z</time></trkpt>
<trkpt lat="46.34399796" lon="6.96893787"><ele>904.541016</ele><time>2009-09-26T10:57:47Z</time></trkpt>
<trkpt lat="46.34391022" lon="6.96898699"><ele>897.789978</ele><time>2009-09-26T10:57:56Z</time></trkpt>
<trkpt lat="46.34389114" lon="6.96899891"><ele>897.093994</ele><time>2009-09-26T10:57:58Z</time></trkpt>
<trkpt lat="46.34385681" lon="6.96902084"><ele>896.338989</ele><time>2009-09-26T10:58:02Z</time></trkpt>
<trkpt lat="46.34381104" lon="6.96904898"><ele>898.052979</ele><time>2009-09-26T10:58:11Z</time></trkpt>
<trkpt lat="46.34370804" lon="6.96911192"><ele>901.419006</ele><time>2009-09-26T10:58:20Z</time></trkpt>
<trkpt lat="46.34370041" lon="6.96911716"><ele>899.567993</ele><time>2009-09-26T10:58:26Z</time></trkpt>
<trkpt lat="46.34370041" lon="6.96911716"><ele>899.297974</ele><time>2009-09-26T10:58:28Z</time></trkpt>
<trkpt lat="46.34358978" lon="6.96918392"><ele>909.093994</ele><time>2009-09-26T10:58:35Z</time></trkpt>
<trkpt lat="46.34347534" lon="6.96924782"><ele>918.896973</ele><time>2009-09-26T10:58:43Z</time></trkpt>
<trkpt lat="46.34334564" lon="6.96932220"><ele>926.533997</ele><time>2009-09-26T10:58:53Z</time></trkpt>
<trkpt lat="46.34328461" lon="6.96936178"><ele>920.830017</ele><time>2009-09-26T10:59:01Z</time></trkpt>
<trkpt lat="46.34320450" lon="6.96941280"><ele>905.432007</ele><time>2009-09-26T10:59:10Z</time></trkpt>
<trkpt lat="46.34311676" lon="6.96951818"><ele>896.544006</ele><time>2009-09-26T10:59:20Z</time></trkpt>
<trkpt lat="46.34304047" lon="6.96960783"><ele>893.336975</ele><time>2009-09-26T10:59:28Z</time></trkpt>
<trkpt lat="46.34295654" lon="6.96974421"><ele>887.73999</ele><time>2009-09-26T10:59:38Z</time></trkpt>
<trkpt lat="46.34289551" lon="6.96987915"><ele>886.888</ele><time>2009-09-26T10:59:47Z</time></trkpt>
<trkpt lat="46.34287262" lon="6.96997404"><ele>884.325989</ele><time>2009-09-26T10:59:52Z</time></trkpt>
<trkpt lat="46.34285355" lon="6.97009802"><ele>884.859985</ele><time>2009-09-26T10:59:59Z</time></trkpt>
<trkpt lat="46.34283829" lon="6.97016382"><ele>883.708008</ele><time>2009-09-26T11:00:03Z</time></trkpt>
<trkpt lat="46.34282684" lon="6.97033215"><ele>884.43103</ele><time>2009-09-26T11:00:12Z</time></trkpt>
<trkpt lat="46.34283066" lon="6.97042322"><ele>885.908997</ele><time>2009-09-26T11:00:17Z</time></trkpt>
<trkpt lat="46.34283447" lon="6.97055006"><ele>892.810974</ele><time>2009-09-26T11:00:24Z</time></trkpt>
<trkpt lat="46.34283829" lon="6.97062397"><ele>900.372009</ele><time>2009-09-26T11:00:28Z</time></trkpt>
<trkpt lat="46.34284210" lon="6.97072697"><ele>908.414978</ele><time>2009-09-26T11:00:35Z</time></trkpt>
<trkpt lat="46.34282684" lon="6.97084188"><ele>917.815002</ele><time>2009-09-26T11:00:43Z</time></trkpt>
<trkpt lat="46.34280777" lon="6.97099590"><ele>916.820984</ele><time>2009-09-26T11:00:52Z</time></trkpt>
<trkpt lat="46.34279633" lon="6.97105312"><ele>920.231995</ele><time>2009-09-26T11:00:56Z</time></trkpt>
<trkpt lat="46.34274292" lon="6.97124910"><ele>931.419983</ele><time>2009-09-26T11:01:05Z</time></trkpt>
<trkpt lat="46.34267426" lon="6.97136211"><ele>939.117004</ele><time>2009-09-26T11:01:12Z</time></trkpt>
<trkpt lat="46.34256363" lon="6.97148180"><ele>944.684998</ele><time>2009-09-26T11:01:19Z</time></trkpt>
<trkpt lat="46.34248734" lon="6.97155190"><ele>944.939026</ele><time>2009-09-26T11:01:26Z</time></trkpt>
<trkpt lat="46.34245682" lon="6.97158003"><ele>942.630981</ele><time>2009-09-26T11:01:29Z</time></trkpt>
<trkpt lat="46.34245300" lon="6.97158480"><ele>938.768005</ele><time>2009-09-26T11:01:31Z</time></trkpt>
<trkpt lat="46.34243774" lon="6.97159815"><ele>934.114014</ele><time>2009-09-26T11:01:34Z</time></trkpt>
<trkpt lat="46.34238434" lon="6.97166777"><ele>927.239014</ele><time>2009-09-26T11:01:43Z</time></trkpt>
<trkpt lat="46.34238052" lon="6.97167492"><ele>926.731995</ele><time>2009-09-26T11:01:44Z</time></trkpt>
<trkpt lat="46.34234238" lon="6.97173309"><ele>930.210022</ele><time>2009-09-26T11:01:52Z</time></trkpt>
<trkpt lat="46.34231567" lon="6.97177887"><ele>930.01001</ele><time>2009-09-26T11:01:59Z</time></trkpt>
<trkpt lat="46.34231567" lon="6.97177887"><ele>929.312012</ele><time>2009-09-26T11:02:06Z</time></trkpt>
<trkpt lat="46.34225082" lon="6.97196198"><ele>931.125</ele><time>2009-09-26T11:02:11Z</time></trkpt>
<trkpt lat="46.34223175" lon="6.97201014"><ele>931.304993</ele><time>2009-09-26T11:02:15Z</time></trkpt>
<trkpt lat="46.34219360" lon="6.97212696"><ele>933.010986</ele><time>2009-09-26T11:02:23Z</time></trkpt>
<trkpt lat="46.34215164" lon="6.97225285"><ele>935.033997</ele><time>2009-09-26T11:02:30Z</time></trkpt>
<trkpt lat="46.34210587" lon="6.97239017"><ele>933.51001</ele><time>2009-09-26T11:02:38Z</time></trkpt>
<trkpt lat="46.34207153" lon="6.97248077"><ele>928.89801</ele><time>2009-09-26T11:02:43Z</time></trkpt>
<trkpt lat="46.34202957" lon="6.97261000"><ele>925.328003</ele><time>2009-09-26T11:02:49Z</time></trkpt>
<trkpt lat="46.34201431" lon="6.97264814"><ele>921.687012</ele><time>2009-09-26T11:02:52Z</time></trkpt>
<trkpt lat="46.34197235" lon="6.97277403"><ele>923.45697</ele><time>2009-09-26T11:03:01Z</time></trkpt>
<trkpt lat="46.34194565" lon="6.97285795"><ele>927.619019</ele><time>2009-09-26T11:03:07Z</time></trkpt>
<trkpt lat="46.34192657" lon="6.97291803"><ele>933.396973</ele><time>2009-09-26T11:03:11Z</time></trkpt>
<trkpt lat="46.34189606" lon="6.97300482"><ele>931.14502</ele><time>2009-09-26T11:03:17Z</time></trkpt>
<trkpt lat="46.34186554" lon="6.97310209"><ele>930.708984</ele><time>2009-09-26T11:03:24Z</time></trkpt>
<trkpt lat="46.34184647" lon="6.97317123"><ele>930.106018</ele><time>2009-09-26T11:03:28Z</time></trkpt>
<trkpt lat="46.34182358" lon="6.97325277"><ele>931.546021</ele><time>2009-09-26T11:03:33Z</time></trkpt>
<trkpt lat="46.34180069" lon="6.97333193"><ele>938.125</ele><time>2009-09-26T11:03:37Z</time></trkpt>
<trkpt lat="46.34177780" lon="6.97341490"><ele>940.71698</ele><time>2009-09-26T11:03:45Z</time></trkpt>
<trkpt lat="46.34174728" lon="6.97352886"><ele>936.843018</ele><time>2009-09-26T11:03:52Z</time></trkpt>
<trkpt lat="46.34173203" lon="6.97359991"><ele>940.370972</ele><time>2009-09-26T11:03:56Z</time></trkpt>
<trkpt lat="46.34170532" lon="6.97369814"><ele>937.106018</ele><time>2009-09-26T11:04:03Z</time></trkpt>
<trkpt lat="46.34168625" lon="6.97377682"><ele>934.85498</ele><time>2009-09-26T11:04:09Z</time></trkpt>
<trkpt lat="46.34166718" lon="6.97385120"><ele>934.593994</ele><time>2009-09-26T11:04:14Z</time></trkpt>
<trkpt lat="46.34165955" lon="6.97388983"><ele>938.765991</ele><time>2009-09-26T11:04:19Z</time></trkpt>
<trkpt lat="46.34163666" lon="6.97398090"><ele>945.976013</ele><time>2009-09-26T11:04:23Z</time></trkpt>
<trkpt lat="46.34163666" lon="6.97398090"><ele>945.236023</ele><time>2009-09-26T11:04:27Z</time></trkpt>
<trkpt lat="46.34161758" lon="6.97410679"><ele>949.452026</ele><time>2009-09-26T11:04:34Z</time></trkpt>
<trkpt lat="46.34160614" lon="6.97416210"><ele>952.549988</ele><time>2009-09-26T11:04:39Z</time></trkpt>
<trkpt lat="46.34157181" lon="6.97428799"><ele>964.083984</ele><time>2009-09-26T11:04:46Z</time></trkpt>
<trkpt lat="46.34155655" lon="6.97432518"><ele>969.51001</ele><time>2009-09-26T11:04:52Z</time></trkpt>
<trkpt lat="46.34152985" lon="6.97439480"><ele>975.06897</ele><time>2009-09-26T11:04:57Z</time></trkpt>
<trkpt lat="46.34150314" lon="6.97446108"><ele>975.120972</ele><time>2009-09-26T11:05:01Z</time></trkpt>
<trkpt lat="46.34146881" lon="6.97453594"><ele>975.294006</ele><time>2009-09-26T11:05:06Z</time></trkpt>
<trkpt lat="46.34143066" lon="6.97460413"><ele>970.422974</ele><time>2009-09-26T11:05:12Z</time></trkpt>
<trkpt lat="46.34136963" lon="6.97467613"><ele>964.208008</ele><time>2009-09-26T11:05:17Z</time></trkpt>
<trkpt lat="46.34128952" lon="6.97474194"><ele>961.487</ele><time>2009-09-26T11:05:23Z</time></trkpt>
<trkpt lat="46.34121704" lon="6.97480392"><ele>960.158997</ele><time>2009-09-26T11:05:29Z</time></trkpt>
<trkpt lat="46.34113312" lon="6.97487593"><ele>959.882996</ele><time>2009-09-26T11:05:35Z</time></trkpt>
<trkpt lat="46.34100723" lon="6.97497416"><ele>962.265015</ele><time>2009-09-26T11:05:44Z</time></trkpt>
<trkpt lat="46.34096909" lon="6.97500420"><ele>957.021973</ele><time>2009-09-26T11:05:50Z</time></trkpt>
<trkpt lat="46.34090042" lon="6.97505903"><ele>957.742004</ele><time>2009-09-26T11:05:55Z</time></trkpt>
<trkpt lat="46.34080505" lon="6.97513008"><ele>959.099976</ele><time>2009-09-26T11:06:02Z</time></trkpt>
<trkpt lat="46.34074402" lon="6.97516584"><ele>953.877991</ele><time>2009-09-26T11:06:08Z</time></trkpt>
<trkpt lat="46.34067154" lon="6.97521019"><ele>949.083984</ele><time>2009-09-26T11:06:15Z</time></trkpt>
<trkpt lat="46.34061813" lon="6.97524214"><ele>943.705994</ele><time>2009-09-26T11:06:21Z</time></trkpt>
<trkpt lat="46.34057999" lon="6.97525597"><ele>943.932007</ele><time>2009-09-26T11:06:25Z</time></trkpt>
<trkpt lat="46.34046173" lon="6.97529221"><ele>950.669006</ele><time>2009-09-26T11:06:32Z</time></trkpt>
<trkpt lat="46.34038162" lon="6.97531605"><ele>951.700989</ele><time>2009-09-26T11:06:39Z</time></trkpt>
<trkpt lat="46.34030533" lon="6.97533798"><ele>951.205994</ele><time>2009-09-26T11:06:45Z</time></trkpt>
<trkpt lat="46.34026718" lon="6.97534800"><ele>947.848999</ele><time>2009-09-26T11:06:49Z</time></trkpt>
<trkpt lat="46.34017181" lon="6.97537184"><ele>947.708984</ele><time>2009-09-26T11:06:58Z</time></trkpt>
<trkpt lat="46.34007263" lon="6.97543001"><ele>944.710999</ele><time>2009-09-26T11:07:08Z</time></trkpt>
<trkpt lat="46.33996964" lon="6.97549486"><ele>941.382019</ele><time>2009-09-26T11:07:18Z</time></trkpt>
<trkpt lat="46.33995056" lon="6.97550821"><ele>941.325012</ele><time>2009-09-26T11:07:20Z</time></trkpt>
<trkpt lat="46.33987045" lon="6.97557688"><ele>938.986023</ele><time>2009-09-26T11:07:29Z</time></trkpt>
<trkpt lat="46.33980179" lon="6.97564793"><ele>938.841003</ele><time>2009-09-26T11:07:37Z</time></trkpt>
<trkpt lat="46.33973694" lon="6.97571278"><ele>939.119995</ele><time>2009-09-26T11:07:45Z</time></trkpt>
<trkpt lat="46.33970642" lon="6.97574186"><ele>939.939026</ele><time>2009-09-26T11:07:48Z</time></trkpt>
<trkpt lat="46.33963776" lon="6.97581196"><ele>943.784973</ele><time>2009-09-26T11:07:54Z</time></trkpt>
<trkpt lat="46.33961868" lon="6.97583103"><ele>944.267029</ele><time>2009-09-26T11:07:57Z</time></trkpt>
<trkpt lat="46.33960342" lon="6.97584581"><ele>944.651001</ele><time>2009-09-26T11:07:59Z</time></trkpt>
<trkpt lat="46.33949661" lon="6.97595406"><ele>949.752991</ele><time>2009-09-26T11:08:09Z</time></trkpt>
<trkpt lat="46.33943558" lon="6.97601318"><ele>952.502991</ele><time>2009-09-26T11:08:15Z</time></trkpt>
<trkpt lat="46.33942795" lon="6.97602081"><ele>952.802979</ele><time>2009-09-26T11:08:16Z</time></trkpt>
<trkpt lat="46.33936691" lon="6.97608280"><ele>951.291016</ele><time>2009-09-26T11:08:23Z</time></trkpt>
<trkpt lat="46.33932114" lon="6.97612906"><ele>954.499023</ele><time>2009-09-26T11:08:28Z</time></trkpt>
<trkpt lat="46.33924866" lon="6.97618580"><ele>955.844971</ele><time>2009-09-26T11:08:34Z</time></trkpt>
<trkpt lat="46.33922577" lon="6.97620296"><ele>955.880981</ele><time>2009-09-26T11:08:36Z</time></trkpt>
<trkpt lat="46.33919907" lon="6.97622108"><ele>955.192993</ele><time>2009-09-26T11:08:39Z</time></trkpt>
<trkpt lat="46.33911896" lon="6.97626686"><ele>955.083008</ele><time>2009-09-26T11:08:45Z</time></trkpt>
<trkpt lat="46.33905792" lon="6.97629213"><ele>955.04303</ele><time>2009-09-26T11:08:50Z</time></trkpt>
<trkpt lat="46.33903503" lon="6.97629499"><ele>961.898987</ele><time>2009-09-26T11:08:53Z</time></trkpt>
<trkpt lat="46.33888626" lon="6.97624922"><ele>985.301025</ele><time>2009-09-26T11:09:37Z</time></trkpt>
<trkpt lat="46.33883667" lon="6.97621822"><ele>978.971008</ele><time>2009-09-26T11:09:43Z</time></trkpt>
<trkpt lat="46.33873367" lon="6.97611523"><ele>971.307983</ele><time>2009-09-26T11:09:51Z</time></trkpt>
<trkpt lat="46.33870316" lon="6.97607994"><ele>965.783997</ele><time>2009-09-26T11:09:55Z</time></trkpt>
<trkpt lat="46.33861542" lon="6.97598410"><ele>957.859985</ele><time>2009-09-26T11:10:03Z</time></trkpt>
<trkpt lat="46.33847046" lon="6.97579813"><ele>960.629028</ele><time>2009-09-26T11:10:11Z</time></trkpt>
<trkpt lat="46.33837509" lon="6.97567081"><ele>961.375977</ele><time>2009-09-26T11:10:16Z</time></trkpt>
<trkpt lat="46.33818817" lon="6.97555494"><ele>965.177002</ele><time>2009-09-26T11:10:22Z</time></trkpt>
<trkpt lat="46.33804321" lon="6.97563410"><ele>964.622009</ele><time>2009-09-26T11:10:27Z</time></trkpt>
<trkpt lat="46.33795166" lon="6.97585678"><ele>956.247009</ele><time>2009-09-26T11:10:33Z</time></trkpt>
<trkpt lat="46.33793640" lon="6.97600985"><ele>959.692017</ele><time>2009-09-26T11:10:38Z</time></trkpt>
<trkpt lat="46.33793259" lon="6.97607517"><ele>957.682983</ele><time>2009-09-26T11:10:40Z</time></trkpt>
<trkpt lat="46.33799362" lon="6.97621489"><ele>960.189026</ele><time>2009-09-26T11:10:48Z</time></trkpt>
<trkpt lat="46.33805847" lon="6.97630501"><ele>960.023987</ele><time>2009-09-26T11:10:54Z</time></trkpt>
<trkpt lat="46.33806992" lon="6.97631979"><ele>959.823975</ele><time>2009-09-26T11:10:55Z</time></trkpt>
<trkpt lat="46.33811951" lon="6.97637415"><ele>962.671021</ele><time>2009-09-26T11:10:59Z</time></trkpt>
<trkpt lat="46.33818054" lon="6.97641182"><ele>967.776001</ele><time>2009-09-26T11:11:06Z</time></trkpt>
<trkpt lat="46.33826065" lon="6.97646093"><ele>972.866028</ele><time>2009-09-26T11:11:14Z</time></trkpt>
<trkpt lat="46.33826065" lon="6.97646093"><ele>974.999023</ele><time>2009-09-26T11:11:15Z</time></trkpt>
<trkpt lat="46.33833313" lon="6.97649097"><ele>977.450989</ele><time>2009-09-26T11:11:21Z</time></trkpt>
<trkpt lat="46.33837509" lon="6.97650814"><ele>979.789978</ele><time>2009-09-26T11:11:25Z</time></trkpt>
<trkpt lat="46.33846664" lon="6.97654295"><ele>982.169006</ele><time>2009-09-26T11:11:33Z</time></trkpt>
<trkpt lat="46.33853531" lon="6.97657394"><ele>980.710999</ele><time>2009-09-26T11:11:38Z</time></trkpt>
<trkpt lat="46.33857346" lon="6.97659111"><ele>981.054993</ele><time>2009-09-26T11:11:42Z</time></trkpt>
<trkpt lat="46.33871078" lon="6.97669983"><ele>976.01001</ele><time>2009-09-26T11:11:51Z</time></trkpt>
<trkpt lat="46.33876419" lon="6.97675896"><ele>977.411987</ele><time>2009-09-26T11:11:57Z</time></trkpt>
<trkpt lat="46.33880615" lon="6.97680378"><ele>976.700012</ele><time>2009-09-26T11:12:01Z</time></trkpt>
<trkpt lat="46.33885574" lon="6.97685909"><ele>974.866028</ele><time>2009-09-26T11:12:07Z</time></trkpt>
<trkpt lat="46.33894348" lon="6.97693920"><ele>972.052979</ele><time>2009-09-26T11:12:14Z</time></trkpt>
<trkpt lat="46.33897018" lon="6.97696495"><ele>970.713013</ele><time>2009-09-26T11:12:16Z</time></trkpt>
<trkpt lat="46.33904266" lon="6.97703314"><ele>967.687988</ele><time>2009-09-26T11:12:24Z</time></trkpt>
<trkpt lat="46.33909988" lon="6.97708702"><ele>971.242981</ele><time>2009-09-26T11:12:31Z</time></trkpt>
<trkpt lat="46.33912277" lon="6.97710609"><ele>971.35199</ele><time>2009-09-26T11:12:33Z</time></trkpt>
<trkpt lat="46.33914948" lon="6.97713280"><ele>973.320984</ele><time>2009-09-26T11:12:36Z</time></trkpt>
<trkpt lat="46.33922195" lon="6.97718906"><ele>980.885986</ele><time>2009-09-26T11:12:44Z</time></trkpt>
<trkpt lat="46.33922195" lon="6.97718906"><ele>981.523987</ele><time>2009-09-26T11:12:45Z</time></trkpt>
<trkpt lat="46.33924103" lon="6.97720194"><ele>978.736023</ele><time>2009-09-26T11:12:50Z</time></trkpt>
<trkpt lat="46.33931351" lon="6.97725391"><ele>977.926025</ele><time>2009-09-26T11:12:55Z</time></trkpt>
<trkpt lat="46.33936310" lon="6.97728920"><ele>977.726013</ele><time>2009-09-26T11:12:59Z</time></trkpt>
<trkpt lat="46.33939743" lon="6.97730780"><ele>983.122986</ele><time>2009-09-26T11:13:04Z</time></trkpt>
<trkpt lat="46.33939743" lon="6.97730780"><ele>983.541016</ele><time>2009-09-26T11:13:08Z</time></trkpt>
<trkpt lat="46.33946609" lon="6.97733021"><ele>990.56897</ele><time>2009-09-26T11:13:14Z</time></trkpt>
<trkpt lat="46.33946609" lon="6.97733021"><ele>996.317993</ele><time>2009-09-26T11:13:19Z</time></trkpt>
<trkpt lat="46.33946609" lon="6.97733021"><ele>997.299988</ele><time>2009-09-26T11:13:24Z</time></trkpt>
<trkpt lat="46.33961868" lon="6.97736979"><ele>997.211975</ele><time>2009-09-26T11:13:29Z</time></trkpt>
<trkpt lat="46.33967972" lon="6.97736979"><ele>998.16803</ele><time>2009-09-26T11:13:36Z</time></trkpt>
<trkpt lat="46.33976364" lon="6.97736597"><ele>1001.176025</ele><time>2009-09-26T11:13:42Z</time></trkpt>
<trkpt lat="46.33977509" lon="6.97736216"><ele>1000.570007</ele><time>2009-09-26T11:13:46Z</time></trkpt>
<trkpt lat="46.33980179" lon="6.97735214"><ele>999.367981</ele><time>2009-09-26T11:13:53Z</time></trkpt>
<trkpt lat="46.33980179" lon="6.97735214"><ele>997.142029</ele><time>2009-09-26T11:13:56Z</time></trkpt>
<trkpt lat="46.33996582" lon="6.97731590"><ele>993.708008</ele><time>2009-09-26T11:14:02Z</time></trkpt>
<trkpt lat="46.34003067" lon="6.97733307"><ele>990.245972</ele><time>2009-09-26T11:14:08Z</time></trkpt>
<trkpt lat="46.34012985" lon="6.97736692"><ele>984.705994</ele><time>2009-09-26T11:14:14Z</time></trkpt>
<trkpt lat="46.34020615" lon="6.97739220"><ele>984.721985</ele><time>2009-09-26T11:14:22Z</time></trkpt>
<trkpt lat="46.34021378" lon="6.97739315"><ele>985.505981</ele><time>2009-09-26T11:14:23Z</time></trkpt>
<trkpt lat="46.34024048" lon="6.97739983"><ele>993.97998</ele><time>2009-09-26T11:14:29Z</time></trkpt>
<trkpt lat="46.34035110" lon="6.97740412"><ele>992.752991</ele><time>2009-09-26T11:14:38Z</time></trkpt>
<trkpt lat="46.34038925" lon="6.97739887"><ele>994.713013</ele><time>2009-09-26T11:14:44Z</time></trkpt>
<trkpt lat="46.34044647" lon="6.97739220"><ele>992.661011</ele><time>2009-09-26T11:14:50Z</time></trkpt>
<trkpt lat="46.34059143" lon="6.97737217"><ele>988.929016</ele><time>2009-09-26T11:14:57Z</time></trkpt>
<trkpt lat="46.34067154" lon="6.97736979"><ele>987.780029</ele><time>2009-09-26T11:15:03Z</time></trkpt>
<trkpt lat="46.34073639" lon="6.97736979"><ele>984.906982</ele><time>2009-09-26T11:15:08Z</time></trkpt>
<trkpt lat="46.34080887" lon="6.97740507"><ele>984.655029</ele><time>2009-09-26T11:15:14Z</time></trkpt>
<trkpt lat="46.34084702" lon="6.97742701"><ele>991.643005</ele><time>2009-09-26T11:15:21Z</time></trkpt>
<trkpt lat="46.34088135" lon="6.97744513"><ele>997.78302</ele><time>2009-09-26T11:15:25Z</time></trkpt>
<trkpt lat="46.34092331" lon="6.97746706"><ele>1006.97699</ele><time>2009-09-26T11:15:33Z</time></trkpt>
<trkpt lat="46.34096909" lon="6.97748995"><ele>1007.070007</ele><time>2009-09-26T11:15:34Z</time></trkpt>
<trkpt lat="46.34106064" lon="6.97754002"><ele>1004.926025</ele><time>2009-09-26T11:15:41Z</time></trkpt>
<trkpt lat="46.34112549" lon="6.97756720"><ele>1008.263977</ele><time>2009-09-26T11:15:48Z</time></trkpt>
<trkpt lat="46.34117889" lon="6.97757721"><ele>1009.140991</ele><time>2009-09-26T11:15:52Z</time></trkpt>
<trkpt lat="46.34122849" lon="6.97758579"><ele>1008.265991</ele><time>2009-09-26T11:15:56Z</time></trkpt>
<trkpt lat="46.34130859" lon="6.97760010"><ele>1006.400024</ele><time>2009-09-26T11:16:03Z</time></trkpt>
<trkpt lat="46.34136200" lon="6.97760820"><ele>1010.804993</ele><time>2009-09-26T11:16:10Z</time></trkpt>
<trkpt lat="46.34141159" lon="6.97761393"><ele>1010.250977</ele><time>2009-09-26T11:16:13Z</time></trkpt>
<trkpt lat="46.34141922" lon="6.97761488"><ele>1011.822998</ele><time>2009-09-26T11:16:18Z</time></trkpt>
<trkpt lat="46.34152222" lon="6.97762585"><ele>1011.190002</ele><time>2009-09-26T11:16:24Z</time></trkpt>
<trkpt lat="46.34158325" lon="6.97765017"><ele>1012.822021</ele><time>2009-09-26T11:16:29Z</time></trkpt>
<trkpt lat="46.34162140" lon="6.97766685"><ele>1012.768982</ele><time>2009-09-26T11:16:32Z</time></trkpt>
<trkpt lat="46.34164429" lon="6.97767782"><ele>1012.424988</ele><time>2009-09-26T11:16:34Z</time></trkpt>
<trkpt lat="46.34168243" lon="6.97769499"><ele>1011.052002</ele><time>2009-09-26T11:16:38Z</time></trkpt>
<trkpt lat="46.34177780" lon="6.97773886"><ele>1010.083008</ele><time>2009-09-26T11:16:46Z</time></trkpt>
<trkpt lat="46.34185791" lon="6.97776508"><ele>1013.366028</ele><time>2009-09-26T11:16:54Z</time></trkpt>
<trkpt lat="46.34195709" lon="6.97777796"><ele>1014.929016</ele><time>2009-09-26T11:17:03Z</time></trkpt>
<trkpt lat="46.34202194" lon="6.97777796"><ele>1013.484985</ele><time>2009-09-26T11:17:08Z</time></trkpt>
<trkpt lat="46.34206772" lon="6.97776604"><ele>1013.213989</ele><time>2009-09-26T11:17:11Z</time></trkpt>
<trkpt lat="46.34214020" lon="6.97771502"><ele>1012.046997</ele><time>2009-09-26T11:17:18Z</time></trkpt>
<trkpt lat="46.34223557" lon="6.97765398"><ele>1011.065979</ele><time>2009-09-26T11:17:26Z</time></trkpt>
<trkpt lat="46.34229279" lon="6.97753191"><ele>1010.200012</ele><time>2009-09-26T11:17:35Z</time></trkpt>
<trkpt lat="46.34233856" lon="6.97742081"><ele>1010.580017</ele><time>2009-09-26T11:17:43Z</time></trkpt>
<trkpt lat="46.34236526" lon="6.97729015"><ele>1011.536987</ele><time>2009-09-26T11:17:51Z</time></trkpt>
<trkpt lat="46.34238434" lon="6.97716999"><ele>1012.987</ele><time>2009-09-26T11:17:58Z</time></trkpt>
<trkpt lat="46.34239578" lon="6.97705603"><ele>1012.823975</ele><time>2009-09-26T11:18:06Z</time></trkpt>
<trkpt lat="46.34240723" lon="6.97691917"><ele>1013.16803</ele><time>2009-09-26T11:18:15Z</time></trkpt>
<trkpt lat="46.34241104" lon="6.97687721"><ele>1013.940002</ele><time>2009-09-26T11:18:18Z</time></trkpt>
<trkpt lat="46.34241486" lon="6.97672987"><ele>1020.872009</ele><time>2009-09-26T11:18:28Z</time></trkpt>
<trkpt lat="46.34243011" lon="6.97660112"><ele>1026.203979</ele><time>2009-09-26T11:18:37Z</time></trkpt>
<trkpt lat="46.34244919" lon="6.97649097"><ele>1029.401001</ele><time>2009-09-26T11:18:44Z</time></trkpt>
<trkpt lat="46.34248734" lon="6.97637606"><ele>1031.5</ele><time>2009-09-26T11:18:50Z</time></trkpt>
<trkpt lat="46.34255600" lon="6.97623491"><ele>1031.810059</ele><time>2009-09-26T11:19:00Z</time></trkpt>
<trkpt lat="46.34261322" lon="6.97612810"><ele>1030.918945</ele><time>2009-09-26T11:19:08Z</time></trkpt>
<trkpt lat="46.34270477" lon="6.97601986"><ele>1029.630005</ele><time>2009-09-26T11:19:17Z</time></trkpt>
<trkpt lat="46.34277344" lon="6.97594500"><ele>1040.730957</ele><time>2009-09-26T11:19:25Z</time></trkpt>
<trkpt lat="46.34283066" lon="6.97588301"><ele>1041.702026</ele><time>2009-09-26T11:19:31Z</time></trkpt>
<trkpt lat="46.34289169" lon="6.97581911"><ele>1043.730957</ele><time>2009-09-26T11:19:39Z</time></trkpt>
<trkpt lat="46.34296799" lon="6.97574711"><ele>1046.840942</ele><time>2009-09-26T11:19:45Z</time></trkpt>
<trkpt lat="46.34304810" lon="6.97567415"><ele>1052.287964</ele><time>2009-09-26T11:19:52Z</time></trkpt>
<trkpt lat="46.34311676" lon="6.97560692"><ele>1052.983032</ele><time>2009-09-26T11:19:59Z</time></trkpt>
<trkpt lat="46.34315872" lon="6.97556782"><ele>1053.80603</ele><time>2009-09-26T11:20:03Z</time></trkpt>
<trkpt lat="46.34320068" lon="6.97553110"><ele>1055.271973</ele><time>2009-09-26T11:20:07Z</time></trkpt>
<trkpt lat="46.34323883" lon="6.97549105"><ele>1051.876953</ele><time>2009-09-26T11:20:14Z</time></trkpt>
<trkpt lat="46.34328079" lon="6.97546291"><ele>1052.762939</ele><time>2009-09-26T11:20:18Z</time></trkpt>
<trkpt lat="46.34337616" lon="6.97540903"><ele>1055.717041</ele><time>2009-09-26T11:20:25Z</time></trkpt>
<trkpt lat="46.34339905" lon="6.97539616"><ele>1056.95105</ele><time>2009-09-26T11:20:27Z</time></trkpt>
<trkpt lat="46.34349060" lon="6.97538900"><ele>1055.873047</ele><time>2009-09-26T11:20:35Z</time></trkpt>
<trkpt lat="46.34362030" lon="6.97537899"><ele>1049.534058</ele><time>2009-09-26T11:20:44Z</time></trkpt>
<trkpt lat="46.34371948" lon="6.97538519"><ele>1048.688965</ele><time>2009-09-26T11:20:51Z</time></trkpt>
<trkpt lat="46.34379959" lon="6.97540712"><ele>1050.277954</ele><time>2009-09-26T11:20:57Z</time></trkpt>
<trkpt lat="46.34381866" lon="6.97541189"><ele>1049.32605</ele><time>2009-09-26T11:20:59Z</time></trkpt>
<trkpt lat="46.34388351" lon="6.97542906"><ele>1051.937988</ele><time>2009-09-26T11:21:05Z</time></trkpt>
<trkpt lat="46.34394455" lon="6.97544479"><ele>1055.833008</ele><time>2009-09-26T11:21:12Z</time></trkpt>
<trkpt lat="46.34399414" lon="6.97545815"><ele>1057.795044</ele><time>2009-09-26T11:21:16Z</time></trkpt>
<trkpt lat="46.34410095" lon="6.97552681"><ele>1056.864014</ele><time>2009-09-26T11:21:23Z</time></trkpt>
<trkpt lat="46.34412766" lon="6.97554302"><ele>1065.047974</ele><time>2009-09-26T11:21:29Z</time></trkpt>
<trkpt lat="46.34418106" lon="6.97557211"><ele>1067.137939</ele><time>2009-09-26T11:21:35Z</time></trkpt>
<trkpt lat="46.34419632" lon="6.97557878"><ele>1065.739014</ele><time>2009-09-26T11:21:36Z</time></trkpt>
<trkpt lat="46.34421158" lon="6.97558689"><ele>1069.248047</ele><time>2009-09-26T11:21:42Z</time></trkpt>
<trkpt lat="46.34424973" lon="6.97560596"><ele>1074.348999</ele><time>2009-09-26T11:21:48Z</time></trkpt>
<trkpt lat="46.34431076" lon="6.97563505"><ele>1072.865967</ele><time>2009-09-26T11:21:53Z</time></trkpt>
<trkpt lat="46.34431076" lon="6.97563505"><ele>1069.079956</ele><time>2009-09-26T11:21:57Z</time></trkpt>
<trkpt lat="46.34431076" lon="6.97563505"><ele>1067.584961</ele><time>2009-09-26T11:21:58Z</time></trkpt>
<trkpt lat="46.34442520" lon="6.97569323"><ele>1068.128052</ele><time>2009-09-26T11:22:00Z</time></trkpt>
<trkpt lat="46.34436035" lon="6.97566223"><ele>1069.860962</ele><time>2009-09-26T11:22:06Z</time></trkpt>
<trkpt lat="46.34425354" lon="6.97560692"><ele>1074.812988</ele><time>2009-09-26T11:22:14Z</time></trkpt>
<trkpt lat="46.34418488" lon="6.97557211"><ele>1074.380005</ele><time>2009-09-26T11:22:22Z</time></trkpt>
<trkpt lat="46.34413147" lon="6.97554588"><ele>1076.004028</ele><time>2009-09-26T11:22:30Z</time></trkpt>
<trkpt lat="46.34405518" lon="6.97549677"><ele>1081.327026</ele><time>2009-09-26T11:22:36Z</time></trkpt>
<trkpt lat="46.34382629" lon="6.97589493"><ele>1082.857056</ele><time>2009-09-26T11:22:45Z</time></trkpt>
<trkpt lat="46.34378433" lon="6.97594690"><ele>1084.213013</ele><time>2009-09-26T11:22:52Z</time></trkpt>
<trkpt lat="46.34370041" lon="6.97606087"><ele>1089.958984</ele><time>2009-09-26T11:23:00Z</time></trkpt>
<trkpt lat="46.34366989" lon="6.97610712"><ele>1090.640015</ele><time>2009-09-26T11:23:05Z</time></trkpt>
<trkpt lat="46.34362793" lon="6.97616816"><ele>1086.447021</ele><time>2009-09-26T11:23:11Z</time></trkpt>
<trkpt lat="46.34355927" lon="6.97626209"><ele>1084.55896</ele><time>2009-09-26T11:23:17Z</time></trkpt>
<trkpt lat="46.34346771" lon="6.97635889"><ele>1086.801025</ele><time>2009-09-26T11:23:25Z</time></trkpt>
<trkpt lat="46.34344482" lon="6.97638321"><ele>1083.140991</ele><time>2009-09-26T11:23:31Z</time></trkpt>
<trkpt lat="46.34339142" lon="6.97643709"><ele>1084.395996</ele><time>2009-09-26T11:23:34Z</time></trkpt>
<trkpt lat="46.34330368" lon="6.97652483"><ele>1078.250977</ele><time>2009-09-26T11:23:43Z</time></trkpt>
<trkpt lat="46.34327698" lon="6.97656393"><ele>1078.494995</ele><time>2009-09-26T11:23:46Z</time></trkpt>
<trkpt lat="46.34321213" lon="6.97664595"><ele>1081.560059</ele><time>2009-09-26T11:23:53Z</time></trkpt>
<trkpt lat="46.34321213" lon="6.97664595"><ele>1080.748047</ele><time>2009-09-26T11:23:56Z</time></trkpt>
<trkpt lat="46.34314346" lon="6.97673798"><ele>1082.577026</ele><time>2009-09-26T11:24:02Z</time></trkpt>
<trkpt lat="46.34312057" lon="6.97695112"><ele>1085.932007</ele><time>2009-09-26T11:24:12Z</time></trkpt>
<trkpt lat="46.34312057" lon="6.97704697"><ele>1088.384033</ele><time>2009-09-26T11:24:19Z</time></trkpt>
<trkpt lat="46.34312057" lon="6.97706223"><ele>1091.442993</ele><time>2009-09-26T11:24:22Z</time></trkpt>
<trkpt lat="46.34312057" lon="6.97718191"><ele>1093.682983</ele><time>2009-09-26T11:24:26Z</time></trkpt>
<trkpt lat="46.34312057" lon="6.97725582"><ele>1099.458008</ele><time>2009-09-26T11:24:30Z</time></trkpt>
<trkpt lat="46.34313583" lon="6.97737694"><ele>1098.527954</ele><time>2009-09-26T11:24:36Z</time></trkpt>
<trkpt lat="46.34316635" lon="6.97755194"><ele>1093.720947</ele><time>2009-09-26T11:24:43Z</time></trkpt>
<trkpt lat="46.34317398" lon="6.97761106"><ele>1091.582031</ele><time>2009-09-26T11:24:45Z</time></trkpt>
<trkpt lat="46.34320831" lon="6.97784090"><ele>1086.822021</ele><time>2009-09-26T11:24:53Z</time></trkpt>
<trkpt lat="46.34321213" lon="6.97792101"><ele>1085.092041</ele><time>2009-09-26T11:24:56Z</time></trkpt>
<trkpt lat="46.34322739" lon="6.97815323"><ele>1083.602051</ele><time>2009-09-26T11:25:05Z</time></trkpt>
<trkpt lat="46.34321976" lon="6.97831917"><ele>1084.625977</ele><time>2009-09-26T11:25:11Z</time></trkpt>
<trkpt lat="46.34320068" lon="6.97851419"><ele>1086.442993</ele><time>2009-09-26T11:25:18Z</time></trkpt>
<trkpt lat="46.34318924" lon="6.97865915"><ele>1089.06897</ele><time>2009-09-26T11:25:24Z</time></trkpt>
<trkpt lat="46.34311676" lon="6.97883320"><ele>1096.807007</ele><time>2009-09-26T11:25:31Z</time></trkpt>
<trkpt lat="46.34304810" lon="6.97897005"><ele>1098.621948</ele><time>2009-09-26T11:25:37Z</time></trkpt>
<trkpt lat="46.34297562" lon="6.97909784"><ele>1095.963013</ele><time>2009-09-26T11:25:43Z</time></trkpt>
<trkpt lat="46.34288406" lon="6.97918510"><ele>1098.396973</ele><time>2009-09-26T11:25:47Z</time></trkpt>
<trkpt lat="46.34271622" lon="6.97931004"><ele>1102.171997</ele><time>2009-09-26T11:25:54Z</time></trkpt>
<trkpt lat="46.34258270" lon="6.97937822"><ele>1103.723022</ele><time>2009-09-26T11:26:01Z</time></trkpt>
<trkpt lat="46.34257126" lon="6.97938395"><ele>1102.942017</ele><time>2009-09-26T11:26:02Z</time></trkpt>
<trkpt lat="46.34246826" lon="6.97943592"><ele>1098.387939</ele><time>2009-09-26T11:26:09Z</time></trkpt>
<trkpt lat="46.34236526" lon="6.97950602"><ele>1096.27002</ele><time>2009-09-26T11:26:17Z</time></trkpt>
<trkpt lat="46.34227753" lon="6.97956991"><ele>1096.344971</ele><time>2009-09-26T11:26:23Z</time></trkpt>
<trkpt lat="46.34215927" lon="6.97971201"><ele>1098.311035</ele><time>2009-09-26T11:26:31Z</time></trkpt>
<trkpt lat="46.34206772" lon="6.97977209"><ele>1098.983032</ele><time>2009-09-26T11:26:39Z</time></trkpt>
<trkpt lat="46.34203339" lon="6.97979307"><ele>1099.407959</ele><time>2009-09-26T11:26:42Z</time></trkpt>
<trkpt lat="46.34195709" lon="6.97984409"><ele>1098.370972</ele><time>2009-09-26T11:26:47Z</time></trkpt>
<trkpt lat="46.34190750" lon="6.97987604"><ele>1097.604004</ele><time>2009-09-26T11:26:51Z</time></trkpt>
<trkpt lat="46.34188080" lon="6.97989082"><ele>1097.94397</ele><time>2009-09-26T11:26:53Z</time></trkpt>
<trkpt lat="46.34177399" lon="6.97995615"><ele>1097.310059</ele><time>2009-09-26T11:26:59Z</time></trkpt>
<trkpt lat="46.34172058" lon="6.97998714"><ele>1103.859985</ele><time>2009-09-26T11:27:07Z</time></trkpt>
<trkpt lat="46.34159088" lon="6.98002195"><ele>1097.807983</ele><time>2009-09-26T11:29:04Z</time></trkpt>
<trkpt lat="46.34144211" lon="6.98003721"><ele>1097.067017</ele><time>2009-09-26T11:29:09Z</time></trkpt>
<trkpt lat="46.34143829" lon="6.98003817"><ele>1099.863037</ele><time>2009-09-26T11:29:12Z</time></trkpt>
<trkpt lat="46.34137726" lon="6.98004580"><ele>1100.375</ele><time>2009-09-26T11:29:21Z</time></trkpt>
<trkpt lat="46.34133530" lon="6.98005199"><ele>1106.062012</ele><time>2009-09-26T11:29:32Z</time></trkpt>
<trkpt lat="46.34123230" lon="6.98006487"><ele>1104.500977</ele><time>2009-09-26T11:29:35Z</time></trkpt>
<trkpt lat="46.34107590" lon="6.98008204"><ele>1101.879028</ele><time>2009-09-26T11:29:39Z</time></trkpt>
<trkpt lat="46.34092712" lon="6.98009396"><ele>1100.819946</ele><time>2009-09-26T11:29:42Z</time></trkpt>
<trkpt lat="46.34073639" lon="6.98010778"><ele>1099.858032</ele><time>2009-09-26T11:29:47Z</time></trkpt>
<trkpt lat="46.34066772" lon="6.98011303"><ele>1099.137939</ele><time>2009-09-26T11:29:49Z</time></trkpt>
<trkpt lat="46.34054184" lon="6.98013496"><ele>1097.612061</ele><time>2009-09-26T11:29:55Z</time></trkpt>
<trkpt lat="46.34052277" lon="6.98014021"><ele>1097.603027</ele><time>2009-09-26T11:29:56Z</time></trkpt>
<trkpt lat="46.34045029" lon="6.98015881"><ele>1097.875977</ele><time>2009-09-26T11:30:04Z</time></trkpt>
<trkpt lat="46.34038925" lon="6.98017597"><ele>1097.129028</ele><time>2009-09-26T11:30:12Z</time></trkpt>
<trkpt lat="46.34033585" lon="6.98018980"><ele>1098.123047</ele><time>2009-09-26T11:30:15Z</time></trkpt>
<trkpt lat="46.34030151" lon="6.98019886"><ele>1100.645996</ele><time>2009-09-26T11:30:19Z</time></trkpt>
<trkpt lat="46.34022141" lon="6.98017120"><ele>1104.525024</ele><time>2009-09-26T11:30:25Z</time></trkpt>
<trkpt lat="46.34014130" lon="6.98013401"><ele>1107.692993</ele><time>2009-09-26T11:30:34Z</time></trkpt>
<trkpt lat="46.34014130" lon="6.98013401"><ele>1106.709961</ele><time>2009-09-26T11:30:39Z</time></trkpt>
<trkpt lat="46.34014130" lon="6.98013401"><ele>1107.640015</ele><time>2009-09-26T11:30:43Z</time></trkpt>
<trkpt lat="46.34003830" lon="6.98008919"><ele>1102.854004</ele><time>2009-09-26T11:30:49Z</time></trkpt>
<trkpt lat="46.33994293" lon="6.98004723"><ele>1100.38501</ele><time>2009-09-26T11:30:53Z</time></trkpt>
<trkpt lat="46.33989334" lon="6.98002911"><ele>1100.162964</ele><time>2009-09-26T11:30:56Z</time></trkpt>
<trkpt lat="46.33989334" lon="6.98002911"><ele>1099.998047</ele><time>2009-09-26T11:31:01Z</time></trkpt>
<trkpt lat="46.33983612" lon="6.98002100"><ele>1098.604004</ele><time>2009-09-26T11:31:04Z</time></trkpt>
<trkpt lat="46.33982849" lon="6.98002005"><ele>1097.475952</ele><time>2009-09-26T11:31:07Z</time></trkpt>
<trkpt lat="46.33971024" lon="6.98000908"><ele>1096.194946</ele><time>2009-09-26T11:31:14Z</time></trkpt>
<trkpt lat="46.33959579" lon="6.98000908"><ele>1094.034058</ele><time>2009-09-26T11:31:18Z</time></trkpt>
<trkpt lat="46.33950424" lon="6.98000622"><ele>1094.527954</ele><time>2009-09-26T11:31:22Z</time></trkpt>
<trkpt lat="46.33950424" lon="6.98000622"><ele>1094.786987</ele><time>2009-09-26T11:31:24Z</time></trkpt>
<trkpt lat="46.33949661" lon="6.98000383"><ele>1096.172974</ele><time>2009-09-26T11:31:30Z</time></trkpt>
<trkpt lat="46.33949661" lon="6.98000383"><ele>1096.415039</ele><time>2009-09-26T11:31:31Z</time></trkpt>
<trkpt lat="46.33938217" lon="6.97995996"><ele>1095.155029</ele><time>2009-09-26T11:31:39Z</time></trkpt>
<trkpt lat="46.33938217" lon="6.97995996"><ele>1095.456055</ele><time>2009-09-26T11:31:41Z</time></trkpt>
<trkpt lat="46.33921051" lon="6.97984123"><ele>1094.552979</ele><time>2009-09-26T11:31:47Z</time></trkpt>
<trkpt lat="46.33904266" lon="6.97971821"><ele>1101.108032</ele><time>2009-09-26T11:31:52Z</time></trkpt>
<trkpt lat="46.33902740" lon="6.97971106"><ele>1105.618042</ele><time>2009-09-26T11:31:56Z</time></trkpt>
<trkpt lat="46.33898926" lon="6.97969198"><ele>1108.165039</ele><time>2009-09-26T11:31:59Z</time></trkpt>
<trkpt lat="46.33894730" lon="6.97967005"><ele>1109.698975</ele><time>2009-09-26T11:32:03Z</time></trkpt>
<trkpt lat="46.33889389" lon="6.97964287"><ele>1108.029053</ele><time>2009-09-26T11:32:10Z</time></trkpt>
<trkpt lat="46.33889389" lon="6.97964287"><ele>1107.85498</ele><time>2009-09-26T11:32:11Z</time></trkpt>
<trkpt lat="46.33889389" lon="6.97964287"><ele>1107.999023</ele><time>2009-09-26T11:32:18Z</time></trkpt>
<trkpt lat="46.33889389" lon="6.97964287"><ele>1104.446045</ele><time>2009-09-26T11:32:23Z</time></trkpt>
<trkpt lat="46.33889389" lon="6.97964287"><ele>1102.865967</ele><time>2009-09-26T11:32:27Z</time></trkpt>
<trkpt lat="46.33889389" lon="6.97964287"><ele>1103.140991</ele><time>2009-09-26T11:32:29Z</time></trkpt>
<trkpt lat="46.33878326" lon="6.97957182"><ele>1104.136963</ele><time>2009-09-26T11:32:38Z</time></trkpt>
<trkpt lat="46.33878326" lon="6.97957182"><ele>1104.401001</ele><time>2009-09-26T11:32:45Z</time></trkpt>
<trkpt lat="46.33878326" lon="6.97957182"><ele>1104.557983</ele><time>2009-09-26T11:32:48Z</time></trkpt>
<trkpt lat="46.33878326" lon="6.97957182"><ele>1106.614014</ele><time>2009-09-26T11:33:05Z</time></trkpt>
<trkpt lat="46.33878326" lon="6.97957182"><ele>1110.807007</ele><time>2009-09-26T11:33:16Z</time></trkpt>
<trkpt lat="46.33878326" lon="6.97957182"><ele>1111.426025</ele><time>2009-09-26T11:33:18Z</time></trkpt>
<trkpt lat="46.33852005" lon="6.97938013"><ele>1108.593994</ele><time>2009-09-26T11:33:24Z</time></trkpt>
<trkpt lat="46.33852005" lon="6.97938013"><ele>1109.843018</ele><time>2009-09-26T11:33:30Z</time></trkpt>
<trkpt lat="46.33852005" lon="6.97938013"><ele>1109.465942</ele><time>2009-09-26T11:33:35Z</time></trkpt>
<trkpt lat="46.33840179" lon="6.97933388"><ele>1107.149048</ele><time>2009-09-26T11:33:41Z</time></trkpt>
<trkpt lat="46.33840179" lon="6.97933388"><ele>1107.860962</ele><time>2009-09-26T11:33:49Z</time></trkpt>
<trkpt lat="46.33840179" lon="6.97933388"><ele>1109.873047</ele><time>2009-09-26T11:33:56Z</time></trkpt>
<trkpt lat="46.33828354" lon="6.97931480"><ele>1109.571045</ele><time>2009-09-26T11:34:02Z</time></trkpt>
<trkpt lat="46.33828354" lon="6.97931480"><ele>1108.697998</ele><time>2009-09-26T11:34:07Z</time></trkpt>
<trkpt lat="46.33828354" lon="6.97931480"><ele>1105.879028</ele><time>2009-09-26T11:34:12Z</time></trkpt>
<trkpt lat="46.33828354" lon="6.97931480"><ele>1105.078979</ele><time>2009-09-26T11:34:13Z</time></trkpt>
<trkpt lat="46.33828354" lon="6.97931480"><ele>1105.090942</ele><time>2009-09-26T11:34:28Z</time></trkpt>
<trkpt lat="46.33808517" lon="6.97928286"><ele>1105.114014</ele><time>2009-09-26T11:34:33Z</time></trkpt>
<trkpt lat="46.33807755" lon="6.97928095"><ele>1108.125</ele><time>2009-09-26T11:34:39Z</time></trkpt>
<trkpt lat="46.33807755" lon="6.97928095"><ele>1107.991943</ele><time>2009-09-26T11:34:40Z</time></trkpt>
<trkpt lat="46.33807755" lon="6.97928095"><ele>1107.579956</ele><time>2009-09-26T11:34:45Z</time></trkpt>
<trkpt lat="46.33807755" lon="6.97928095"><ele>1108.084961</ele><time>2009-09-26T11:34:52Z</time></trkpt>
<trkpt lat="46.33807755" lon="6.97928095"><ele>1108.762939</ele><time>2009-09-26T11:34:54Z</time></trkpt>
<trkpt lat="46.33807755" lon="6.97928095"><ele>1116.907959</ele><time>2009-09-26T11:35:14Z</time></trkpt>
<trkpt lat="46.33807755" lon="6.97928095"><ele>1117.034058</ele><time>2009-09-26T11:35:15Z</time></trkpt>
<trkpt lat="46.33807755" lon="6.97928095"><ele>1120.218994</ele><time>2009-09-26T11:35:25Z</time></trkpt>
<trkpt lat="46.33807755" lon="6.97928095"><ele>1125.411011</ele><time>2009-09-26T11:35:33Z</time></trkpt>
<trkpt lat="46.33807755" lon="6.97928095"><ele>1125.689941</ele><time>2009-09-26T11:35:35Z</time></trkpt>
<trkpt lat="46.33807755" lon="6.97928095"><ele>1127.314941</ele><time>2009-09-26T11:35:46Z</time></trkpt>
<trkpt lat="46.33779526" lon="6.97923517"><ele>1129.293945</ele><time>2009-09-26T11:35:51Z</time></trkpt>
<trkpt lat="46.33779526" lon="6.97923517"><ele>1133.662964</ele><time>2009-09-26T11:35:58Z</time></trkpt>
<trkpt lat="46.33767319" lon="6.97915983"><ele>1135.833984</ele><time>2009-09-26T11:36:03Z</time></trkpt>
<trkpt lat="46.33765030" lon="6.97914505"><ele>1135.395996</ele><time>2009-09-26T11:36:05Z</time></trkpt>
<trkpt lat="46.33758163" lon="6.97906017"><ele>1137.786987</ele><time>2009-09-26T11:36:13Z</time></trkpt>
<trkpt lat="46.33758163" lon="6.97906017"><ele>1136.81897</ele><time>2009-09-26T11:36:20Z</time></trkpt>
<trkpt lat="46.33758163" lon="6.97906017"><ele>1136.56604</ele><time>2009-09-26T11:36:28Z</time></trkpt>
<trkpt lat="46.33758163" lon="6.97906017"><ele>1139.041016</ele><time>2009-09-26T11:36:33Z</time></trkpt>
<trkpt lat="46.33747864" lon="6.97884083"><ele>1148.609985</ele><time>2009-09-26T11:36:45Z</time></trkpt>
<trkpt lat="46.33747864" lon="6.97884083"><ele>1147.858032</ele><time>2009-09-26T11:36:51Z</time></trkpt>
<trkpt lat="46.33747864" lon="6.97884083"><ele>1147.437012</ele><time>2009-09-26T11:36:52Z</time></trkpt>
<trkpt lat="46.33747864" lon="6.97884083"><ele>1144.644043</ele><time>2009-09-26T11:37:14Z</time></trkpt>
<trkpt lat="46.33747864" lon="6.97884083"><ele>1142.302979</ele><time>2009-09-26T11:37:17Z</time></trkpt>
<trkpt lat="46.33747864" lon="6.97884083"><ele>1130.123047</ele><time>2009-09-26T11:38:34Z</time></trkpt>
<trkpt lat="46.33747864" lon="6.97884083"><ele>1130.843994</ele><time>2009-09-26T11:38:39Z</time></trkpt>
<trkpt lat="46.33747864" lon="6.97884083"><ele>1133.136963</ele><time>2009-09-26T11:38:45Z</time></trkpt>
<trkpt lat="46.33747864" lon="6.97884083"><ele>1138.953003</ele><time>2009-09-26T11:38:52Z</time></trkpt>
<trkpt lat="46.33747864" lon="6.97884083"><ele>1140.840942</ele><time>2009-09-26T11:38:55Z</time></trkpt>
<trkpt lat="46.33747864" lon="6.97884083"><ele>1142.719971</ele><time>2009-09-26T11:39:01Z</time></trkpt>
<trkpt lat="46.33747864" lon="6.97884083"><ele>1143.489014</ele><time>2009-09-26T11:39:04Z</time></trkpt>
<trkpt lat="46.33747864" lon="6.97884083"><ele>1148.55896</ele><time>2009-09-26T11:39:15Z</time></trkpt>
<trkpt lat="46.33747864" lon="6.97884083"><ele>1152.970947</ele><time>2009-09-26T11:39:20Z</time></trkpt>
<trkpt lat="46.33708572" lon="6.97859287"><ele>1157.301025</ele><time>2009-09-26T11:39:25Z</time></trkpt>
<trkpt lat="46.33708572" lon="6.97859287"><ele>1157.985962</ele><time>2009-09-26T11:39:30Z</time></trkpt>
<trkpt lat="46.33708572" lon="6.97859287"><ele>1165.312988</ele><time>2009-09-26T11:39:52Z</time></trkpt>
<trkpt lat="46.33708572" lon="6.97859287"><ele>1171.139038</ele><time>2009-09-26T11:39:58Z</time></trkpt>
<trkpt lat="46.33708572" lon="6.97859287"><ele>1173.925049</ele><time>2009-09-26T11:40:06Z</time></trkpt>
<trkpt lat="46.33708572" lon="6.97859287"><ele>1175.514038</ele><time>2009-09-26T11:40:08Z</time></trkpt>
<trkpt lat="46.33690643" lon="6.97833395"><ele>1177.037964</ele><time>2009-09-26T11:40:15Z</time></trkpt>
<trkpt lat="46.33690643" lon="6.97833395"><ele>1175.407959</ele><time>2009-09-26T11:40:23Z</time></trkpt>
<trkpt lat="46.33690643" lon="6.97833395"><ele>1172.324951</ele><time>2009-09-26T11:40:31Z</time></trkpt>
<trkpt lat="46.33690643" lon="6.97833395"><ele>1171.207031</ele><time>2009-09-26T11:40:33Z</time></trkpt>
<trkpt lat="46.33690643" lon="6.97833395"><ele>1152.154053</ele><time>2009-09-26T11:41:53Z</time></trkpt>
<trkpt lat="46.33690643" lon="6.97833395"><ele>1155.10498</ele><time>2009-09-26T11:42:02Z</time></trkpt>
<trkpt lat="46.33690643" lon="6.97833395"><ele>1156.69397</ele><time>2009-09-26T11:42:13Z</time></trkpt>
<trkpt lat="46.33690643" lon="6.97833395"><ele>1157.187988</ele><time>2009-09-26T11:42:15Z</time></trkpt>
<trkpt lat="46.33690643" lon="6.97833395"><ele>1159.989014</ele><time>2009-09-26T11:42:40Z</time></trkpt>
<trkpt lat="46.33690643" lon="6.97833395"><ele>1162.662964</ele><time>2009-09-26T11:42:50Z</time></trkpt>
<trkpt lat="46.33690643" lon="6.97833395"><ele>1164.253052</ele><time>2009-09-26T11:42:52Z</time></trkpt>
<trkpt lat="46.33690643" lon="6.97833395"><ele>1165.292969</ele><time>2009-09-26T11:43:02Z</time></trkpt>
<trkpt lat="46.33690643" lon="6.97833395"><ele>1165.552002</ele><time>2009-09-26T11:43:03Z</time></trkpt>
<trkpt lat="46.33690643" lon="6.97833395"><ele>1167.947021</ele><time>2009-09-26T11:43:11Z</time></trkpt>
<trkpt lat="46.33690643" lon="6.97833395"><ele>1171.108032</ele><time>2009-09-26T11:43:38Z</time></trkpt>
<trkpt lat="46.33690643" lon="6.97833395"><ele>1171.92395</ele><time>2009-09-26T11:43:42Z</time></trkpt>
<trkpt lat="46.33690643" lon="6.97833395"><ele>1174.389038</ele><time>2009-09-26T11:43:57Z</time></trkpt>
<trkpt lat="46.33690643" lon="6.97833395"><ele>1173.150024</ele><time>2009-09-26T11:44:04Z</time></trkpt>
<trkpt lat="46.33690643" lon="6.97833395"><ele>1174.844971</ele><time>2009-09-26T11:44:09Z</time></trkpt>
<trkpt lat="46.33690643" lon="6.97833395"><ele>1175.984009</ele><time>2009-09-26T11:44:14Z</time></trkpt>
<trkpt lat="46.33690643" lon="6.97833395"><ele>1175.964966</ele><time>2009-09-26T11:44:16Z</time></trkpt>
<trkpt lat="46.33690643" lon="6.97833395"><ele>1174.95105</ele><time>2009-09-26T11:44:39Z</time></trkpt>
<trkpt lat="46.33690643" lon="6.97833395"><ele>1175.331055</ele><time>2009-09-26T11:44:41Z</time></trkpt>
<trkpt lat="46.33690643" lon="6.97833395"><ele>1175.480957</ele><time>2009-09-26T11:44:50Z</time></trkpt>
<trkpt lat="46.33690643" lon="6.97833395"><ele>1175.928955</ele><time>2009-09-26T11:44:55Z</time></trkpt>
<trkpt lat="46.33690643" lon="6.97833395"><ele>1176.087036</ele><time>2009-09-26T11:44:58Z</time></trkpt>
<trkpt lat="46.33690643" lon="6.97833395"><ele>1182.036987</ele><time>2009-09-26T11:45:11Z</time></trkpt>
<trkpt lat="46.33690643" lon="6.97833395"><ele>1187.930054</ele><time>2009-09-26T11:45:17Z</time></trkpt>
<trkpt lat="46.33690643" lon="6.97833395"><ele>1188.047974</ele><time>2009-09-26T11:45:18Z</time></trkpt>
<trkpt lat="46.33596802" lon="6.97820711"><ele>1195.63501</ele><time>2009-09-26T11:45:26Z</time></trkpt>
<trkpt lat="46.33594131" lon="6.97820711"><ele>1200.328003</ele><time>2009-09-26T11:45:30Z</time></trkpt>
<trkpt lat="46.33594131" lon="6.97820711"><ele>1203.001953</ele><time>2009-09-26T11:45:36Z</time></trkpt>
<trkpt lat="46.33594131" lon="6.97820711"><ele>1202.82605</ele><time>2009-09-26T11:45:40Z</time></trkpt>
<trkpt lat="46.33583069" lon="6.97821712"><ele>1202.762939</ele><time>2009-09-26T11:45:46Z</time></trkpt>
<trkpt lat="46.33583069" lon="6.97821712"><ele>1203.858032</ele><time>2009-09-26T11:45:51Z</time></trkpt>
<trkpt lat="46.33583069" lon="6.97821712"><ele>1192.909058</ele><time>2009-09-26T11:46:08Z</time></trkpt>
<trkpt lat="46.33583069" lon="6.97821712"><ele>1194.672974</ele><time>2009-09-26T11:46:13Z</time></trkpt>
<trkpt lat="46.33583069" lon="6.97821712"><ele>1199.399048</ele><time>2009-09-26T11:46:19Z</time></trkpt>
<trkpt lat="46.33583069" lon="6.97821712"><ele>1204.969971</ele><time>2009-09-26T11:46:25Z</time></trkpt>
<trkpt lat="46.33583069" lon="6.97821712"><ele>1209.373047</ele><time>2009-09-26T11:46:30Z</time></trkpt>
<trkpt lat="46.33583069" lon="6.97821712"><ele>1213.067017</ele><time>2009-09-26T11:46:38Z</time></trkpt>
<trkpt lat="46.33583069" lon="6.97821712"><ele>1211.171997</ele><time>2009-09-26T11:46:45Z</time></trkpt>
<trkpt lat="46.33583069" lon="6.97821712"><ele>1213.56604</ele><time>2009-09-26T11:46:48Z</time></trkpt>
<trkpt lat="46.33546448" lon="6.97832298"><ele>1219.501953</ele><time>2009-09-26T11:46:54Z</time></trkpt>
<trkpt lat="46.33546448" lon="6.97832298"><ele>1219.147949</ele><time>2009-09-26T11:46:59Z</time></trkpt>
<trkpt lat="46.33538818" lon="6.97834492"><ele>1221.258057</ele><time>2009-09-26T11:47:03Z</time></trkpt>
<trkpt lat="46.33538818" lon="6.97834492"><ele>1215.223022</ele><time>2009-09-26T11:47:11Z</time></trkpt>
<trkpt lat="46.33538818" lon="6.97834492"><ele>1214.41394</ele><time>2009-09-26T11:47:13Z</time></trkpt>
<trkpt lat="46.33523941" lon="6.97839594"><ele>1216.795044</ele><time>2009-09-26T11:47:21Z</time></trkpt>
<trkpt lat="46.33523560" lon="6.97840118"><ele>1221.024048</ele><time>2009-09-26T11:47:28Z</time></trkpt>
<trkpt lat="46.33514404" lon="6.97846079"><ele>1219.939941</ele><time>2009-09-26T11:47:35Z</time></trkpt>
<trkpt lat="46.33509827" lon="6.97849321"><ele>1220.105957</ele><time>2009-09-26T11:47:40Z</time></trkpt>
<trkpt lat="46.33507919" lon="6.97850323"><ele>1219.709961</ele><time>2009-09-26T11:47:45Z</time></trkpt>
<trkpt lat="46.33498383" lon="6.97855616"><ele>1219.96106</ele><time>2009-09-26T11:47:52Z</time></trkpt>
<trkpt lat="46.33498383" lon="6.97855616"><ele>1222.125</ele><time>2009-09-26T11:47:54Z</time></trkpt>
<trkpt lat="46.33491135" lon="6.97857189"><ele>1225.30603</ele><time>2009-09-26T11:47:57Z</time></trkpt>
<trkpt lat="46.33490372" lon="6.97857285"><ele>1230.005981</ele><time>2009-09-26T11:47:59Z</time></trkpt>
<trkpt lat="46.33482361" lon="6.97859001"><ele>1235.905029</ele><time>2009-09-26T11:48:07Z</time></trkpt>
<trkpt lat="46.33475494" lon="6.97860479"><ele>1236.137939</ele><time>2009-09-26T11:48:15Z</time></trkpt>
<trkpt lat="46.33470917" lon="6.97861385"><ele>1237.208008</ele><time>2009-09-26T11:48:20Z</time></trkpt>
<trkpt lat="46.33468246" lon="6.97865295"><ele>1237.698975</ele><time>2009-09-26T11:48:25Z</time></trkpt>
<trkpt lat="46.33460999" lon="6.97875023"><ele>1231.379028</ele><time>2009-09-26T11:48:32Z</time></trkpt>
<trkpt lat="46.33454514" lon="6.97881508"><ele>1231.328003</ele><time>2009-09-26T11:48:40Z</time></trkpt>
<trkpt lat="46.33448029" lon="6.97886610"><ele>1229.167969</ele><time>2009-09-26T11:48:48Z</time></trkpt>
<trkpt lat="46.33448029" lon="6.97886610"><ele>1235.421997</ele><time>2009-09-26T11:48:56Z</time></trkpt>
<trkpt lat="46.33448029" lon="6.97886610"><ele>1235.665039</ele><time>2009-09-26T11:49:01Z</time></trkpt>
<trkpt lat="46.33448029" lon="6.97886610"><ele>1237.904053</ele><time>2009-09-26T11:49:06Z</time></trkpt>
<trkpt lat="46.33448029" lon="6.97886610"><ele>1245.160034</ele><time>2009-09-26T11:49:16Z</time></trkpt>
<trkpt lat="46.33423615" lon="6.97905493"><ele>1244.844971</ele><time>2009-09-26T11:49:24Z</time></trkpt>
<trkpt lat="46.33420181" lon="6.97908497"><ele>1244.442993</ele><time>2009-09-26T11:49:26Z</time></trkpt>
<trkpt lat="46.33396530" lon="6.97922087"><ele>1239.227051</ele><time>2009-09-26T11:49:33Z</time></trkpt>
<trkpt lat="46.33380890" lon="6.97928095"><ele>1233.68396</ele><time>2009-09-26T11:49:37Z</time></trkpt>
<trkpt lat="46.33360291" lon="6.97936010"><ele>1227.850952</ele><time>2009-09-26T11:49:42Z</time></trkpt>
<trkpt lat="46.33347702" lon="6.97940922"><ele>1224.56604</ele><time>2009-09-26T11:49:47Z</time></trkpt>
<trkpt lat="46.33336258" lon="6.97945213"><ele>1221.720947</ele><time>2009-09-26T11:49:51Z</time></trkpt>
<trkpt lat="46.33323288" lon="6.97950315"><ele>1220.053955</ele><time>2009-09-26T11:49:55Z</time></trkpt>
<trkpt lat="46.33309174" lon="6.97955894"><ele>1218.94397</ele><time>2009-09-26T11:50:00Z</time></trkpt>
<trkpt lat="46.33301926" lon="6.97958899"><ele>1220.614014</ele><time>2009-09-26T11:50:05Z</time></trkpt>
<trkpt lat="46.33296585" lon="6.97961092"><ele>1220.857056</ele><time>2009-09-26T11:50:11Z</time></trkpt>
<trkpt lat="46.33288956" lon="6.97964096"><ele>1219.668945</ele><time>2009-09-26T11:50:17Z</time></trkpt>
<trkpt lat="46.33287430" lon="6.97964811"><ele>1218.918945</ele><time>2009-09-26T11:50:19Z</time></trkpt>
<trkpt lat="46.33279419" lon="6.97968197"><ele>1216.812012</ele><time>2009-09-26T11:50:26Z</time></trkpt>
<trkpt lat="46.33273697" lon="6.97970819"><ele>1219.145996</ele><time>2009-09-26T11:50:32Z</time></trkpt>
<trkpt lat="46.33271790" lon="6.97971821"><ele>1221.170044</ele><time>2009-09-26T11:50:38Z</time></trkpt>
<trkpt lat="46.33258820" lon="6.97978306"><ele>1225.740967</ele><time>2009-09-26T11:50:53Z</time></trkpt>
<trkpt lat="46.33258820" lon="6.97978306"><ele>1227.371948</ele><time>2009-09-26T11:51:00Z</time></trkpt>
<trkpt lat="46.33256531" lon="6.97979498"><ele>1228.838989</ele><time>2009-09-26T11:51:05Z</time></trkpt>
<trkpt lat="46.33238220" lon="6.98000193"><ele>1229.795044</ele><time>2009-09-26T11:51:10Z</time></trkpt>
<trkpt lat="46.33234787" lon="6.98006201"><ele>1230.901978</ele><time>2009-09-26T11:51:14Z</time></trkpt>
<trkpt lat="46.33230972" lon="6.98016596"><ele>1231.276978</ele><time>2009-09-26T11:51:18Z</time></trkpt>
<trkpt lat="46.33229065" lon="6.98021317"><ele>1231.956055</ele><time>2009-09-26T11:51:21Z</time></trkpt>
<trkpt lat="46.33224106" lon="6.98035002"><ele>1233.397949</ele><time>2009-09-26T11:51:28Z</time></trkpt>
<trkpt lat="46.33219910" lon="6.98047209"><ele>1231.724976</ele><time>2009-09-26T11:51:34Z</time></trkpt>
<trkpt lat="46.33216858" lon="6.98063898"><ele>1232.896973</ele><time>2009-09-26T11:51:39Z</time></trkpt>
<trkpt lat="46.33215714" lon="6.98079205"><ele>1234.93103</ele><time>2009-09-26T11:51:44Z</time></trkpt>
<trkpt lat="46.33213806" lon="6.98100185"><ele>1235.962036</ele><time>2009-09-26T11:51:51Z</time></trkpt>
<trkpt lat="46.33212280" lon="6.98117781"><ele>1234.284058</ele><time>2009-09-26T11:51:55Z</time></trkpt>
<trkpt lat="46.33211517" lon="6.98144197"><ele>1230.985962</ele><time>2009-09-26T11:52:00Z</time></trkpt>
<trkpt lat="46.33211517" lon="6.98146486"><ele>1229.141968</ele><time>2009-09-26T11:52:03Z</time></trkpt>
<trkpt lat="46.33211517" lon="6.98163891"><ele>1225.786011</ele><time>2009-09-26T11:52:51Z</time></trkpt>
<trkpt lat="46.33211517" lon="6.98182487"><ele>1226.864014</ele><time>2009-09-26T11:52:56Z</time></trkpt>
<trkpt lat="46.33211517" lon="6.98196602"><ele>1225.634033</ele><time>2009-09-26T11:52:59Z</time></trkpt>
<trkpt lat="46.33216095" lon="6.98221207"><ele>1222.378052</ele><time>2009-09-26T11:53:03Z</time></trkpt>
<trkpt lat="46.33221817" lon="6.98252201"><ele>1218.331055</ele><time>2009-09-26T11:53:07Z</time></trkpt>
<trkpt lat="46.33227921" lon="6.98268795"><ele>1215.953003</ele><time>2009-09-26T11:53:09Z</time></trkpt>
<trkpt lat="46.33238983" lon="6.98310709"><ele>1213.147949</ele><time>2009-09-26T11:53:13Z</time></trkpt>
<trkpt lat="46.33238220" lon="6.98354578"><ele>1212.38501</ele><time>2009-09-26T11:53:19Z</time></trkpt>
<trkpt lat="46.33244324" lon="6.98396397"><ele>1210.829956</ele><time>2009-09-26T11:53:26Z</time></trkpt>
<trkpt lat="46.33242798" lon="6.98428202"><ele>1209.587036</ele><time>2009-09-26T11:53:32Z</time></trkpt>
<trkpt lat="46.33239365" lon="6.98469877"><ele>1209.516968</ele><time>2009-09-26T11:53:39Z</time></trkpt>
<trkpt lat="46.33239365" lon="6.98475790"><ele>1209.402954</ele><time>2009-09-26T11:53:40Z</time></trkpt>
<trkpt lat="46.33241653" lon="6.98496008"><ele>1210.473022</ele><time>2009-09-26T11:53:43Z</time></trkpt>
<trkpt lat="46.33243561" lon="6.98513412"><ele>1211.192993</ele><time>2009-09-26T11:53:46Z</time></trkpt>
<trkpt lat="46.33235168" lon="6.98550320"><ele>1211.312012</ele><time>2009-09-26T11:53:53Z</time></trkpt>
<trkpt lat="46.33225250" lon="6.98588896"><ele>1218.140991</ele><time>2009-09-26T11:53:59Z</time></trkpt>
<trkpt lat="46.33220673" lon="6.98628807"><ele>1218.286987</ele><time>2009-09-26T11:54:06Z</time></trkpt>
<trkpt lat="46.33216858" lon="6.98661089"><ele>1218.677002</ele><time>2009-09-26T11:54:12Z</time></trkpt>
<trkpt lat="46.33215714" lon="6.98693419"><ele>1218.600952</ele><time>2009-09-26T11:54:18Z</time></trkpt>
<trkpt lat="46.33214951" lon="6.98722219"><ele>1218.265991</ele><time>2009-09-26T11:54:24Z</time></trkpt>
<trkpt lat="46.33214188" lon="6.98749113"><ele>1218.192993</ele><time>2009-09-26T11:54:30Z</time></trkpt>
<trkpt lat="46.33213806" lon="6.98771715"><ele>1218.110962</ele><time>2009-09-26T11:54:36Z</time></trkpt>
<trkpt lat="46.33199310" lon="6.98791885"><ele>1219.014038</ele><time>2009-09-26T11:54:41Z</time></trkpt>
<trkpt lat="46.33213043" lon="6.98778009"><ele>1219.009033</ele><time>2009-09-26T11:54:44Z</time></trkpt>
<trkpt lat="46.33213806" lon="6.98768282"><ele>1219.30896</ele><time>2009-09-26T11:54:49Z</time></trkpt>
<trkpt lat="46.33213806" lon="6.98768282"><ele>1219.32605</ele><time>2009-09-26T11:54:51Z</time></trkpt>
<trkpt lat="46.33213806" lon="6.98768282"><ele>1230.29895</ele><time>2009-09-26T11:55:22Z</time></trkpt>
<trkpt lat="46.33212280" lon="6.98784018"><ele>1225.487061</ele><time>2009-09-26T11:55:46Z</time></trkpt>
<trkpt lat="46.33205795" lon="6.98810577"><ele>1223.527954</ele><time>2009-09-26T11:55:53Z</time></trkpt>
<trkpt lat="46.33206940" lon="6.98840380"><ele>1221.505005</ele><time>2009-09-26T11:55:58Z</time></trkpt>
<trkpt lat="46.33206940" lon="6.98854923"><ele>1221.152954</ele><time>2009-09-26T11:56:00Z</time></trkpt>
<trkpt lat="46.33209229" lon="6.98920202"><ele>1220.552002</ele><time>2009-09-26T11:56:10Z</time></trkpt>
<trkpt lat="46.33211899" lon="6.98944378"><ele>1220.52002</ele><time>2009-09-26T11:56:14Z</time></trkpt>
<trkpt lat="46.33219147" lon="6.98995399"><ele>1220.262939</ele><time>2009-09-26T11:56:22Z</time></trkpt>
<trkpt lat="46.33223724" lon="6.99028206"><ele>1220.262939</ele><time>2009-09-26T11:56:27Z</time></trkpt>
<trkpt lat="46.33236313" lon="6.99072790"><ele>1219.748047</ele><time>2009-09-26T11:56:36Z</time></trkpt>
<trkpt lat="46.33250427" lon="6.99103689"><ele>1220.052979</ele><time>2009-09-26T11:56:43Z</time></trkpt>
<trkpt lat="46.33256912" lon="6.99119091"><ele>1220.324951</ele><time>2009-09-26T11:56:47Z</time></trkpt>
<trkpt lat="46.33267593" lon="6.99156904"><ele>1220.219971</ele><time>2009-09-26T11:56:55Z</time></trkpt>
<trkpt lat="46.33274841" lon="6.99189281"><ele>1220.067017</ele><time>2009-09-26T11:57:02Z</time></trkpt>
<trkpt lat="46.33282471" lon="6.99222517"><ele>1219.47998</ele><time>2009-09-26T11:57:08Z</time></trkpt>
<trkpt lat="46.33292007" lon="6.99263096"><ele>1218.045044</ele><time>2009-09-26T11:57:14Z</time></trkpt>
<trkpt lat="46.33314133" lon="6.99334908"><ele>1216.119019</ele><time>2009-09-26T11:57:24Z</time></trkpt>
<trkpt lat="46.33336639" lon="6.99406004"><ele>1215.590942</ele><time>2009-09-26T11:57:33Z</time></trkpt>
<trkpt lat="46.33353806" lon="6.99459314"><ele>1215.94104</ele><time>2009-09-26T11:57:40Z</time></trkpt>
<trkpt lat="46.33369064" lon="6.99511290"><ele>1216.853027</ele><time>2009-09-26T11:57:47Z</time></trkpt>
<trkpt lat="46.33385086" lon="6.99554396"><ele>1217.347046</ele><time>2009-09-26T11:57:53Z</time></trkpt>
<trkpt lat="46.33402252" lon="6.99571609"><ele>1218.634033</ele><time>2009-09-26T11:57:57Z</time></trkpt>
<trkpt lat="46.33411407" lon="6.99577522"><ele>1219.609009</ele><time>2009-09-26T11:57:59Z</time></trkpt>
<trkpt lat="46.33428574" lon="6.99589014"><ele>1221.868042</ele><time>2009-09-26T11:58:03Z</time></trkpt>
<trkpt lat="46.33448029" lon="6.99619293"><ele>1227.05896</ele><time>2009-09-26T11:58:09Z</time></trkpt>
<trkpt lat="46.33447266" lon="6.99647617"><ele>1229.282959</ele><time>2009-09-26T11:58:13Z</time></trkpt>
<trkpt lat="46.33441162" lon="6.99675989"><ele>1229.515015</ele><time>2009-09-26T11:58:18Z</time></trkpt>
<trkpt lat="46.33447266" lon="6.99698782"><ele>1230.021973</ele><time>2009-09-26T11:58:23Z</time></trkpt>
<trkpt lat="46.33449554" lon="6.99702406"><ele>1229.880981</ele><time>2009-09-26T11:58:24Z</time></trkpt>
<trkpt lat="46.33466721" lon="6.99716902"><ele>1230.837036</ele><time>2009-09-26T11:58:30Z</time></trkpt>
<trkpt lat="46.33488083" lon="6.99729013"><ele>1231.987061</ele><time>2009-09-26T11:58:37Z</time></trkpt>
<trkpt lat="46.33500671" lon="6.99749279"><ele>1231.511963</ele><time>2009-09-26T11:58:43Z</time></trkpt>
<trkpt lat="46.33507156" lon="6.99766684"><ele>1232.006958</ele><time>2009-09-26T11:58:49Z</time></trkpt>
<trkpt lat="46.33517075" lon="6.99779797"><ele>1232.062012</ele><time>2009-09-26T11:58:56Z</time></trkpt>
<trkpt lat="46.33531952" lon="6.99778891"><ele>1233.706055</ele><time>2009-09-26T11:59:02Z</time></trkpt>
<trkpt lat="46.33541489" lon="6.99777985"><ele>1234.119019</ele><time>2009-09-26T11:59:07Z</time></trkpt>
<trkpt lat="46.33556366" lon="6.99782705"><ele>1235.204956</ele><time>2009-09-26T11:59:13Z</time></trkpt>
<trkpt lat="46.33559418" lon="6.99784422"><ele>1238.712036</ele><time>2009-09-26T11:59:15Z</time></trkpt>
<trkpt lat="46.33577728" lon="6.99799204"><ele>1242.307983</ele><time>2009-09-26T11:59:22Z</time></trkpt>
<trkpt lat="46.33596420" lon="6.99816990"><ele>1240.600952</ele><time>2009-09-26T11:59:29Z</time></trkpt>
<trkpt lat="46.33609390" lon="6.99826002"><ele>1238.776978</ele><time>2009-09-26T11:59:35Z</time></trkpt>
<trkpt lat="46.33633041" lon="6.99827480"><ele>1237.490967</ele><time>2009-09-26T11:59:42Z</time></trkpt>
<trkpt lat="46.33659744" lon="6.99822378"><ele>1237.557007</ele><time>2009-09-26T11:59:49Z</time></trkpt>
<trkpt lat="46.33671188" lon="6.99819994"><ele>1241.035034</ele><time>2009-09-26T11:59:53Z</time></trkpt>
<trkpt lat="46.33686447" lon="6.99816418"><ele>1244.240967</ele><time>2009-09-26T11:59:58Z</time></trkpt>
<trkpt lat="46.33709717" lon="6.99841118"><ele>1246.708008</ele><time>2009-09-26T12:00:03Z</time></trkpt>
<trkpt lat="46.33710861" lon="6.99853706"><ele>1248.869019</ele><time>2009-09-26T12:00:09Z</time></trkpt>
<trkpt lat="46.33711243" lon="6.99863720"><ele>1250.375</ele><time>2009-09-26T12:00:15Z</time></trkpt>
<trkpt lat="46.33712387" lon="6.99877787"><ele>1249.090942</ele><time>2009-09-26T12:00:24Z</time></trkpt>
<trkpt lat="46.33713531" lon="6.99891090"><ele>1247.01001</ele><time>2009-09-26T12:00:32Z</time></trkpt>
<trkpt lat="46.33714294" lon="6.99897718"><ele>1246.583984</ele><time>2009-09-26T12:00:36Z</time></trkpt>
<trkpt lat="46.33715820" lon="6.99912310"><ele>1247.302002</ele><time>2009-09-26T12:00:45Z</time></trkpt>
<trkpt lat="46.33716583" lon="6.99917698"><ele>1247.187012</ele><time>2009-09-26T12:00:48Z</time></trkpt>
<trkpt lat="46.33717346" lon="6.99926186"><ele>1248.766968</ele><time>2009-09-26T12:00:53Z</time></trkpt>
<trkpt lat="46.33718872" lon="6.99939394"><ele>1249.767944</ele><time>2009-09-26T12:00:59Z</time></trkpt>
<trkpt lat="46.33720779" lon="6.99956322"><ele>1245.457031</ele><time>2009-09-26T12:01:08Z</time></trkpt>
<trkpt lat="46.33721542" lon="6.99963617"><ele>1245.553955</ele><time>2009-09-26T12:01:12Z</time></trkpt>
<trkpt lat="46.33726883" lon="6.99980116"><ele>1246.953979</ele><time>2009-09-26T12:01:21Z</time></trkpt>
<trkpt lat="46.33735657" lon="6.99991322"><ele>1246.041992</ele><time>2009-09-26T12:01:29Z</time></trkpt>
<trkpt lat="46.33746338" lon="7.00002623"><ele>1244.677002</ele><time>2009-09-26T12:01:35Z</time></trkpt>
<trkpt lat="46.33757019" lon="7.00015211"><ele>1244.628052</ele><time>2009-09-26T12:01:41Z</time></trkpt>
<trkpt lat="46.33769226" lon="7.00043297"><ele>1244.321045</ele><time>2009-09-26T12:01:51Z</time></trkpt>
<trkpt lat="46.33784866" lon="7.00070286"><ele>1243.64502</ele><time>2009-09-26T12:02:00Z</time></trkpt>
<trkpt lat="46.33799362" lon="7.00095320"><ele>1243.838013</ele><time>2009-09-26T12:02:09Z</time></trkpt>
<trkpt lat="46.33811951" lon="7.00116777"><ele>1242.634033</ele><time>2009-09-26T12:02:17Z</time></trkpt>
<trkpt lat="46.33823013" lon="7.00133801"><ele>1241.383057</ele><time>2009-09-26T12:02:21Z</time></trkpt>
<trkpt lat="46.33827209" lon="7.00146484"><ele>1241.064941</ele><time>2009-09-26T12:02:23Z</time></trkpt>
<trkpt lat="46.33832932" lon="7.00177622"><ele>1241.035034</ele><time>2009-09-26T12:02:27Z</time></trkpt>
<trkpt lat="46.33835602" lon="7.00237417"><ele>1240.280029</ele><time>2009-09-26T12:02:35Z</time></trkpt>
<trkpt lat="46.33834839" lon="7.00282097"><ele>1241.805054</ele><time>2009-09-26T12:02:43Z</time></trkpt>
<trkpt lat="46.33833694" lon="7.00324821"><ele>1244.906982</ele><time>2009-09-26T12:02:51Z</time></trkpt>
<trkpt lat="46.33835983" lon="7.00370693"><ele>1249.901001</ele><time>2009-09-26T12:03:01Z</time></trkpt>
<trkpt lat="46.33835983" lon="7.00413418"><ele>1253.421997</ele><time>2009-09-26T12:03:11Z</time></trkpt>
<trkpt lat="46.33835220" lon="7.00446606"><ele>1256.025024</ele><time>2009-09-26T12:03:19Z</time></trkpt>
<trkpt lat="46.33834076" lon="7.00472498"><ele>1257.188965</ele><time>2009-09-26T12:03:26Z</time></trkpt>
<trkpt lat="46.33835220" lon="7.00500917"><ele>1257.406982</ele><time>2009-09-26T12:03:33Z</time></trkpt>
<trkpt lat="46.33846283" lon="7.00532007"><ele>1256.555054</ele><time>2009-09-26T12:03:40Z</time></trkpt>
<trkpt lat="46.33854675" lon="7.00543213"><ele>1256.098022</ele><time>2009-09-26T12:03:43Z</time></trkpt>
<trkpt lat="46.33861542" lon="7.00550079"><ele>1256.016968</ele><time>2009-09-26T12:03:45Z</time></trkpt>
<trkpt lat="46.33868027" lon="7.00563192"><ele>1255.859009</ele><time>2009-09-26T12:03:47Z</time></trkpt>
<trkpt lat="46.33875656" lon="7.00590181"><ele>1254.640015</ele><time>2009-09-26T12:03:52Z</time></trkpt>
<trkpt lat="46.33886337" lon="7.00614691"><ele>1254.425049</ele><time>2009-09-26T12:03:58Z</time></trkpt>
<trkpt lat="46.33907700" lon="7.00649309"><ele>1255.980957</ele><time>2009-09-26T12:04:08Z</time></trkpt>
<trkpt lat="46.33925247" lon="7.00675821"><ele>1257.235962</ele><time>2009-09-26T12:04:16Z</time></trkpt>
<trkpt lat="46.33944702" lon="7.00706816"><ele>1258.152954</ele><time>2009-09-26T12:04:25Z</time></trkpt>
<trkpt lat="46.33960724" lon="7.00737095"><ele>1259.182983</ele><time>2009-09-26T12:04:33Z</time></trkpt>
<trkpt lat="46.33977509" lon="7.00770092"><ele>1260.410034</ele><time>2009-09-26T12:04:42Z</time></trkpt>
<trkpt lat="46.33989716" lon="7.00795984"><ele>1261.402954</ele><time>2009-09-26T12:04:49Z</time></trkpt>
<trkpt lat="46.34001160" lon="7.00819921"><ele>1261.227051</ele><time>2009-09-26T12:04:55Z</time></trkpt>
<trkpt lat="46.34019470" lon="7.00844717"><ele>1260.057007</ele><time>2009-09-26T12:05:01Z</time></trkpt>
<trkpt lat="46.34037781" lon="7.00884199"><ele>1259.011963</ele><time>2009-09-26T12:05:07Z</time></trkpt>
<trkpt lat="46.34057999" lon="7.00923014"><ele>1256.474976</ele><time>2009-09-26T12:05:12Z</time></trkpt>
<trkpt lat="46.34074020" lon="7.00951099"><ele>1254.381958</ele><time>2009-09-26T12:05:15Z</time></trkpt>
<trkpt lat="46.34097290" lon="7.00991488"><ele>1252.520996</ele><time>2009-09-26T12:05:19Z</time></trkpt>
<trkpt lat="46.34113312" lon="7.01034117"><ele>1251.732056</ele><time>2009-09-26T12:05:23Z</time></trkpt>
<trkpt lat="46.34116364" lon="7.01077986"><ele>1251.203979</ele><time>2009-09-26T12:05:28Z</time></trkpt>
<trkpt lat="46.34118652" lon="7.01126480"><ele>1251.254028</ele><time>2009-09-26T12:05:35Z</time></trkpt>
<trkpt lat="46.34120178" lon="7.01166821"><ele>1252.328003</ele><time>2009-09-26T12:05:42Z</time></trkpt>
<trkpt lat="46.34122849" lon="7.01201677"><ele>1252.760986</ele><time>2009-09-26T12:05:49Z</time></trkpt>
<trkpt lat="46.34126282" lon="7.01215696"><ele>1252.553955</ele><time>2009-09-26T12:05:54Z</time></trkpt>
<trkpt lat="46.34128952" lon="7.01227093"><ele>1253.104004</ele><time>2009-09-26T12:06:00Z</time></trkpt>
<trkpt lat="46.34130096" lon="7.01231909"><ele>1253.324951</ele><time>2009-09-26T12:06:03Z</time></trkpt>
<trkpt lat="46.34132767" lon="7.01238680"><ele>1253.784058</ele><time>2009-09-26T12:06:09Z</time></trkpt>
<trkpt lat="46.34134293" lon="7.01246500"><ele>1253.678955</ele><time>2009-09-26T12:06:12Z</time></trkpt>
<trkpt lat="46.34141541" lon="7.01237488"><ele>1254.240967</ele><time>2009-09-26T12:06:20Z</time></trkpt>
<trkpt lat="46.34149933" lon="7.01237202"><ele>1255.529053</ele><time>2009-09-26T12:06:26Z</time></trkpt>
<trkpt lat="46.34161758" lon="7.01239300"><ele>1257.134033</ele><time>2009-09-26T12:06:33Z</time></trkpt>
<trkpt lat="46.34164810" lon="7.01240110"><ele>1257.390015</ele><time>2009-09-26T12:06:35Z</time></trkpt>
<trkpt lat="46.34170532" lon="7.01242685"><ele>1257.510986</ele><time>2009-09-26T12:06:38Z</time></trkpt>
<trkpt lat="46.34181595" lon="7.01254320"><ele>1259.82605</ele><time>2009-09-26T12:06:47Z</time></trkpt>
<trkpt lat="46.34188843" lon="7.01264477"><ele>1261.11499</ele><time>2009-09-26T12:06:55Z</time></trkpt>
<trkpt lat="46.34189987" lon="7.01265812"><ele>1261.102051</ele><time>2009-09-26T12:06:56Z</time></trkpt>
<trkpt lat="46.34194946" lon="7.01271582"><ele>1261.447021</ele><time>2009-09-26T12:07:03Z</time></trkpt>
<trkpt lat="46.34201813" lon="7.01276398"><ele>1262.55896</ele><time>2009-09-26T12:07:10Z</time></trkpt>
<trkpt lat="46.34209442" lon="7.01281881"><ele>1263.928955</ele><time>2009-09-26T12:07:17Z</time></trkpt>
<trkpt lat="46.34214401" lon="7.01285315"><ele>1264.85498</ele><time>2009-09-26T12:07:21Z</time></trkpt>
<trkpt lat="46.34225845" lon="7.01293278"><ele>1267.793945</ele><time>2009-09-26T12:07:30Z</time></trkpt>
<trkpt lat="46.34232330" lon="7.01297808"><ele>1268.470947</ele><time>2009-09-26T12:07:35Z</time></trkpt>
<trkpt lat="46.34242249" lon="7.01316309"><ele>1268.975952</ele><time>2009-09-26T12:07:43Z</time></trkpt>
<trkpt lat="46.34250259" lon="7.01312780"><ele>1269.224976</ele><time>2009-09-26T12:07:52Z</time></trkpt>
<trkpt lat="46.34260559" lon="7.01318693"><ele>1271.499023</ele><time>2009-09-26T12:07:59Z</time></trkpt>
<trkpt lat="46.34268188" lon="7.01324606"><ele>1273.126953</ele><time>2009-09-26T12:08:06Z</time></trkpt>
<trkpt lat="46.34275818" lon="7.01331282"><ele>1273.428955</ele><time>2009-09-26T12:08:13Z</time></trkpt>
<trkpt lat="46.34285355" lon="7.01331902"><ele>1274.206055</ele><time>2009-09-26T12:08:22Z</time></trkpt>
<trkpt lat="46.34290314" lon="7.01329422"><ele>1277.192993</ele><time>2009-09-26T12:08:28Z</time></trkpt>
<trkpt lat="46.34293747" lon="7.01325893"><ele>1278.807007</ele><time>2009-09-26T12:08:31Z</time></trkpt>
<trkpt lat="46.34295654" lon="7.01322794"><ele>1278.953979</ele><time>2009-09-26T12:08:36Z</time></trkpt>
<trkpt lat="46.34294891" lon="7.01324701"><ele>1278.427002</ele><time>2009-09-26T12:08:44Z</time></trkpt>
<trkpt lat="46.34294891" lon="7.01324701"><ele>1278.274048</ele><time>2009-09-26T12:08:45Z</time></trkpt>
<trkpt lat="46.34297562" lon="7.01291180"><ele>1280.602051</ele><time>2009-09-26T12:08:56Z</time></trkpt>
<trkpt lat="46.34299469" lon="7.01279497"><ele>1281.011963</ele><time>2009-09-26T12:09:03Z</time></trkpt>
<trkpt lat="46.34306335" lon="7.01272821"><ele>1281.28894</ele><time>2009-09-26T12:09:09Z</time></trkpt>
<trkpt lat="46.34318924" lon="7.01269913"><ele>1281.621948</ele><time>2009-09-26T12:09:17Z</time></trkpt>
<trkpt lat="46.34328079" lon="7.01273918"><ele>1285.062012</ele><time>2009-09-26T12:09:24Z</time></trkpt>
<trkpt lat="46.34340668" lon="7.01286507"><ele>1287.139038</ele><time>2009-09-26T12:09:32Z</time></trkpt>
<trkpt lat="46.34348297" lon="7.01296616"><ele>1287.207031</ele><time>2009-09-26T12:09:38Z</time></trkpt>
<trkpt lat="46.34349442" lon="7.01298189"><ele>1286.860962</ele><time>2009-09-26T12:09:39Z</time></trkpt>
<trkpt lat="46.34358215" lon="7.01310015"><ele>1286.858032</ele><time>2009-09-26T12:09:47Z</time></trkpt>
<trkpt lat="46.34368896" lon="7.01325703"><ele>1289.468018</ele><time>2009-09-26T12:09:56Z</time></trkpt>
<trkpt lat="46.34377670" lon="7.01339912"><ele>1291.563965</ele><time>2009-09-26T12:10:04Z</time></trkpt>
<trkpt lat="46.34386826" lon="7.01353312"><ele>1293.983032</ele><time>2009-09-26T12:10:14Z</time></trkpt>
<trkpt lat="46.34388733" lon="7.01355791"><ele>1293.719971</ele><time>2009-09-26T12:10:25Z</time></trkpt>
<trkpt lat="46.34392548" lon="7.01361513"><ele>1293.817017</ele><time>2009-09-26T12:10:29Z</time></trkpt>
<trkpt lat="46.34401321" lon="7.01375103"><ele>1294.624023</ele><time>2009-09-26T12:10:38Z</time></trkpt>
<trkpt lat="46.34411240" lon="7.01389980"><ele>1295.811035</ele><time>2009-09-26T12:10:47Z</time></trkpt>
<trkpt lat="46.34421539" lon="7.01405621"><ele>1297.530029</ele><time>2009-09-26T12:10:56Z</time></trkpt>
<trkpt lat="46.34430695" lon="7.01419497"><ele>1298.984985</ele><time>2009-09-26T12:11:04Z</time></trkpt>
<trkpt lat="46.34442139" lon="7.01437378"><ele>1299.296997</ele><time>2009-09-26T12:11:14Z</time></trkpt>
<trkpt lat="46.34454727" lon="7.01458883"><ele>1302.129028</ele><time>2009-09-26T12:11:25Z</time></trkpt>
<trkpt lat="46.34464264" lon="7.01475191"><ele>1303.437012</ele><time>2009-09-26T12:11:34Z</time></trkpt>
<trkpt lat="46.34475708" lon="7.01494694"><ele>1306.182983</ele><time>2009-09-26T12:11:44Z</time></trkpt>
<trkpt lat="46.34488678" lon="7.01511908"><ele>1307.098022</ele><time>2009-09-26T12:11:54Z</time></trkpt>
<trkpt lat="46.34503174" lon="7.01533890"><ele>1308.009033</ele><time>2009-09-26T12:12:06Z</time></trkpt>
<trkpt lat="46.34514618" lon="7.01551008"><ele>1309.546997</ele><time>2009-09-26T12:12:15Z</time></trkpt>
<trkpt lat="46.34527969" lon="7.01567698"><ele>1312.098022</ele><time>2009-09-26T12:12:24Z</time></trkpt>
<trkpt lat="46.34542084" lon="7.01585722"><ele>1313.248047</ele><time>2009-09-26T12:12:34Z</time></trkpt>
<trkpt lat="46.34553146" lon="7.01599884"><ele>1313.131958</ele><time>2009-09-26T12:12:42Z</time></trkpt>
<trkpt lat="46.34563065" lon="7.01618099"><ele>1316.588013</ele><time>2009-09-26T12:12:50Z</time></trkpt>
<trkpt lat="46.34574509" lon="7.01631308"><ele>1319.286011</ele><time>2009-09-26T12:12:58Z</time></trkpt>
<trkpt lat="46.34584045" lon="7.01642799"><ele>1320.990967</ele><time>2009-09-26T12:13:05Z</time></trkpt>
<trkpt lat="46.34593201" lon="7.01657009"><ele>1320.814941</ele><time>2009-09-26T12:13:12Z</time></trkpt>
<trkpt lat="46.34603882" lon="7.01668215"><ele>1320.751953</ele><time>2009-09-26T12:13:18Z</time></trkpt>
<trkpt lat="46.34613800" lon="7.01681089"><ele>1322.636963</ele><time>2009-09-26T12:13:24Z</time></trkpt>
<trkpt lat="46.34624481" lon="7.01697493"><ele>1321.61499</ele><time>2009-09-26T12:13:31Z</time></trkpt>
<trkpt lat="46.34640121" lon="7.01716614"><ele>1319.901001</ele><time>2009-09-26T12:13:39Z</time></trkpt>
<trkpt lat="46.34648895" lon="7.01729679"><ele>1318.457031</ele><time>2009-09-26T12:13:46Z</time></trkpt>
<trkpt lat="46.34659195" lon="7.01744795"><ele>1317.213989</ele><time>2009-09-26T12:13:54Z</time></trkpt>
<trkpt lat="46.34671783" lon="7.01761103"><ele>1315.984009</ele><time>2009-09-26T12:14:00Z</time></trkpt>
<trkpt lat="46.34668350" lon="7.01806211"><ele>1315.480957</ele><time>2009-09-26T12:14:05Z</time></trkpt>
<trkpt lat="46.34691620" lon="7.01833582"><ele>1314.947021</ele><time>2009-09-26T12:14:14Z</time></trkpt>
<trkpt lat="46.34717560" lon="7.01866102"><ele>1314.685059</ele><time>2009-09-26T12:14:21Z</time></trkpt>
<trkpt lat="46.34745026" lon="7.01834822"><ele>1314.339966</ele><time>2009-09-26T12:14:23Z</time></trkpt>
<trkpt lat="46.34764862" lon="7.01847076"><ele>1314.204956</ele><time>2009-09-26T12:14:29Z</time></trkpt>
<trkpt lat="46.34794235" lon="7.01868486"><ele>1314.435059</ele><time>2009-09-26T12:14:39Z</time></trkpt>
<trkpt lat="46.34815216" lon="7.01880789"><ele>1314.890991</ele><time>2009-09-26T12:14:46Z</time></trkpt>
<trkpt lat="46.34840393" lon="7.01892519"><ele>1316.104004</ele><time>2009-09-26T12:14:54Z</time></trkpt>
<trkpt lat="46.34862518" lon="7.01899815"><ele>1318.072021</ele><time>2009-09-26T12:15:01Z</time></trkpt>
<trkpt lat="46.34887314" lon="7.01912498"><ele>1320.421997</ele><time>2009-09-26T12:15:09Z</time></trkpt>
<trkpt lat="46.34914017" lon="7.01929379"><ele>1321.421997</ele><time>2009-09-26T12:15:18Z</time></trkpt>
<trkpt lat="46.34935379" lon="7.01947308"><ele>1321.70105</ele><time>2009-09-26T12:15:27Z</time></trkpt>
<trkpt lat="46.34936905" lon="7.01948690"><ele>1321.756958</ele><time>2009-09-26T12:15:28Z</time></trkpt>
<trkpt lat="46.34938431" lon="7.01950502"><ele>1321.682007</ele><time>2009-09-26T12:15:31Z</time></trkpt>
<trkpt lat="46.34953308" lon="7.01959801"><ele>1321.410034</ele><time>2009-09-26T12:18:11Z</time></trkpt>
<trkpt lat="46.34975052" lon="7.01977301"><ele>1320.609009</ele><time>2009-09-26T12:18:18Z</time></trkpt>
<trkpt lat="46.34993744" lon="7.01992416"><ele>1319.626953</ele><time>2009-09-26T12:18:23Z</time></trkpt>
<trkpt lat="46.35023117" lon="7.02017879"><ele>1318.321045</ele><time>2009-09-26T12:18:30Z</time></trkpt>
<trkpt lat="46.35041428" lon="7.02038193"><ele>1317.848999</ele><time>2009-09-26T12:18:35Z</time></trkpt>
<trkpt lat="46.35065460" lon="7.02059603"><ele>1318.067017</ele><time>2009-09-26T12:18:42Z</time></trkpt>
<trkpt lat="46.35087585" lon="7.02076387"><ele>1318.647949</ele><time>2009-09-26T12:18:49Z</time></trkpt>
<trkpt lat="46.35112381" lon="7.02094316"><ele>1318.973022</ele><time>2009-09-26T12:18:56Z</time></trkpt>
<trkpt lat="46.35123825" lon="7.02103090"><ele>1318.93103</ele><time>2009-09-26T12:18:59Z</time></trkpt>
<trkpt lat="46.35146332" lon="7.02129602"><ele>1319.213989</ele><time>2009-09-26T12:19:06Z</time></trkpt>
<trkpt lat="46.35166931" lon="7.02162313"><ele>1319.859009</ele><time>2009-09-26T12:19:14Z</time></trkpt>
<trkpt lat="46.35178375" lon="7.02179098"><ele>1320.120972</ele><time>2009-09-26T12:19:20Z</time></trkpt>
<trkpt lat="46.35191727" lon="7.02193308"><ele>1321.666992</ele><time>2009-09-26T12:19:26Z</time></trkpt>
<trkpt lat="46.35207367" lon="7.02208614"><ele>1323.83606</ele><time>2009-09-26T12:19:33Z</time></trkpt>
<trkpt lat="46.35213470" lon="7.02213907"><ele>1325.100952</ele><time>2009-09-26T12:19:37Z</time></trkpt>
<trkpt lat="46.35202789" lon="7.02233410"><ele>1325.349976</ele><time>2009-09-26T12:19:42Z</time></trkpt>
<trkpt lat="46.35200119" lon="7.02237415"><ele>1324.932007</ele><time>2009-09-26T12:19:43Z</time></trkpt>
<trkpt lat="46.35190201" lon="7.02256584"><ele>1323.567993</ele><time>2009-09-26T12:19:46Z</time></trkpt>
<trkpt lat="46.35187531" lon="7.02287292"><ele>1322.822021</ele><time>2009-09-26T12:19:50Z</time></trkpt>
<trkpt lat="46.35192108" lon="7.02308702"><ele>1322.578979</ele><time>2009-09-26T12:19:55Z</time></trkpt>
<trkpt lat="46.35181046" lon="7.02326298"><ele>1320.546021</ele><time>2009-09-26T12:20:00Z</time></trkpt>
<trkpt lat="46.35146713" lon="7.02359676"><ele>1311.937988</ele><time>2009-09-26T12:20:06Z</time></trkpt>
<trkpt lat="46.35132980" lon="7.02373409"><ele>1308.015991</ele><time>2009-09-26T12:20:09Z</time></trkpt>
<trkpt lat="46.35123062" lon="7.02382278"><ele>1305.350952</ele><time>2009-09-26T12:20:12Z</time></trkpt>
<trkpt lat="46.35119247" lon="7.02370691"><ele>1303.939941</ele><time>2009-09-26T12:20:16Z</time></trkpt>
<trkpt lat="46.35109711" lon="7.02333403"><ele>1302.842041</ele><time>2009-09-26T12:20:22Z</time></trkpt>
<trkpt lat="46.35096359" lon="7.02283287"><ele>1301.359009</ele><time>2009-09-26T12:20:28Z</time></trkpt>
<trkpt lat="46.35092926" lon="7.02275801"><ele>1301.311035</ele><time>2009-09-26T12:20:29Z</time></trkpt>
<trkpt lat="46.35061646" lon="7.02230978"><ele>1299.607056</ele><time>2009-09-26T12:20:36Z</time></trkpt>
<trkpt lat="46.35007477" lon="7.02187300"><ele>1298.489014</ele><time>2009-09-26T12:20:45Z</time></trkpt>
<trkpt lat="46.34984970" lon="7.02170181"><ele>1298.06897</ele><time>2009-09-26T12:20:49Z</time></trkpt>
<trkpt lat="46.34962463" lon="7.02150822"><ele>1296.113037</ele><time>2009-09-26T12:20:52Z</time></trkpt>
<trkpt lat="46.34968185" lon="7.02192211"><ele>1295.241943</ele><time>2009-09-26T12:20:54Z</time></trkpt>
<trkpt lat="46.34972763" lon="7.02235413"><ele>1292.975952</ele><time>2009-09-26T12:20:58Z</time></trkpt>
<trkpt lat="46.34991837" lon="7.02280378"><ele>1289.280029</ele><time>2009-09-26T12:21:02Z</time></trkpt>
<trkpt lat="46.34991074" lon="7.02303123"><ele>1287.608032</ele><time>2009-09-26T12:21:04Z</time></trkpt>
<trkpt lat="46.34980392" lon="7.02319813"><ele>1285.858032</ele><time>2009-09-26T12:21:06Z</time></trkpt>
<trkpt lat="46.34966278" lon="7.02350283"><ele>1282.922974</ele><time>2009-09-26T12:21:09Z</time></trkpt>
<trkpt lat="46.34964752" lon="7.02364111"><ele>1281.956055</ele><time>2009-09-26T12:21:10Z</time></trkpt>
<trkpt lat="46.34962463" lon="7.02421999"><ele>1278.035034</ele><time>2009-09-26T12:21:14Z</time></trkpt>
<trkpt lat="46.34952164" lon="7.02447510"><ele>1274.834961</ele><time>2009-09-26T12:21:17Z</time></trkpt>
<trkpt lat="46.34939575" lon="7.02469397"><ele>1272.873047</ele><time>2009-09-26T12:21:19Z</time></trkpt>
<trkpt lat="46.34939575" lon="7.02499914"><ele>1270.198975</ele><time>2009-09-26T12:21:22Z</time></trkpt>
<trkpt lat="46.34944534" lon="7.02522707"><ele>1268.880005</ele><time>2009-09-26T12:21:24Z</time></trkpt>
<trkpt lat="46.34970474" lon="7.02614307"><ele>1263.307983</ele><time>2009-09-26T12:21:31Z</time></trkpt>
<trkpt lat="46.34977722" lon="7.02641201"><ele>1262.18103</ele><time>2009-09-26T12:21:34Z</time></trkpt>
<trkpt lat="46.34989929" lon="7.02684212"><ele>1260.494995</ele><time>2009-09-26T12:21:40Z</time></trkpt>
<trkpt lat="46.35003662" lon="7.02719021"><ele>1259.144043</ele><time>2009-09-26T12:21:45Z</time></trkpt>
<trkpt lat="46.35006714" lon="7.02725697"><ele>1258.770996</ele><time>2009-09-26T12:21:46Z</time></trkpt>
<trkpt lat="46.35025787" lon="7.02768803"><ele>1254.97998</ele><time>2009-09-26T12:21:51Z</time></trkpt>
<trkpt lat="46.35047913" lon="7.02815294"><ele>1250.697021</ele><time>2009-09-26T12:21:55Z</time></trkpt>
<trkpt lat="46.35066223" lon="7.02848196"><ele>1247.649048</ele><time>2009-09-26T12:21:58Z</time></trkpt>
<trkpt lat="46.35085678" lon="7.02866793"><ele>1245.245972</ele><time>2009-09-26T12:22:02Z</time></trkpt>
<trkpt lat="46.35094452" lon="7.02878380"><ele>1244.477051</ele><time>2009-09-26T12:22:05Z</time></trkpt>
<trkpt lat="46.35092926" lon="7.02890301"><ele>1244.014038</ele><time>2009-09-26T12:22:09Z</time></trkpt>
<trkpt lat="46.35092926" lon="7.02890205"><ele>1243.975952</ele><time>2009-09-26T12:22:10Z</time></trkpt>
<trkpt lat="46.35076523" lon="7.02889013"><ele>1242.973022</ele><time>2009-09-26T12:22:25Z</time></trkpt>
<trkpt lat="46.35043335" lon="7.02883816"><ele>1239.869995</ele><time>2009-09-26T12:22:31Z</time></trkpt>
<trkpt lat="46.35002136" lon="7.02873993"><ele>1235.831055</ele><time>2009-09-26T12:22:36Z</time></trkpt>
<trkpt lat="46.34992981" lon="7.02873993"><ele>1234.98999</ele><time>2009-09-26T12:22:37Z</time></trkpt>
<trkpt lat="46.34957123" lon="7.02888680"><ele>1231.614014</ele><time>2009-09-26T12:22:41Z</time></trkpt>
<trkpt lat="46.34948730" lon="7.02894592"><ele>1230.831055</ele><time>2009-09-26T12:22:43Z</time></trkpt>
<trkpt lat="46.34935379" lon="7.02898788"><ele>1230.28894</ele><time>2009-09-26T12:22:49Z</time></trkpt>
<trkpt lat="46.34920502" lon="7.02899694"><ele>1230.02002</ele><time>2009-09-26T12:22:53Z</time></trkpt>
<trkpt lat="46.34893036" lon="7.02886009"><ele>1229.417969</ele><time>2009-09-26T12:22:59Z</time></trkpt>
<trkpt lat="46.34858704" lon="7.02861977"><ele>1228.146973</ele><time>2009-09-26T12:23:07Z</time></trkpt>
<trkpt lat="46.34841919" lon="7.02850389"><ele>1227.772949</ele><time>2009-09-26T12:23:11Z</time></trkpt>
<trkpt lat="46.34817886" lon="7.02851820"><ele>1226.97998</ele><time>2009-09-26T12:23:16Z</time></trkpt>
<trkpt lat="46.34810257" lon="7.02863121"><ele>1226.437012</ele><time>2009-09-26T12:23:18Z</time></trkpt>
<trkpt lat="46.34794235" lon="7.02879286"><ele>1226.292969</ele><time>2009-09-26T12:23:23Z</time></trkpt>
<trkpt lat="46.34767532" lon="7.02874422"><ele>1228.671997</ele><time>2009-09-26T12:23:31Z</time></trkpt>
<trkpt lat="46.34743118" lon="7.02859592"><ele>1230.635986</ele><time>2009-09-26T12:23:39Z</time></trkpt>
<trkpt lat="46.34725952" lon="7.02841520"><ele>1231.202026</ele><time>2009-09-26T12:23:45Z</time></trkpt>
<trkpt lat="46.34706497" lon="7.02814293"><ele>1230.780029</ele><time>2009-09-26T12:23:52Z</time></trkpt>
<trkpt lat="46.34687042" lon="7.02776814"><ele>1230.805054</ele><time>2009-09-26T12:24:00Z</time></trkpt>
<trkpt lat="46.34663773" lon="7.02736092"><ele>1230.302002</ele><time>2009-09-26T12:24:08Z</time></trkpt>
<trkpt lat="46.34637833" lon="7.02699518"><ele>1229.708984</ele><time>2009-09-26T12:24:16Z</time></trkpt>
<trkpt lat="46.34626770" lon="7.02685595"><ele>1228.973999</ele><time>2009-09-26T12:24:19Z</time></trkpt>
<trkpt lat="46.34614563" lon="7.02675676"><ele>1228.125977</ele><time>2009-09-26T12:24:21Z</time></trkpt>
<trkpt lat="46.34614944" lon="7.02676010"><ele>1227.275024</ele><time>2009-09-26T12:24:24Z</time></trkpt>
<trkpt lat="46.34615707" lon="7.02688313"><ele>1226.686035</ele><time>2009-09-26T12:24:26Z</time></trkpt>
<trkpt lat="46.34621429" lon="7.02743196"><ele>1224.766968</ele><time>2009-09-26T12:24:32Z</time></trkpt>
<trkpt lat="46.34632111" lon="7.02821493"><ele>1222.131958</ele><time>2009-09-26T12:24:39Z</time></trkpt>
<trkpt lat="46.34651566" lon="7.02876806"><ele>1220.123047</ele><time>2009-09-26T12:24:44Z</time></trkpt>
<trkpt lat="46.34667969" lon="7.02907896"><ele>1218.970947</ele><time>2009-09-26T12:24:47Z</time></trkpt>
<trkpt lat="46.34686279" lon="7.02939177"><ele>1217.831055</ele><time>2009-09-26T12:24:50Z</time></trkpt>
<trkpt lat="46.34737015" lon="7.02999878"><ele>1215.479004</ele><time>2009-09-26T12:24:57Z</time></trkpt>
<trkpt lat="46.34741974" lon="7.03005123"><ele>1215.167969</ele><time>2009-09-26T12:24:58Z</time></trkpt>
<trkpt lat="46.34735870" lon="7.03034019"><ele>1213.032959</ele><time>2009-09-26T12:25:02Z</time></trkpt>
<trkpt lat="46.34704971" lon="7.03090000"><ele>1209.897949</ele><time>2009-09-26T12:25:08Z</time></trkpt>
<trkpt lat="46.34701920" lon="7.03100109"><ele>1209.708984</ele><time>2009-09-26T12:25:09Z</time></trkpt>
<trkpt lat="46.34700012" lon="7.03127098"><ele>1209.526978</ele><time>2009-09-26T12:25:13Z</time></trkpt>
<trkpt lat="46.34702682" lon="7.03139496"><ele>1211.762939</ele><time>2009-09-26T12:25:16Z</time></trkpt>
<trkpt lat="46.34709549" lon="7.03158283"><ele>1213.551025</ele><time>2009-09-26T12:25:20Z</time></trkpt>
<trkpt lat="46.34727478" lon="7.03187799"><ele>1212.411011</ele><time>2009-09-26T12:25:24Z</time></trkpt>
<trkpt lat="46.34745026" lon="7.03225422"><ele>1211.314941</ele><time>2009-09-26T12:25:27Z</time></trkpt>
<trkpt lat="46.34745789" lon="7.03255892"><ele>1207.859009</ele><time>2009-09-26T12:25:30Z</time></trkpt>
<trkpt lat="46.34737015" lon="7.03274488"><ele>1205.949951</ele><time>2009-09-26T12:25:33Z</time></trkpt>
<trkpt lat="46.34728622" lon="7.03283691"><ele>1202.546021</ele><time>2009-09-26T12:25:35Z</time></trkpt>
<trkpt lat="46.34707260" lon="7.03295183"><ele>1199.594971</ele><time>2009-09-26T12:25:38Z</time></trkpt>
<trkpt lat="46.34664536" lon="7.03313684"><ele>1195.807983</ele><time>2009-09-26T12:25:43Z</time></trkpt>
<trkpt lat="46.34644318" lon="7.03328180"><ele>1195.473999</ele><time>2009-09-26T12:25:46Z</time></trkpt>
<trkpt lat="46.34613037" lon="7.03349304"><ele>1192.029053</ele><time>2009-09-26T12:25:50Z</time></trkpt>
<trkpt lat="46.34574890" lon="7.03376007"><ele>1187.447998</ele><time>2009-09-26T12:25:54Z</time></trkpt>
<trkpt lat="46.34520340" lon="7.03406715"><ele>1178.646973</ele><time>2009-09-26T12:25:59Z</time></trkpt>
<trkpt lat="46.34500885" lon="7.03417921"><ele>1175.797974</ele><time>2009-09-26T12:26:01Z</time></trkpt>
<trkpt lat="46.34477234" lon="7.03421116"><ele>1169.687988</ele><time>2009-09-26T12:26:05Z</time></trkpt>
<trkpt lat="46.34477234" lon="7.03421116"><ele>1162.31604</ele><time>2009-09-26T12:26:09Z</time></trkpt>
<trkpt lat="46.34477234" lon="7.03421116"><ele>1157.463989</ele><time>2009-09-26T12:26:12Z</time></trkpt>
<trkpt lat="46.34477234" lon="7.03421116"><ele>1156.641968</ele><time>2009-09-26T12:26:13Z</time></trkpt>
<trkpt lat="46.34387970" lon="7.03317499"><ele>1150.38501</ele><time>2009-09-26T12:26:18Z</time></trkpt>
<trkpt lat="46.34383011" lon="7.03311682"><ele>1147.04895</ele><time>2009-09-26T12:26:22Z</time></trkpt>
<trkpt lat="46.34383011" lon="7.03311682"><ele>1147.060059</ele><time>2009-09-26T12:26:26Z</time></trkpt>
<trkpt lat="46.34383011" lon="7.03311682"><ele>1150.187012</ele><time>2009-09-26T12:26:55Z</time></trkpt>
<trkpt lat="46.34384155" lon="7.03313017"><ele>1149.791992</ele><time>2009-09-26T12:27:03Z</time></trkpt>
<trkpt lat="46.34387589" lon="7.03317022"><ele>1150.087036</ele><time>2009-09-26T12:27:07Z</time></trkpt>
<trkpt lat="46.34388351" lon="7.03318119"><ele>1150.276978</ele><time>2009-09-26T12:27:09Z</time></trkpt>
<trkpt lat="46.34396362" lon="7.03327322"><ele>1153.020996</ele><time>2009-09-26T12:27:17Z</time></trkpt>
<trkpt lat="46.34402084" lon="7.03333616"><ele>1155.907959</ele><time>2009-09-26T12:27:22Z</time></trkpt>
<trkpt lat="46.34403610" lon="7.03336000"><ele>1157.064941</ele><time>2009-09-26T12:27:24Z</time></trkpt>
<trkpt lat="46.34405136" lon="7.03338194"><ele>1158.087036</ele><time>2009-09-26T12:27:26Z</time></trkpt>
<trkpt lat="46.34408569" lon="7.03343105"><ele>1158.237061</ele><time>2009-09-26T12:27:29Z</time></trkpt>
<trkpt lat="46.34417343" lon="7.03355503"><ele>1159.468994</ele><time>2009-09-26T12:27:37Z</time></trkpt>
<trkpt lat="46.34427261" lon="7.03369904"><ele>1159.892944</ele><time>2009-09-26T12:27:46Z</time></trkpt>
<trkpt lat="46.34436035" lon="7.03382921"><ele>1161.010986</ele><time>2009-09-26T12:27:55Z</time></trkpt>
<trkpt lat="46.34442520" lon="7.03392601"><ele>1162.090942</ele><time>2009-09-26T12:28:03Z</time></trkpt>
<trkpt lat="46.34448624" lon="7.03399801"><ele>1164.121948</ele><time>2009-09-26T12:28:10Z</time></trkpt>
<trkpt lat="46.34452438" lon="7.03403997"><ele>1164.953979</ele><time>2009-09-26T12:28:14Z</time></trkpt>
<trkpt lat="46.34455872" lon="7.03408194"><ele>1165.79895</ele><time>2009-09-26T12:28:21Z</time></trkpt>
<trkpt lat="46.34458542" lon="7.03410196"><ele>1166.723022</ele><time>2009-09-26T12:28:32Z</time></trkpt>
<trkpt lat="46.34458160" lon="7.03410006"><ele>1166.06897</ele><time>2009-09-26T12:28:38Z</time></trkpt>
<trkpt lat="46.34458160" lon="7.03410006"><ele>1165.953979</ele><time>2009-09-26T12:28:39Z</time></trkpt>
<trkpt lat="46.34455872" lon="7.03408194"><ele>1166.456055</ele><time>2009-09-26T12:28:52Z</time></trkpt>
<trkpt lat="46.34452820" lon="7.03419018"><ele>1165.319946</ele><time>2009-09-26T12:28:59Z</time></trkpt>
<trkpt lat="46.34457016" lon="7.03409004"><ele>1163.626953</ele><time>2009-09-26T12:29:05Z</time></trkpt>
<trkpt lat="46.34459686" lon="7.03411102"><ele>1162.712036</ele><time>2009-09-26T12:29:09Z</time></trkpt>
<trkpt lat="46.34459686" lon="7.03411102"><ele>1162.828003</ele><time>2009-09-26T12:29:10Z</time></trkpt>
<trkpt lat="46.34453201" lon="7.03420591"><ele>1167.207031</ele><time>2009-09-26T12:29:39Z</time></trkpt>
<trkpt lat="46.34453964" lon="7.03419113"><ele>1167.605957</ele><time>2009-09-26T12:29:41Z</time></trkpt>
<trkpt lat="46.34465790" lon="7.03416204"><ele>1169.425049</ele><time>2009-09-26T12:29:50Z</time></trkpt>
<trkpt lat="46.34473419" lon="7.03419495"><ele>1170.895996</ele><time>2009-09-26T12:29:58Z</time></trkpt>
<trkpt lat="46.34483337" lon="7.03425789"><ele>1172.491943</ele><time>2009-09-26T12:30:06Z</time></trkpt>
<trkpt lat="46.34486008" lon="7.03427982"><ele>1174.391968</ele><time>2009-09-26T12:30:12Z</time></trkpt>
<trkpt lat="46.34480286" lon="7.03423405"><ele>1170.590942</ele><time>2009-09-26T12:31:08Z</time></trkpt>
<trkpt lat="46.34478378" lon="7.03422022"><ele>1170.453003</ele><time>2009-09-26T12:31:09Z</time></trkpt>
<trkpt lat="46.34477234" lon="7.03421116"><ele>1171.155029</ele><time>2009-09-26T12:31:12Z</time></trkpt>
<trkpt lat="46.34477234" lon="7.03421116"><ele>1168.389038</ele><time>2009-09-26T12:31:17Z</time></trkpt>
<trkpt lat="46.34477234" lon="7.03421116"><ele>1166.265015</ele><time>2009-09-26T12:31:22Z</time></trkpt>
<trkpt lat="46.34477234" lon="7.03421116"><ele>1163.717041</ele><time>2009-09-26T12:31:29Z</time></trkpt>
<trkpt lat="46.34477234" lon="7.03421116"><ele>1163.479004</ele><time>2009-09-26T12:31:33Z</time></trkpt>
<trkpt lat="46.34477234" lon="7.03421116"><ele>1161.358032</ele><time>2009-09-26T12:31:41Z</time></trkpt>
<trkpt lat="46.34477234" lon="7.03421116"><ele>1161.248047</ele><time>2009-09-26T12:31:43Z</time></trkpt>
<trkpt lat="46.34477234" lon="7.03421116"><ele>1160.203003</ele><time>2009-09-26T12:31:48Z</time></trkpt>
<trkpt lat="46.34477234" lon="7.03421116"><ele>1160.005981</ele><time>2009-09-26T12:31:51Z</time></trkpt>
<trkpt lat="46.34477234" lon="7.03421116"><ele>1159.661011</ele><time>2009-09-26T12:31:57Z</time></trkpt>
<trkpt lat="46.34481430" lon="7.03424215"><ele>1159.598022</ele><time>2009-09-26T12:32:07Z</time></trkpt>
<trkpt lat="46.34486771" lon="7.03428698"><ele>1158.003052</ele><time>2009-09-26T12:32:11Z</time></trkpt>
<trkpt lat="46.34488297" lon="7.03429699"><ele>1157.015991</ele><time>2009-09-26T12:32:14Z</time></trkpt>
<trkpt lat="46.34497070" lon="7.03432608"><ele>1154.854004</ele><time>2009-09-26T12:32:20Z</time></trkpt>
<trkpt lat="46.34504318" lon="7.03435278"><ele>1153.150024</ele><time>2009-09-26T12:32:24Z</time></trkpt>
<trkpt lat="46.34510803" lon="7.03437805"><ele>1150.729004</ele><time>2009-09-26T12:32:29Z</time></trkpt>
<trkpt lat="46.34522247" lon="7.03442287"><ele>1150.844971</ele><time>2009-09-26T12:32:35Z</time></trkpt>
<trkpt lat="46.34523392" lon="7.03442717"><ele>1151.302002</ele><time>2009-09-26T12:32:38Z</time></trkpt>
<trkpt lat="46.34530258" lon="7.03445387"><ele>1153.837036</ele><time>2009-09-26T12:32:44Z</time></trkpt>
<trkpt lat="46.34538651" lon="7.03448582"><ele>1153.228027</ele><time>2009-09-26T12:32:50Z</time></trkpt>
<trkpt lat="46.34544754" lon="7.03450680"><ele>1152.229004</ele><time>2009-09-26T12:32:54Z</time></trkpt>
<trkpt lat="46.34557343" lon="7.03454924"><ele>1149.906982</ele><time>2009-09-26T12:33:00Z</time></trkpt>
<trkpt lat="46.34565735" lon="7.03457689"><ele>1150.594971</ele><time>2009-09-26T12:33:04Z</time></trkpt>
<trkpt lat="46.34572601" lon="7.03459597"><ele>1150.666992</ele><time>2009-09-26T12:33:06Z</time></trkpt>
<trkpt lat="46.34592819" lon="7.03465414"><ele>1151.269043</ele><time>2009-09-26T12:33:11Z</time></trkpt>
<trkpt lat="46.34595490" lon="7.03466177"><ele>1150.484009</ele><time>2009-09-26T12:33:12Z</time></trkpt>
<trkpt lat="46.34617615" lon="7.03471994"><ele>1147.478027</ele><time>2009-09-26T12:33:17Z</time></trkpt>
<trkpt lat="46.34646606" lon="7.03477907"><ele>1143.310059</ele><time>2009-09-26T12:33:22Z</time></trkpt>
<trkpt lat="46.34658051" lon="7.03495502"><ele>1137.938965</ele><time>2009-09-26T12:33:26Z</time></trkpt>
<trkpt lat="46.34659195" lon="7.03498793"><ele>1137.244019</ele><time>2009-09-26T12:33:27Z</time></trkpt>
<trkpt lat="46.34661865" lon="7.03506994"><ele>1132.985962</ele><time>2009-09-26T12:33:30Z</time></trkpt>
<trkpt lat="46.34696198" lon="7.03629303"><ele>1126.061035</ele><time>2009-09-26T12:33:34Z</time></trkpt>
<trkpt lat="46.34671021" lon="7.03557396"><ele>1115.265015</ele><time>2009-09-26T12:33:39Z</time></trkpt>
<trkpt lat="46.34672165" lon="7.03561115"><ele>1102.834961</ele><time>2009-09-26T12:33:45Z</time></trkpt>
<trkpt lat="46.34693909" lon="7.03629780"><ele>1095.902954</ele><time>2009-09-26T12:33:49Z</time></trkpt>
<trkpt lat="46.34676361" lon="7.03574181"><ele>1091.834961</ele><time>2009-09-26T12:33:52Z</time></trkpt>
<trkpt lat="46.34679413" lon="7.03580904"><ele>1088.644043</ele><time>2009-09-26T12:33:56Z</time></trkpt>
<trkpt lat="46.34680557" lon="7.03582716"><ele>1086.946045</ele><time>2009-09-26T12:34:01Z</time></trkpt>
<trkpt lat="46.34680557" lon="7.03582716"><ele>1089.371948</ele><time>2009-09-26T12:34:16Z</time></trkpt>
<trkpt lat="46.34680557" lon="7.03582716"><ele>1090.495972</ele><time>2009-09-26T12:34:30Z</time></trkpt>
<trkpt lat="46.34680557" lon="7.03582716"><ele>1089.878052</ele><time>2009-09-26T12:34:31Z</time></trkpt>
<trkpt lat="46.34675598" lon="7.03629684"><ele>1088.02002</ele><time>2009-09-26T12:34:38Z</time></trkpt>
<trkpt lat="46.34695053" lon="7.03612185"><ele>1080.024048</ele><time>2009-09-26T12:34:53Z</time></trkpt>
<trkpt lat="46.34698868" lon="7.03615189"><ele>1076.310059</ele><time>2009-09-26T12:34:59Z</time></trkpt>
<trkpt lat="46.34698868" lon="7.03615189"><ele>1076.046021</ele><time>2009-09-26T12:35:00Z</time></trkpt>
<trkpt lat="46.34704590" lon="7.03623486"><ele>1076.614014</ele><time>2009-09-26T12:35:12Z</time></trkpt>
<trkpt lat="46.34704590" lon="7.03623486"><ele>1076.534058</ele><time>2009-09-26T12:35:26Z</time></trkpt>
<trkpt lat="46.34706497" lon="7.03628302"><ele>1074.602051</ele><time>2009-09-26T12:35:33Z</time></trkpt>
<trkpt lat="46.34706497" lon="7.03628302"><ele>1074.473022</ele><time>2009-09-26T12:35:40Z</time></trkpt>
<trkpt lat="46.34706497" lon="7.03628302"><ele>1074.004028</ele><time>2009-09-26T12:35:42Z</time></trkpt>
<trkpt lat="46.34706497" lon="7.03628302"><ele>1072.964966</ele><time>2009-09-26T12:35:46Z</time></trkpt>
<trkpt lat="46.34713364" lon="7.03627777"><ele>1071.938965</ele><time>2009-09-26T12:35:52Z</time></trkpt>
<trkpt lat="46.34706879" lon="7.03629303"><ele>1069.703979</ele><time>2009-09-26T12:35:57Z</time></trkpt>
<trkpt lat="46.34721375" lon="7.03626108"><ele>1069.574951</ele><time>2009-09-26T12:36:01Z</time></trkpt>
<trkpt lat="46.34724808" lon="7.03625298"><ele>1068.784058</ele><time>2009-09-26T12:36:05Z</time></trkpt>
<trkpt lat="46.34732056" lon="7.03625011"><ele>1067.630005</ele><time>2009-09-26T12:36:52Z</time></trkpt>
<trkpt lat="46.34738541" lon="7.03625011"><ele>1067.234985</ele><time>2009-09-26T12:36:54Z</time></trkpt>
<trkpt lat="46.34764099" lon="7.03627014"><ele>1064.953979</ele><time>2009-09-26T12:36:59Z</time></trkpt>
<trkpt lat="46.34774780" lon="7.03628302"><ele>1063</ele><time>2009-09-26T12:37:01Z</time></trkpt>
<trkpt lat="46.34802246" lon="7.03629303"><ele>1061.051025</ele><time>2009-09-26T12:37:05Z</time></trkpt>
<trkpt lat="46.34809113" lon="7.03629303"><ele>1061.119995</ele><time>2009-09-26T12:37:06Z</time></trkpt>
<trkpt lat="46.34852600" lon="7.03622389"><ele>1057.563965</ele><time>2009-09-26T12:37:12Z</time></trkpt>
<trkpt lat="46.34900665" lon="7.03620815"><ele>1052.604004</ele><time>2009-09-26T12:37:17Z</time></trkpt>
<trkpt lat="46.34929276" lon="7.03617907"><ele>1049.647949</ele><time>2009-09-26T12:37:20Z</time></trkpt>
<trkpt lat="46.34949112" lon="7.03601789"><ele>1045.098022</ele><time>2009-09-26T12:37:25Z</time></trkpt>
<trkpt lat="46.34954453" lon="7.03597879"><ele>1045.031982</ele><time>2009-09-26T12:37:26Z</time></trkpt>
<trkpt lat="46.34961319" lon="7.03594923"><ele>1044.36499</ele><time>2009-09-26T12:37:28Z</time></trkpt>
<trkpt lat="46.34971619" lon="7.03594923"><ele>1043.69397</ele><time>2009-09-26T12:37:31Z</time></trkpt>
<trkpt lat="46.34975433" lon="7.03597021"><ele>1043.185059</ele><time>2009-09-26T12:37:32Z</time></trkpt>
<trkpt lat="46.34985352" lon="7.03605700"><ele>1042.850952</ele><time>2009-09-26T12:37:34Z</time></trkpt>
<trkpt lat="46.35004044" lon="7.03617477"><ele>1042.295044</ele><time>2009-09-26T12:37:37Z</time></trkpt>
<trkpt lat="46.35039139" lon="7.03627491"><ele>1040.615967</ele><time>2009-09-26T12:37:43Z</time></trkpt>
<trkpt lat="46.35080719" lon="7.03641415"><ele>1042.088013</ele><time>2009-09-26T12:37:50Z</time></trkpt>
<trkpt lat="46.35121918" lon="7.03658724"><ele>1041.578003</ele><time>2009-09-26T12:37:57Z</time></trkpt>
<trkpt lat="46.35162354" lon="7.03667688"><ele>1040.435059</ele><time>2009-09-26T12:38:03Z</time></trkpt>
<trkpt lat="46.35169601" lon="7.03669786"><ele>1040.552002</ele><time>2009-09-26T12:38:04Z</time></trkpt>
<trkpt lat="46.35197449" lon="7.03690100"><ele>1041.128052</ele><time>2009-09-26T12:38:09Z</time></trkpt>
<trkpt lat="46.35212326" lon="7.03714800"><ele>1044.44104</ele><time>2009-09-26T12:38:14Z</time></trkpt>
<trkpt lat="46.35229874" lon="7.03761482"><ele>1044.729004</ele><time>2009-09-26T12:38:22Z</time></trkpt>
<trkpt lat="46.35239029" lon="7.03781796"><ele>1045.219971</ele><time>2009-09-26T12:38:27Z</time></trkpt>
<trkpt lat="46.35243988" lon="7.03792477"><ele>1043.886963</ele><time>2009-09-26T12:38:29Z</time></trkpt>
<trkpt lat="46.35270309" lon="7.03827095"><ele>1042.218994</ele><time>2009-09-26T12:38:35Z</time></trkpt>
<trkpt lat="46.35295105" lon="7.03848410"><ele>1042.097046</ele><time>2009-09-26T12:38:40Z</time></trkpt>
<trkpt lat="46.35313034" lon="7.03859615"><ele>1042.107056</ele><time>2009-09-26T12:38:44Z</time></trkpt>
<trkpt lat="46.35326767" lon="7.03874397"><ele>1041.498047</ele><time>2009-09-26T12:38:48Z</time></trkpt>
<trkpt lat="46.35348511" lon="7.03898811"><ele>1039.697021</ele><time>2009-09-26T12:38:53Z</time></trkpt>
<trkpt lat="46.35361862" lon="7.03908396"><ele>1038.100952</ele><time>2009-09-26T12:38:55Z</time></trkpt>
<trkpt lat="46.35386276" lon="7.03936100"><ele>1034.06897</ele><time>2009-09-26T12:38:59Z</time></trkpt>
<trkpt lat="46.35411835" lon="7.03939009"><ele>1030.912964</ele><time>2009-09-26T12:39:03Z</time></trkpt>
<trkpt lat="46.35427094" lon="7.03961182"><ele>1028.437012</ele><time>2009-09-26T12:39:06Z</time></trkpt>
<trkpt lat="46.35430908" lon="7.03972292"><ele>1027.937012</ele><time>2009-09-26T12:39:07Z</time></trkpt>
<trkpt lat="46.35440063" lon="7.04032803"><ele>1025.281982</ele><time>2009-09-26T12:39:12Z</time></trkpt>
<trkpt lat="46.35438919" lon="7.04076099"><ele>1024.504028</ele><time>2009-09-26T12:39:16Z</time></trkpt>
<trkpt lat="46.35438538" lon="7.04097319"><ele>1025.380005</ele><time>2009-09-26T12:39:19Z</time></trkpt>
<trkpt lat="46.35439682" lon="7.04108286"><ele>1026.251953</ele><time>2009-09-26T12:39:23Z</time></trkpt>
<trkpt lat="46.35440826" lon="7.04113197"><ele>1026.645996</ele><time>2009-09-26T12:39:25Z</time></trkpt>
<trkpt lat="46.35446930" lon="7.04124308"><ele>1027.572998</ele><time>2009-09-26T12:39:31Z</time></trkpt>
<trkpt lat="46.35451889" lon="7.04134321"><ele>1028.38501</ele><time>2009-09-26T12:39:37Z</time></trkpt>
<trkpt lat="46.35459900" lon="7.04145718"><ele>1029.594971</ele><time>2009-09-26T12:39:44Z</time></trkpt>
<trkpt lat="46.35462952" lon="7.04149818"><ele>1029.954956</ele><time>2009-09-26T12:39:46Z</time></trkpt>
<trkpt lat="46.35471725" lon="7.04165316"><ele>1030.546021</ele><time>2009-09-26T12:39:52Z</time></trkpt>
<trkpt lat="46.35481262" lon="7.04188395"><ele>1031.531006</ele><time>2009-09-26T12:39:59Z</time></trkpt>
<trkpt lat="46.35494614" lon="7.04206800"><ele>1033.937012</ele><time>2009-09-26T12:40:06Z</time></trkpt>
<trkpt lat="46.35511780" lon="7.04217196"><ele>1036.831055</ele><time>2009-09-26T12:40:14Z</time></trkpt>
<trkpt lat="46.35527039" lon="7.04219294"><ele>1038.649048</ele><time>2009-09-26T12:40:21Z</time></trkpt>
<trkpt lat="46.35543442" lon="7.04217291"><ele>1039.468018</ele><time>2009-09-26T12:40:31Z</time></trkpt>
<trkpt lat="46.35552216" lon="7.04217720"><ele>1039.509033</ele><time>2009-09-26T12:40:46Z</time></trkpt>
<trkpt lat="46.35574341" lon="7.04218912"><ele>1040.134033</ele><time>2009-09-26T12:40:53Z</time></trkpt>
<trkpt lat="46.35599899" lon="7.04223919"><ele>1041.532959</ele><time>2009-09-26T12:41:00Z</time></trkpt>
<trkpt lat="46.35610962" lon="7.04240608"><ele>1041.55603</ele><time>2009-09-26T12:41:04Z</time></trkpt>
<trkpt lat="46.35617447" lon="7.04251623"><ele>1041.06604</ele><time>2009-09-26T12:41:06Z</time></trkpt>
<trkpt lat="46.35637665" lon="7.04266214"><ele>1040.407959</ele><time>2009-09-26T12:41:10Z</time></trkpt>
<trkpt lat="46.35649490" lon="7.04272079"><ele>1040.312012</ele><time>2009-09-26T12:41:12Z</time></trkpt>
<trkpt lat="46.35661697" lon="7.04296017"><ele>1041.906006</ele><time>2009-09-26T12:41:16Z</time></trkpt>
<trkpt lat="46.35675430" lon="7.04322815"><ele>1044.822998</ele><time>2009-09-26T12:41:23Z</time></trkpt>
<trkpt lat="46.35690689" lon="7.04335117"><ele>1046.69397</ele><time>2009-09-26T12:41:30Z</time></trkpt>
<trkpt lat="46.35705185" lon="7.04333782"><ele>1047.805054</ele><time>2009-09-26T12:41:36Z</time></trkpt>
<trkpt lat="46.35721970" lon="7.04332304"><ele>1048.749023</ele><time>2009-09-26T12:41:43Z</time></trkpt>
<trkpt lat="46.35738754" lon="7.04333878"><ele>1049.912964</ele><time>2009-09-26T12:41:50Z</time></trkpt>
<trkpt lat="46.35746765" lon="7.04346514"><ele>1048.791016</ele><time>2009-09-26T12:41:55Z</time></trkpt>
<trkpt lat="46.35763931" lon="7.04373407"><ele>1048.107056</ele><time>2009-09-26T12:42:01Z</time></trkpt>
<trkpt lat="46.35784912" lon="7.04401112"><ele>1046.198975</ele><time>2009-09-26T12:42:06Z</time></trkpt>
<trkpt lat="46.35806274" lon="7.04431391"><ele>1044.430054</ele><time>2009-09-26T12:42:10Z</time></trkpt>
<trkpt lat="46.35834503" lon="7.04490423"><ele>1042.32605</ele><time>2009-09-26T12:42:16Z</time></trkpt>
<trkpt lat="46.35843658" lon="7.04529285"><ele>1040.64502</ele><time>2009-09-26T12:42:19Z</time></trkpt>
<trkpt lat="46.35836029" lon="7.04590797"><ele>1036.947021</ele><time>2009-09-26T12:42:23Z</time></trkpt>
<trkpt lat="46.35849762" lon="7.04650497"><ele>1032.671997</ele><time>2009-09-26T12:42:27Z</time></trkpt>
<trkpt lat="46.35856628" lon="7.04663992"><ele>1031.541016</ele><time>2009-09-26T12:42:28Z</time></trkpt>
<trkpt lat="46.35886383" lon="7.04722118"><ele>1026.473022</ele><time>2009-09-26T12:42:32Z</time></trkpt>
<trkpt lat="46.35927200" lon="7.04765415"><ele>1020.419983</ele><time>2009-09-26T12:42:36Z</time></trkpt>
<trkpt lat="46.35939407" lon="7.04773283"><ele>1018.526001</ele><time>2009-09-26T12:42:37Z</time></trkpt>
<trkpt lat="46.35993958" lon="7.04800797"><ele>1013.536987</ele><time>2009-09-26T12:42:41Z</time></trkpt>
<trkpt lat="46.36050797" lon="7.04809284"><ele>1007.486023</ele><time>2009-09-26T12:42:45Z</time></trkpt>
<trkpt lat="46.36075211" lon="7.04831505"><ele>1004.138977</ele><time>2009-09-26T12:42:47Z</time></trkpt>
<trkpt lat="46.36083221" lon="7.04844713"><ele>1002.614014</ele><time>2009-09-26T12:42:48Z</time></trkpt>
<trkpt lat="46.36099625" lon="7.04859781"><ele>999.732971</ele><time>2009-09-26T12:42:50Z</time></trkpt>
<trkpt lat="46.36145782" lon="7.04905987"><ele>993.284973</ele><time>2009-09-26T12:42:54Z</time></trkpt>
<trkpt lat="46.36187363" lon="7.04959202"><ele>985.874023</ele><time>2009-09-26T12:42:58Z</time></trkpt>
<trkpt lat="46.36257172" lon="7.05025101"><ele>976.521973</ele><time>2009-09-26T12:43:04Z</time></trkpt>
<trkpt lat="46.36230469" lon="7.05047607"><ele>976.005981</ele><time>2009-09-26T12:43:05Z</time></trkpt>
<trkpt lat="46.36257553" lon="7.05067301"><ele>975.198975</ele><time>2009-09-26T12:43:09Z</time></trkpt>
<trkpt lat="46.36235046" lon="7.05106211"><ele>976.416016</ele><time>2009-09-26T12:43:14Z</time></trkpt>
<trkpt lat="46.36228180" lon="7.05110121"><ele>976.375977</ele><time>2009-09-26T12:43:16Z</time></trkpt>
<trkpt lat="46.36195374" lon="7.05111885"><ele>981.499023</ele><time>2009-09-26T12:43:22Z</time></trkpt>
<trkpt lat="46.36185074" lon="7.05117893"><ele>987.453003</ele><time>2009-09-26T12:43:26Z</time></trkpt>
<trkpt lat="46.36171722" lon="7.05142403"><ele>991.611023</ele><time>2009-09-26T12:43:31Z</time></trkpt>
<trkpt lat="46.36170578" lon="7.05160093"><ele>992.190979</ele><time>2009-09-26T12:43:33Z</time></trkpt>
<trkpt lat="46.36166763" lon="7.05182981"><ele>992.854004</ele><time>2009-09-26T12:43:39Z</time></trkpt>
<trkpt lat="46.36171341" lon="7.05203390"><ele>996.03302</ele><time>2009-09-26T12:43:43Z</time></trkpt>
<trkpt lat="46.36152267" lon="7.05213690"><ele>1003.452026</ele><time>2009-09-26T12:43:49Z</time></trkpt>
<trkpt lat="46.36147690" lon="7.05249023"><ele>1000.950012</ele><time>2009-09-26T12:43:56Z</time></trkpt>
<trkpt lat="46.36146927" lon="7.05259991"><ele>998.379028</ele><time>2009-09-26T12:44:01Z</time></trkpt>
<trkpt lat="46.36141968" lon="7.05283499"><ele>997.447998</ele><time>2009-09-26T12:44:10Z</time></trkpt>
<trkpt lat="46.36136246" lon="7.05310202"><ele>998.020996</ele><time>2009-09-26T12:44:20Z</time></trkpt>
<trkpt lat="46.36135101" lon="7.05313015"><ele>998.197021</ele><time>2009-09-26T12:44:28Z</time></trkpt>
<trkpt lat="46.36129761" lon="7.05322313"><ele>998.241028</ele><time>2009-09-26T12:44:35Z</time></trkpt>
<trkpt lat="46.36151123" lon="7.05379486"><ele>998.348999</ele><time>2009-09-26T12:44:42Z</time></trkpt>
<trkpt lat="46.36149216" lon="7.05381393"><ele>998.267029</ele><time>2009-09-26T12:44:44Z</time></trkpt>
<trkpt lat="46.36153412" lon="7.05459595"><ele>997.72998</ele><time>2009-09-26T12:44:49Z</time></trkpt>
<trkpt lat="46.36151123" lon="7.05379581"><ele>997.172974</ele><time>2009-09-26T12:44:51Z</time></trkpt>
<trkpt lat="46.36156845" lon="7.05374384"><ele>996.692017</ele><time>2009-09-26T12:44:53Z</time></trkpt>
<trkpt lat="46.36169052" lon="7.05349684"><ele>995.45697</ele><time>2009-09-26T12:44:57Z</time></trkpt>
<trkpt lat="46.36174011" lon="7.05280685"><ele>992.320007</ele><time>2009-09-26T12:45:03Z</time></trkpt>
<trkpt lat="46.36171722" lon="7.05214691"><ele>990.653015</ele><time>2009-09-26T12:45:08Z</time></trkpt>
<trkpt lat="46.36171341" lon="7.05205297"><ele>990.580994</ele><time>2009-09-26T12:45:09Z</time></trkpt>
<trkpt lat="46.36158371" lon="7.05193710"><ele>991.661987</ele><time>2009-09-26T12:45:13Z</time></trkpt>
<trkpt lat="46.36149216" lon="7.05226612"><ele>988.830017</ele><time>2009-09-26T12:45:16Z</time></trkpt>
<trkpt lat="46.36148453" lon="7.05235291"><ele>988</ele><time>2009-09-26T12:45:17Z</time></trkpt>
<trkpt lat="46.36137009" lon="7.05306721"><ele>985.320984</ele><time>2009-09-26T12:45:23Z</time></trkpt>
<trkpt lat="46.36114883" lon="7.05341911"><ele>984.494995</ele><time>2009-09-26T12:45:27Z</time></trkpt>
<trkpt lat="46.36085892" lon="7.05382919"><ele>982.132996</ele><time>2009-09-26T12:45:33Z</time></trkpt>
<trkpt lat="46.36058426" lon="7.05396080"><ele>982.999023</ele><time>2009-09-26T12:45:38Z</time></trkpt>
<trkpt lat="46.36037445" lon="7.05394506"><ele>982.263</ele><time>2009-09-26T12:45:42Z</time></trkpt>
<trkpt lat="46.36032104" lon="7.05391979"><ele>981.921997</ele><time>2009-09-26T12:45:43Z</time></trkpt>
<trkpt lat="46.36011887" lon="7.05371618"><ele>982.013</ele><time>2009-09-26T12:45:48Z</time></trkpt>
<trkpt lat="46.35998535" lon="7.05340815"><ele>982.327026</ele><time>2009-09-26T12:45:53Z</time></trkpt>
<trkpt lat="46.35988617" lon="7.05298281"><ele>983.09198</ele><time>2009-09-26T12:45:59Z</time></trkpt>
<trkpt lat="46.35973358" lon="7.05267000"><ele>980.625977</ele><time>2009-09-26T12:46:04Z</time></trkpt>
<trkpt lat="46.35969543" lon="7.05260992"><ele>980.05603</ele><time>2009-09-26T12:46:05Z</time></trkpt>
<trkpt lat="46.35929871" lon="7.05218077"><ele>977.270996</ele><time>2009-09-26T12:46:13Z</time></trkpt>
<trkpt lat="46.35898972" lon="7.05186081"><ele>975.690979</ele><time>2009-09-26T12:46:19Z</time></trkpt>
<trkpt lat="46.35893631" lon="7.05180597"><ele>975.005981</ele><time>2009-09-26T12:46:20Z</time></trkpt>
<trkpt lat="46.35881805" lon="7.05169487"><ele>974.10199</ele><time>2009-09-26T12:46:22Z</time></trkpt>
<trkpt lat="46.35832214" lon="7.05163479"><ele>970.56897</ele><time>2009-09-26T12:46:27Z</time></trkpt>
<trkpt lat="46.35803223" lon="7.05167198"><ele>968.247986</ele><time>2009-09-26T12:46:30Z</time></trkpt>
<trkpt lat="46.35771561" lon="7.05187798"><ele>966.437988</ele><time>2009-09-26T12:46:34Z</time></trkpt>
<trkpt lat="46.35763931" lon="7.05196285"><ele>966.346985</ele><time>2009-09-26T12:46:35Z</time></trkpt>
<trkpt lat="46.35713959" lon="7.05251694"><ele>965.067017</ele><time>2009-09-26T12:46:41Z</time></trkpt>
<trkpt lat="46.35704803" lon="7.05261517"><ele>963.88501</ele><time>2009-09-26T12:46:42Z</time></trkpt>
<trkpt lat="46.35684967" lon="7.05316496"><ele>959.39502</ele><time>2009-09-26T12:46:46Z</time></trkpt>
<trkpt lat="46.35682678" lon="7.05348015"><ele>957.320007</ele><time>2009-09-26T12:46:48Z</time></trkpt>
<trkpt lat="46.35675049" lon="7.05432606"><ele>952.719971</ele><time>2009-09-26T12:46:53Z</time></trkpt>
<trkpt lat="46.35646439" lon="7.05483818"><ele>948.958008</ele><time>2009-09-26T12:46:57Z</time></trkpt>
<trkpt lat="46.35614395" lon="7.05505514"><ele>948.070984</ele><time>2009-09-26T12:47:00Z</time></trkpt>
<trkpt lat="46.35559082" lon="7.05518723"><ele>947.195984</ele><time>2009-09-26T12:47:05Z</time></trkpt>
<trkpt lat="46.35513687" lon="7.05524015"><ele>946.544983</ele><time>2009-09-26T12:47:10Z</time></trkpt>
<trkpt lat="46.35475159" lon="7.05529785"><ele>946.276001</ele><time>2009-09-26T12:47:16Z</time></trkpt>
<trkpt lat="46.35458755" lon="7.05533409"><ele>946.059998</ele><time>2009-09-26T12:47:19Z</time></trkpt>
<trkpt lat="46.35437775" lon="7.05529785"><ele>948.088989</ele><time>2009-09-26T12:47:24Z</time></trkpt>
<trkpt lat="46.35429382" lon="7.05524492"><ele>951.073975</ele><time>2009-09-26T12:47:29Z</time></trkpt>
<trkpt lat="46.35413742" lon="7.05514908"><ele>953.999023</ele><time>2009-09-26T12:47:36Z</time></trkpt>
<trkpt lat="46.35403442" lon="7.05505705"><ele>953.359985</ele><time>2009-09-26T12:47:39Z</time></trkpt>
<trkpt lat="46.35384750" lon="7.05486584"><ele>953.596985</ele><time>2009-09-26T12:47:44Z</time></trkpt>
<trkpt lat="46.35375214" lon="7.05469799"><ele>954.09198</ele><time>2009-09-26T12:47:49Z</time></trkpt>
<trkpt lat="46.35366821" lon="7.05455112"><ele>954.354004</ele><time>2009-09-26T12:47:55Z</time></trkpt>
<trkpt lat="46.35363388" lon="7.05449295"><ele>953.221008</ele><time>2009-09-26T12:48:00Z</time></trkpt>
<trkpt lat="46.35356140" lon="7.05435610"><ele>953.301025</ele><time>2009-09-26T12:48:06Z</time></trkpt>
<trkpt lat="46.35355759" lon="7.05433798"><ele>952.916992</ele><time>2009-09-26T12:48:09Z</time></trkpt>
<trkpt lat="46.35350800" lon="7.05421400"><ele>953.76001</ele><time>2009-09-26T12:48:21Z</time></trkpt>
<trkpt lat="46.35342026" lon="7.05409479"><ele>953.177002</ele><time>2009-09-26T12:48:24Z</time></trkpt>
<trkpt lat="46.35322189" lon="7.05367088"><ele>951.210022</ele><time>2009-09-26T12:48:30Z</time></trkpt>
<trkpt lat="46.35319138" lon="7.05359602"><ele>950.947021</ele><time>2009-09-26T12:48:31Z</time></trkpt>
<trkpt lat="46.35304260" lon="7.05331707"><ele>950.689026</ele><time>2009-09-26T12:48:35Z</time></trkpt>
<trkpt lat="46.35274124" lon="7.05286312"><ele>949.809021</ele><time>2009-09-26T12:48:42Z</time></trkpt>
<trkpt lat="46.35263443" lon="7.05270481"><ele>950.119019</ele><time>2009-09-26T12:48:45Z</time></trkpt>
<trkpt lat="46.35255814" lon="7.05256224"><ele>951.398987</ele><time>2009-09-26T12:48:47Z</time></trkpt>
<trkpt lat="46.35243225" lon="7.05229902"><ele>954.866028</ele><time>2009-09-26T12:48:52Z</time></trkpt>
<trkpt lat="46.35240555" lon="7.05224180"><ele>954.744995</ele><time>2009-09-26T12:48:53Z</time></trkpt>
<trkpt lat="46.35227203" lon="7.05195618"><ele>951.754028</ele><time>2009-09-26T12:48:58Z</time></trkpt>
<trkpt lat="46.35220337" lon="7.05156517"><ele>948.340027</ele><time>2009-09-26T12:49:03Z</time></trkpt>
<trkpt lat="46.35203552" lon="7.05137014"><ele>946.551025</ele><time>2009-09-26T12:49:08Z</time></trkpt>
<trkpt lat="46.35194397" lon="7.05119610"><ele>945.307007</ele><time>2009-09-26T12:49:12Z</time></trkpt>
<trkpt lat="46.35169220" lon="7.05094099"><ele>943.437988</ele><time>2009-09-26T12:49:18Z</time></trkpt>
<trkpt lat="46.35143280" lon="7.05067587"><ele>940.281006</ele><time>2009-09-26T12:49:23Z</time></trkpt>
<trkpt lat="46.35131836" lon="7.05052996"><ele>938.822998</ele><time>2009-09-26T12:49:25Z</time></trkpt>
<trkpt lat="46.35106659" lon="7.04999113"><ele>934.754028</ele><time>2009-09-26T12:49:30Z</time></trkpt>
<trkpt lat="46.35073471" lon="7.04940796"><ele>932.854004</ele><time>2009-09-26T12:49:36Z</time></trkpt>
<trkpt lat="46.35043335" lon="7.04898310"><ele>933.492981</ele><time>2009-09-26T12:49:41Z</time></trkpt>
<trkpt lat="46.35023117" lon="7.04854822"><ele>934.744995</ele><time>2009-09-26T12:49:45Z</time></trkpt>
<trkpt lat="46.35016251" lon="7.04837704"><ele>936.893005</ele><time>2009-09-26T12:49:49Z</time></trkpt>
<trkpt lat="46.35009766" lon="7.04822111"><ele>936.267029</ele><time>2009-09-26T12:49:52Z</time></trkpt>
<trkpt lat="46.34996033" lon="7.04791594"><ele>936.666992</ele><time>2009-09-26T12:49:57Z</time></trkpt>
<trkpt lat="46.34980392" lon="7.04761124"><ele>940.789978</ele><time>2009-09-26T12:50:02Z</time></trkpt>
<trkpt lat="46.34965515" lon="7.04732895"><ele>944.317993</ele><time>2009-09-26T12:50:07Z</time></trkpt>
<trkpt lat="46.34940720" lon="7.04710484"><ele>945.435974</ele><time>2009-09-26T12:50:13Z</time></trkpt>
<trkpt lat="46.34915924" lon="7.04691601"><ele>942.809021</ele><time>2009-09-26T12:50:17Z</time></trkpt>
<trkpt lat="46.34885406" lon="7.04665613"><ele>938.849976</ele><time>2009-09-26T12:50:21Z</time></trkpt>
<trkpt lat="46.34839630" lon="7.04648209"><ele>936.565002</ele><time>2009-09-26T12:50:27Z</time></trkpt>
<trkpt lat="46.34827042" lon="7.04645777"><ele>935.018982</ele><time>2009-09-26T12:50:29Z</time></trkpt>
<trkpt lat="46.34808731" lon="7.04643297"><ele>932.732971</ele><time>2009-09-26T12:50:32Z</time></trkpt>
<trkpt lat="46.34771729" lon="7.04654312"><ele>931.018005</ele><time>2009-09-26T12:50:37Z</time></trkpt>
<trkpt lat="46.34742355" lon="7.04660797"><ele>927.768005</ele><time>2009-09-26T12:50:42Z</time></trkpt>
<trkpt lat="46.34732819" lon="7.04655695"><ele>925.405029</ele><time>2009-09-26T12:50:44Z</time></trkpt>
<trkpt lat="46.34719849" lon="7.04648781"><ele>922.367004</ele><time>2009-09-26T12:50:46Z</time></trkpt>
<trkpt lat="46.34701538" lon="7.04642105"><ele>916.465027</ele><time>2009-09-26T12:50:49Z</time></trkpt>
<trkpt lat="46.34681320" lon="7.04636812"><ele>909.926025</ele><time>2009-09-26T12:50:52Z</time></trkpt>
<trkpt lat="46.34670639" lon="7.04631901"><ele>906.66803</ele><time>2009-09-26T12:50:54Z</time></trkpt>
<trkpt lat="46.34651947" lon="7.04623890"><ele>900.445984</ele><time>2009-09-26T12:50:58Z</time></trkpt>
<trkpt lat="46.34623718" lon="7.04614878"><ele>889.372009</ele><time>2009-09-26T12:51:04Z</time></trkpt>
<trkpt lat="46.34613037" lon="7.04611015"><ele>883.731018</ele><time>2009-09-26T12:51:08Z</time></trkpt>
<trkpt lat="46.34601593" lon="7.04604483"><ele>876.059021</ele><time>2009-09-26T12:51:12Z</time></trkpt>
<trkpt lat="46.34576416" lon="7.04579496"><ele>869.36499</ele><time>2009-09-26T12:51:18Z</time></trkpt>
<trkpt lat="46.34560776" lon="7.04556084"><ele>866.330994</ele><time>2009-09-26T12:51:24Z</time></trkpt>
<trkpt lat="46.34553909" lon="7.04546881"><ele>865.583984</ele><time>2009-09-26T12:51:29Z</time></trkpt>
<trkpt lat="46.34553909" lon="7.04546881"><ele>865.184021</ele><time>2009-09-26T12:51:32Z</time></trkpt>
<trkpt lat="46.34549332" lon="7.04555798"><ele>879.736023</ele><time>2009-09-26T12:51:52Z</time></trkpt>
<trkpt lat="46.34548950" lon="7.04556704"><ele>884.880981</ele><time>2009-09-26T12:51:57Z</time></trkpt>
<trkpt lat="46.34555435" lon="7.04546595"><ele>887.026001</ele><time>2009-09-26T12:51:59Z</time></trkpt>
<trkpt lat="46.34541321" lon="7.04565477"><ele>896.367981</ele><time>2009-09-26T12:52:06Z</time></trkpt>
<trkpt lat="46.34532928" lon="7.04570007"><ele>896.393005</ele><time>2009-09-26T12:52:11Z</time></trkpt>
<trkpt lat="46.34532166" lon="7.04570198"><ele>893.070007</ele><time>2009-09-26T12:52:15Z</time></trkpt>
<trkpt lat="46.34516144" lon="7.04571295"><ele>901.031982</ele><time>2009-09-26T12:52:30Z</time></trkpt>
<trkpt lat="46.34516144" lon="7.04571295"><ele>903.236023</ele><time>2009-09-26T12:52:37Z</time></trkpt>
<trkpt lat="46.34516144" lon="7.04571295"><ele>902.63501</ele><time>2009-09-26T12:52:41Z</time></trkpt>
<trkpt lat="46.34516144" lon="7.04571295"><ele>901.403992</ele><time>2009-09-26T12:52:45Z</time></trkpt>
<trkpt lat="46.34500122" lon="7.04565191"><ele>908.26001</ele><time>2009-09-26T12:53:03Z</time></trkpt>
<trkpt lat="46.34496307" lon="7.04563522"><ele>907.747009</ele><time>2009-09-26T12:53:07Z</time></trkpt>
<trkpt lat="46.34496307" lon="7.04563522"><ele>906.083984</ele><time>2009-09-26T12:53:20Z</time></trkpt>
<trkpt lat="46.34473038" lon="7.04551697"><ele>905.471008</ele><time>2009-09-26T12:53:30Z</time></trkpt>
<trkpt lat="46.34455490" lon="7.04542494"><ele>901.286011</ele><time>2009-09-26T12:53:38Z</time></trkpt>
<trkpt lat="46.34438324" lon="7.04537392"><ele>896.223999</ele><time>2009-09-26T12:53:44Z</time></trkpt>
<trkpt lat="46.34431839" lon="7.04536009"><ele>894.411987</ele><time>2009-09-26T12:53:46Z</time></trkpt>
<trkpt lat="46.34415054" lon="7.04527521"><ele>897.072998</ele><time>2009-09-26T12:53:51Z</time></trkpt>
<trkpt lat="46.34408569" lon="7.04521799"><ele>899.03302</ele><time>2009-09-26T12:53:53Z</time></trkpt>
<trkpt lat="46.34393692" lon="7.04492903"><ele>907.398987</ele><time>2009-09-26T12:53:59Z</time></trkpt>
<trkpt lat="46.34389496" lon="7.04495382"><ele>906.309998</ele><time>2009-09-26T12:54:02Z</time></trkpt>
<trkpt lat="46.34384155" lon="7.04497194"><ele>903.323975</ele><time>2009-09-26T12:54:08Z</time></trkpt>
<trkpt lat="46.34368134" lon="7.04504585"><ele>908.109009</ele><time>2009-09-26T12:54:17Z</time></trkpt>
<trkpt lat="46.34351730" lon="7.04504395"><ele>911.348022</ele><time>2009-09-26T12:54:24Z</time></trkpt>
<trkpt lat="46.34350967" lon="7.04504204"><ele>912.060974</ele><time>2009-09-26T12:54:25Z</time></trkpt>
<trkpt lat="46.34393692" lon="7.04493999"><ele>910.963013</ele><time>2009-09-26T12:54:30Z</time></trkpt>
<trkpt lat="46.34351349" lon="7.04504204"><ele>910.153992</ele><time>2009-09-26T12:54:34Z</time></trkpt>
<trkpt lat="46.34351349" lon="7.04504204"><ele>908.932007</ele><time>2009-09-26T12:54:36Z</time></trkpt>
<trkpt lat="46.34351349" lon="7.04504204"><ele>897.604004</ele><time>2009-09-26T12:54:49Z</time></trkpt>
<trkpt lat="46.34351349" lon="7.04504204"><ele>897.655029</ele><time>2009-09-26T12:54:54Z</time></trkpt>
<trkpt lat="46.34328461" lon="7.04500389"><ele>904.807007</ele><time>2009-09-26T12:55:03Z</time></trkpt>
<trkpt lat="46.34328461" lon="7.04500389"><ele>905.216003</ele><time>2009-09-26T12:55:05Z</time></trkpt>
<trkpt lat="46.34393692" lon="7.04493999"><ele>904.760986</ele><time>2009-09-26T12:55:11Z</time></trkpt>
<trkpt lat="46.34393692" lon="7.04493999"><ele>905.307983</ele><time>2009-09-26T12:55:16Z</time></trkpt>
<trkpt lat="46.34393692" lon="7.04493999"><ele>900.755981</ele><time>2009-09-26T12:55:32Z</time></trkpt>
<trkpt lat="46.34393692" lon="7.04493999"><ele>902.999023</ele><time>2009-09-26T12:55:38Z</time></trkpt>
<trkpt lat="46.34393692" lon="7.04493999"><ele>905.682007</ele><time>2009-09-26T12:55:50Z</time></trkpt>
<trkpt lat="46.34393692" lon="7.04493999"><ele>907.314026</ele><time>2009-09-26T12:56:00Z</time></trkpt>
<trkpt lat="46.34335327" lon="7.04500389"><ele>910.434998</ele><time>2009-09-26T12:56:07Z</time></trkpt>
<trkpt lat="46.34328842" lon="7.04500389"><ele>915.117004</ele><time>2009-09-26T12:56:14Z</time></trkpt>
<trkpt lat="46.34318161" lon="7.04500484"><ele>917.182983</ele><time>2009-09-26T12:56:17Z</time></trkpt>
<trkpt lat="46.34314728" lon="7.04500723"><ele>918.580017</ele><time>2009-09-26T12:56:21Z</time></trkpt>
<trkpt lat="46.34306717" lon="7.04501009"><ele>915.046021</ele><time>2009-09-26T12:56:40Z</time></trkpt>
<trkpt lat="46.34287643" lon="7.04501820"><ele>914.200012</ele><time>2009-09-26T12:56:47Z</time></trkpt>
<trkpt lat="46.34284210" lon="7.04501915"><ele>914.049011</ele><time>2009-09-26T12:56:48Z</time></trkpt>
<trkpt lat="46.34266281" lon="7.04502583"><ele>912.835022</ele><time>2009-09-26T12:56:54Z</time></trkpt>
<trkpt lat="46.34249878" lon="7.04502583"><ele>910.674011</ele><time>2009-09-26T12:57:01Z</time></trkpt>
<trkpt lat="46.34238052" lon="7.04502583"><ele>909.406982</ele><time>2009-09-26T12:57:07Z</time></trkpt>
<trkpt lat="46.34226990" lon="7.04504204"><ele>909.512024</ele><time>2009-09-26T12:57:12Z</time></trkpt>
<trkpt lat="46.34225082" lon="7.04504585"><ele>909.564026</ele><time>2009-09-26T12:57:14Z</time></trkpt>
<trkpt lat="46.34215546" lon="7.04506493"><ele>908.547974</ele><time>2009-09-26T12:57:21Z</time></trkpt>
<trkpt lat="46.34212112" lon="7.04507685"><ele>908.388977</ele><time>2009-09-26T12:57:25Z</time></trkpt>
<trkpt lat="46.34209824" lon="7.04509020"><ele>908.684998</ele><time>2009-09-26T12:57:28Z</time></trkpt>
<trkpt lat="46.34205246" lon="7.04511786"><ele>908.914001</ele><time>2009-09-26T12:57:32Z</time></trkpt>
<trkpt lat="46.34195328" lon="7.04516602"><ele>908.89801</ele><time>2009-09-26T12:57:38Z</time></trkpt>
<trkpt lat="46.34188461" lon="7.04519701"><ele>908.434998</ele><time>2009-09-26T12:57:42Z</time></trkpt>
<trkpt lat="46.34174347" lon="7.04523993"><ele>909.653992</ele><time>2009-09-26T12:57:49Z</time></trkpt>
<trkpt lat="46.34168243" lon="7.04523993"><ele>907.322998</ele><time>2009-09-26T12:57:55Z</time></trkpt>
<trkpt lat="46.34156036" lon="7.04523993"><ele>908.942017</ele><time>2009-09-26T12:58:00Z</time></trkpt>
<trkpt lat="46.34155273" lon="7.04538298"><ele>910.129028</ele><time>2009-09-26T12:58:05Z</time></trkpt>
<trkpt lat="46.34165573" lon="7.04523993"><ele>909.432007</ele><time>2009-09-26T12:58:10Z</time></trkpt>
<trkpt lat="46.34173203" lon="7.04523993"><ele>908.825989</ele><time>2009-09-26T12:58:14Z</time></trkpt>
<trkpt lat="46.34181213" lon="7.04522610"><ele>906.580017</ele><time>2009-09-26T12:58:16Z</time></trkpt>
<trkpt lat="46.34180450" lon="7.04498005"><ele>900.77301</ele><time>2009-09-26T12:58:20Z</time></trkpt>
<trkpt lat="46.34172058" lon="7.04523993"><ele>894.60498</ele><time>2009-09-26T12:58:27Z</time></trkpt>
<trkpt lat="46.34142303" lon="7.04520082"><ele>884.461975</ele><time>2009-09-26T12:58:43Z</time></trkpt>
<trkpt lat="46.34082413" lon="7.04375982"><ele>889.560974</ele><time>2009-09-26T12:58:49Z</time></trkpt>
<trkpt lat="46.34058762" lon="7.04338408"><ele>888.872009</ele><time>2009-09-26T12:58:55Z</time></trkpt>
<trkpt lat="46.34041977" lon="7.04312706"><ele>898.552979</ele><time>2009-09-26T12:59:02Z</time></trkpt>
<trkpt lat="46.34038925" lon="7.04308319"><ele>900.570984</ele><time>2009-09-26T12:59:03Z</time></trkpt>
<trkpt lat="46.34025955" lon="7.04284000"><ele>892.190002</ele><time>2009-09-26T12:59:08Z</time></trkpt>
<trkpt lat="46.34021759" lon="7.04272413"><ele>887.375977</ele><time>2009-09-26T12:59:10Z</time></trkpt>
<trkpt lat="46.34011841" lon="7.04253721"><ele>877.437012</ele><time>2009-09-26T12:59:15Z</time></trkpt>
<trkpt lat="46.34011459" lon="7.04253292"><ele>875.653015</ele><time>2009-09-26T12:59:16Z</time></trkpt>
<trkpt lat="46.34001923" lon="7.04245710"><ele>869.612</ele><time>2009-09-26T12:59:21Z</time></trkpt>
<trkpt lat="46.33997726" lon="7.04243994"><ele>867.254028</ele><time>2009-09-26T12:59:23Z</time></trkpt>
<trkpt lat="46.33982468" lon="7.04239798"><ele>865.924011</ele><time>2009-09-26T12:59:29Z</time></trkpt>
<trkpt lat="46.33982468" lon="7.04239798"><ele>867.052979</ele><time>2009-09-26T12:59:32Z</time></trkpt>
<trkpt lat="46.33970642" lon="7.04240608"><ele>872.960022</ele><time>2009-09-26T12:59:38Z</time></trkpt>
<trkpt lat="46.33966827" lon="7.04241991"><ele>873.517029</ele><time>2009-09-26T12:59:41Z</time></trkpt>
<trkpt lat="46.33958054" lon="7.04245520"><ele>874.153015</ele><time>2009-09-26T12:59:49Z</time></trkpt>
<trkpt lat="46.33956146" lon="7.04246283"><ele>874.482971</ele><time>2009-09-26T12:59:55Z</time></trkpt>
<trkpt lat="46.33956146" lon="7.04246283"><ele>876.03302</ele><time>2009-09-26T12:59:57Z</time></trkpt>
<trkpt lat="46.33956146" lon="7.04246283"><ele>878.22998</ele><time>2009-09-26T13:00:06Z</time></trkpt>
<trkpt lat="46.33956146" lon="7.04246283"><ele>887.986023</ele><time>2009-09-26T13:00:41Z</time></trkpt>
<trkpt lat="46.33956146" lon="7.04246283"><ele>890.051025</ele><time>2009-09-26T13:00:56Z</time></trkpt>
<trkpt lat="46.33956146" lon="7.04246283"><ele>888.924988</ele><time>2009-09-26T13:00:58Z</time></trkpt>
<trkpt lat="46.33919525" lon="7.04256201"><ele>889.833984</ele><time>2009-09-26T13:01:02Z</time></trkpt>
<trkpt lat="46.33909225" lon="7.04260921"><ele>892.090027</ele><time>2009-09-26T13:01:05Z</time></trkpt>
<trkpt lat="46.33892822" lon="7.04274511"><ele>891.096008</ele><time>2009-09-26T13:01:09Z</time></trkpt>
<trkpt lat="46.33876038" lon="7.04291821"><ele>889.857971</ele><time>2009-09-26T13:01:13Z</time></trkpt>
<trkpt lat="46.33830643" lon="7.04263115"><ele>885.859009</ele><time>2009-09-26T13:01:33Z</time></trkpt>
<trkpt lat="46.33808517" lon="7.04228878"><ele>897.25</ele><time>2009-09-26T13:01:36Z</time></trkpt>
<trkpt lat="46.33791351" lon="7.04189301"><ele>907.698975</ele><time>2009-09-26T13:01:40Z</time></trkpt>
<trkpt lat="46.33781815" lon="7.04164124"><ele>911.987976</ele><time>2009-09-26T13:01:46Z</time></trkpt>
<trkpt lat="46.33753586" lon="7.04184294"><ele>905.640015</ele><time>2009-09-26T13:01:51Z</time></trkpt>
<trkpt lat="46.33753586" lon="7.04185677"><ele>899.450012</ele><time>2009-09-26T13:01:55Z</time></trkpt>
<trkpt lat="46.33753586" lon="7.04180098"><ele>894.427979</ele><time>2009-09-26T13:02:00Z</time></trkpt>
<trkpt lat="46.33753204" lon="7.04175806"><ele>890.867004</ele><time>2009-09-26T13:02:05Z</time></trkpt>
<trkpt lat="46.33753204" lon="7.04175186"><ele>889.521973</ele><time>2009-09-26T13:02:12Z</time></trkpt>
<trkpt lat="46.33752823" lon="7.04166412"><ele>889.473999</ele><time>2009-09-26T13:02:15Z</time></trkpt>
<trkpt lat="46.33779907" lon="7.04158688"><ele>890.22699</ele><time>2009-09-26T13:02:18Z</time></trkpt>
<trkpt lat="46.33780289" lon="7.04162788"><ele>893.533997</ele><time>2009-09-26T13:02:24Z</time></trkpt>
<trkpt lat="46.33781433" lon="7.04158497"><ele>895.046021</ele><time>2009-09-26T13:02:29Z</time></trkpt>
<trkpt lat="46.33778381" lon="7.04153919"><ele>897.348022</ele><time>2009-09-26T13:02:33Z</time></trkpt>
<trkpt lat="46.33777618" lon="7.04151487"><ele>897.487976</ele><time>2009-09-26T13:02:35Z</time></trkpt>
<trkpt lat="46.33776474" lon="7.04147911"><ele>899.189026</ele><time>2009-09-26T13:02:39Z</time></trkpt>
<trkpt lat="46.33774948" lon="7.04143095"><ele>901.895996</ele><time>2009-09-26T13:02:45Z</time></trkpt>
<trkpt lat="46.33773804" lon="7.04138708"><ele>905.450989</ele><time>2009-09-26T13:02:49Z</time></trkpt>
<trkpt lat="46.33773041" lon="7.04136181"><ele>905.945984</ele><time>2009-09-26T13:02:51Z</time></trkpt>
<trkpt lat="46.33771133" lon="7.04130077"><ele>909.715027</ele><time>2009-09-26T13:02:59Z</time></trkpt>
<trkpt lat="46.33771133" lon="7.04130077"><ele>911.825012</ele><time>2009-09-26T13:03:05Z</time></trkpt>
<trkpt lat="46.33771133" lon="7.04130077"><ele>912.133972</ele><time>2009-09-26T13:03:08Z</time></trkpt>
<trkpt lat="46.33767700" lon="7.04118586"><ele>912.63501</ele><time>2009-09-26T13:03:18Z</time></trkpt>
<trkpt lat="46.33766174" lon="7.04113388"><ele>911.583008</ele><time>2009-09-26T13:03:20Z</time></trkpt>
<trkpt lat="46.33764267" lon="7.04108000"><ele>910.989014</ele><time>2009-09-26T13:03:23Z</time></trkpt>
<trkpt lat="46.33761215" lon="7.04097509"><ele>910.971985</ele><time>2009-09-26T13:03:29Z</time></trkpt>
<trkpt lat="46.33760834" lon="7.04095793"><ele>910.762024</ele><time>2009-09-26T13:03:30Z</time></trkpt>
<trkpt lat="46.33758545" lon="7.04088497"><ele>913.557983</ele><time>2009-09-26T13:03:36Z</time></trkpt>
<trkpt lat="46.33758163" lon="7.04086685"><ele>913.575012</ele><time>2009-09-26T13:03:38Z</time></trkpt>
<trkpt lat="46.33757401" lon="7.04084921"><ele>910.265991</ele><time>2009-09-26T13:03:44Z</time></trkpt>
<trkpt lat="46.33752060" lon="7.04066801"><ele>907.403015</ele><time>2009-09-26T13:03:47Z</time></trkpt>
<trkpt lat="46.33746338" lon="7.04044199"><ele>902.382019</ele><time>2009-09-26T13:03:51Z</time></trkpt>
<trkpt lat="46.33739090" lon="7.04020309"><ele>895.711975</ele><time>2009-09-26T13:03:55Z</time></trkpt>
<trkpt lat="46.33732605" lon="7.04002905"><ele>895.612976</ele><time>2009-09-26T13:04:00Z</time></trkpt>
<trkpt lat="46.33724976" lon="7.03985119"><ele>889.557983</ele><time>2009-09-26T13:04:05Z</time></trkpt>
<trkpt lat="46.33721924" lon="7.03980112"><ele>891.054016</ele><time>2009-09-26T13:04:08Z</time></trkpt>
<trkpt lat="46.33709717" lon="7.03969002"><ele>887.804993</ele><time>2009-09-26T13:04:14Z</time></trkpt>
<trkpt lat="46.33692551" lon="7.03966093"><ele>889.604004</ele><time>2009-09-26T13:04:22Z</time></trkpt>
<trkpt lat="46.33678055" lon="7.03963089"><ele>889.424988</ele><time>2009-09-26T13:04:27Z</time></trkpt>
<trkpt lat="46.33662033" lon="7.03946018"><ele>888.632019</ele><time>2009-09-26T13:04:32Z</time></trkpt>
<trkpt lat="46.33657074" lon="7.03916311"><ele>887.403992</ele><time>2009-09-26T13:04:36Z</time></trkpt>
<trkpt lat="46.33660889" lon="7.03895807"><ele>884.359009</ele><time>2009-09-26T13:04:40Z</time></trkpt>
<trkpt lat="46.33664322" lon="7.03855324"><ele>875.070984</ele><time>2009-09-26T13:04:45Z</time></trkpt>
<trkpt lat="46.33655167" lon="7.03841400"><ele>872.35498</ele><time>2009-09-26T13:04:48Z</time></trkpt>
<trkpt lat="46.33641052" lon="7.03835487"><ele>871.893005</ele><time>2009-09-26T13:04:52Z</time></trkpt>
<trkpt lat="46.33630371" lon="7.03830099"><ele>870.356995</ele><time>2009-09-26T13:04:55Z</time></trkpt>
<trkpt lat="46.33612061" lon="7.03820896"><ele>869.291992</ele><time>2009-09-26T13:05:00Z</time></trkpt>
<trkpt lat="46.33595276" lon="7.03822613"><ele>868.171997</ele><time>2009-09-26T13:05:04Z</time></trkpt>
<trkpt lat="46.33567429" lon="7.03824615"><ele>866.93103</ele><time>2009-09-26T13:05:08Z</time></trkpt>
<trkpt lat="46.33559799" lon="7.03821087"><ele>866.491028</ele><time>2009-09-26T13:05:09Z</time></trkpt>
<trkpt lat="46.33541489" lon="7.03813791"><ele>865.927979</ele><time>2009-09-26T13:05:11Z</time></trkpt>
<trkpt lat="46.33502960" lon="7.03813791"><ele>864.757019</ele><time>2009-09-26T13:05:15Z</time></trkpt>
<trkpt lat="46.33442688" lon="7.03815413"><ele>866.541016</ele><time>2009-09-26T13:05:21Z</time></trkpt>
<trkpt lat="46.33413315" lon="7.03818083"><ele>868.158997</ele><time>2009-09-26T13:05:24Z</time></trkpt>
<trkpt lat="46.33384323" lon="7.03828192"><ele>863.211975</ele><time>2009-09-26T13:05:28Z</time></trkpt>
<trkpt lat="46.33377838" lon="7.03830481"><ele>862.616028</ele><time>2009-09-26T13:05:29Z</time></trkpt>
<trkpt lat="46.33342361" lon="7.03855896"><ele>859.744995</ele><time>2009-09-26T13:05:35Z</time></trkpt>
<trkpt lat="46.33306885" lon="7.03885698"><ele>855.463013</ele><time>2009-09-26T13:05:40Z</time></trkpt>
<trkpt lat="46.33294678" lon="7.03899384"><ele>852.630005</ele><time>2009-09-26T13:05:42Z</time></trkpt>
<trkpt lat="46.33258820" lon="7.03938293"><ele>839.072021</ele><time>2009-09-26T13:05:51Z</time></trkpt>
<trkpt lat="46.33369827" lon="7.03549004"><ele>842.103027</ele><time>2009-09-26T13:07:00Z</time></trkpt>
<trkpt lat="46.33410263" lon="7.03476715"><ele>834.020996</ele><time>2009-09-26T13:07:07Z</time></trkpt>
<trkpt lat="46.33411026" lon="7.03458405"><ele>830.361023</ele><time>2009-09-26T13:07:10Z</time></trkpt>
<trkpt lat="46.33408737" lon="7.03455877"><ele>828.013</ele><time>2009-09-26T13:07:13Z</time></trkpt>
<trkpt lat="46.33395004" lon="7.03447199"><ele>827.005005</ele><time>2009-09-26T13:07:15Z</time></trkpt>
<trkpt lat="46.33366394" lon="7.03463078"><ele>825.231018</ele><time>2009-09-26T13:07:19Z</time></trkpt>
<trkpt lat="46.33360672" lon="7.03467894"><ele>825.312012</ele><time>2009-09-26T13:07:20Z</time></trkpt>
<trkpt lat="46.33342743" lon="7.03468704"><ele>823.098999</ele><time>2009-09-26T13:07:24Z</time></trkpt>
<trkpt lat="46.33331680" lon="7.03435516"><ele>820.142029</ele><time>2009-09-26T13:07:28Z</time></trkpt>
<trkpt lat="46.33337021" lon="7.03388977"><ele>824.565979</ele><time>2009-09-26T13:07:32Z</time></trkpt>
<trkpt lat="46.33340073" lon="7.03368521"><ele>824.828979</ele><time>2009-09-26T13:07:34Z</time></trkpt>
<trkpt lat="46.33335114" lon="7.03334284"><ele>823.060974</ele><time>2009-09-26T13:07:39Z</time></trkpt>
<trkpt lat="46.33325577" lon="7.03306580"><ele>825.562988</ele><time>2009-09-26T13:07:43Z</time></trkpt>
<trkpt lat="46.33308792" lon="7.03280878"><ele>822.132019</ele><time>2009-09-26T13:07:48Z</time></trkpt>
<trkpt lat="46.33304977" lon="7.03275919"><ele>820.914978</ele><time>2009-09-26T13:07:49Z</time></trkpt>
<trkpt lat="46.33284378" lon="7.03246880"><ele>821.221008</ele><time>2009-09-26T13:07:54Z</time></trkpt>
<trkpt lat="46.33271027" lon="7.03227806"><ele>819.765015</ele><time>2009-09-26T13:07:57Z</time></trkpt>
<trkpt lat="46.33223724" lon="7.03128481"><ele>818.166016</ele><time>2009-09-26T13:08:10Z</time></trkpt>
<trkpt lat="46.33129501" lon="7.02988720"><ele>810.903015</ele><time>2009-09-26T13:08:32Z</time></trkpt>
<trkpt lat="46.33127213" lon="7.02985096"><ele>827.734985</ele><time>2009-09-26T13:08:36Z</time></trkpt>
<trkpt lat="46.33099365" lon="7.02923107"><ele>817.999023</ele><time>2009-09-26T13:08:41Z</time></trkpt>
<trkpt lat="46.33082962" lon="7.02877903"><ele>812.020996</ele><time>2009-09-26T13:08:46Z</time></trkpt>
<trkpt lat="46.33070374" lon="7.02844381"><ele>808.21698</ele><time>2009-09-26T13:08:50Z</time></trkpt>
<trkpt lat="46.33060074" lon="7.02821207"><ele>804.724976</ele><time>2009-09-26T13:08:54Z</time></trkpt>
<trkpt lat="46.33046341" lon="7.02798891"><ele>801.015991</ele><time>2009-09-26T13:08:58Z</time></trkpt>
<trkpt lat="46.33035660" lon="7.02775192"><ele>800.723022</ele><time>2009-09-26T13:09:02Z</time></trkpt>
<trkpt lat="46.33026123" lon="7.02736282"><ele>804.866028</ele><time>2009-09-26T13:09:07Z</time></trkpt>
<trkpt lat="46.33017349" lon="7.02714205"><ele>803.58197</ele><time>2009-09-26T13:09:10Z</time></trkpt>
<trkpt lat="46.33008194" lon="7.02696896"><ele>802.336975</ele><time>2009-09-26T13:09:13Z</time></trkpt>
<trkpt lat="46.32987213" lon="7.02662706"><ele>800.905029</ele><time>2009-09-26T13:09:19Z</time></trkpt>
<trkpt lat="46.32980728" lon="7.02651596"><ele>801.437988</ele><time>2009-09-26T13:09:21Z</time></trkpt>
<trkpt lat="46.32965851" lon="7.02630186"><ele>807.455017</ele><time>2009-09-26T13:09:26Z</time></trkpt>
<trkpt lat="46.32963562" lon="7.02626991"><ele>808.830017</ele><time>2009-09-26T13:09:27Z</time></trkpt>
<trkpt lat="46.32940674" lon="7.02596092"><ele>811.874023</ele><time>2009-09-26T13:09:33Z</time></trkpt>
<trkpt lat="46.32822800" lon="7.02456903"><ele>815.718994</ele><time>2009-09-26T13:10:05Z</time></trkpt>
<trkpt lat="46.32825089" lon="7.02462006"><ele>800.289978</ele><time>2009-09-26T13:10:07Z</time></trkpt>
<trkpt lat="46.32799530" lon="7.02416897"><ele>788.575012</ele><time>2009-09-26T13:10:12Z</time></trkpt>
<trkpt lat="46.32785034" lon="7.02378082"><ele>782.575989</ele><time>2009-09-26T13:10:15Z</time></trkpt>
<trkpt lat="46.32775879" lon="7.02349520"><ele>777.880005</ele><time>2009-09-26T13:10:17Z</time></trkpt>
<trkpt lat="46.32747650" lon="7.02305317"><ele>773.328003</ele><time>2009-09-26T13:10:21Z</time></trkpt>
<trkpt lat="46.32723999" lon="7.02298021"><ele>770.687012</ele><time>2009-09-26T13:10:25Z</time></trkpt>
<trkpt lat="46.32722855" lon="7.02297783"><ele>771.559021</ele><time>2009-09-26T13:10:27Z</time></trkpt>
<trkpt lat="46.32720947" lon="7.02297401"><ele>770.700989</ele><time>2009-09-26T13:10:29Z</time></trkpt>
<trkpt lat="46.32642746" lon="7.02194118"><ele>769.979004</ele><time>2009-09-26T13:10:43Z</time></trkpt>
<trkpt lat="46.32613754" lon="7.02144909"><ele>773.965027</ele><time>2009-09-26T13:10:47Z</time></trkpt>
<trkpt lat="46.32599258" lon="7.02116585"><ele>773.588989</ele><time>2009-09-26T13:10:51Z</time></trkpt>
<trkpt lat="46.32592010" lon="7.02097321"><ele>771.164978</ele><time>2009-09-26T13:10:53Z</time></trkpt>
<trkpt lat="46.32575226" lon="7.02055883"><ele>764.619019</ele><time>2009-09-26T13:10:57Z</time></trkpt>
<trkpt lat="46.32559967" lon="7.02022123"><ele>761.03302</ele><time>2009-09-26T13:11:00Z</time></trkpt>
<trkpt lat="46.32548141" lon="7.01994181"><ele>759.107971</ele><time>2009-09-26T13:11:02Z</time></trkpt>
<trkpt lat="46.32520676" lon="7.01928377"><ele>747.085022</ele><time>2009-09-26T13:11:07Z</time></trkpt>
<trkpt lat="46.32499695" lon="7.01862383"><ele>741.320984</ele><time>2009-09-26T13:11:11Z</time></trkpt>
<trkpt lat="46.32500458" lon="7.01803780"><ele>731.724976</ele><time>2009-09-26T13:11:15Z</time></trkpt>
<trkpt lat="46.32501221" lon="7.01747417"><ele>722.317993</ele><time>2009-09-26T13:11:19Z</time></trkpt>
<trkpt lat="46.32499695" lon="7.01737213"><ele>720.651001</ele><time>2009-09-26T13:11:20Z</time></trkpt>
<trkpt lat="46.32492065" lon="7.01716614"><ele>713.221008</ele><time>2009-09-26T13:11:24Z</time></trkpt>
<trkpt lat="46.32488251" lon="7.01711607"><ele>713.867981</ele><time>2009-09-26T13:11:26Z</time></trkpt>
<trkpt lat="46.32478333" lon="7.01699114"><ele>713.018005</ele><time>2009-09-26T13:11:29Z</time></trkpt>
<trkpt lat="46.32471848" lon="7.01693392"><ele>712.567993</ele><time>2009-09-26T13:11:31Z</time></trkpt>
<trkpt lat="46.32459641" lon="7.01631880"><ele>709.172974</ele><time>2009-09-26T13:11:35Z</time></trkpt>
<trkpt lat="46.32462311" lon="7.01617479"><ele>708.062988</ele><time>2009-09-26T13:11:36Z</time></trkpt>
<trkpt lat="46.32469177" lon="7.01561213"><ele>700.257996</ele><time>2009-09-26T13:11:41Z</time></trkpt>
<trkpt lat="46.32460022" lon="7.01506090"><ele>686.578979</ele><time>2009-09-26T13:11:45Z</time></trkpt>
<trkpt lat="46.32432175" lon="7.01467800"><ele>678.815002</ele><time>2009-09-26T13:11:49Z</time></trkpt>
<trkpt lat="46.32385635" lon="7.01402378"><ele>667.239014</ele><time>2009-09-26T13:11:55Z</time></trkpt>
<trkpt lat="46.32359695" lon="7.01317596"><ele>668.982971</ele><time>2009-09-26T13:11:58Z</time></trkpt>
<trkpt lat="46.32331467" lon="7.01286793"><ele>669.35199</ele><time>2009-09-26T13:12:01Z</time></trkpt>
<trkpt lat="46.32294464" lon="7.01270199"><ele>670.468994</ele><time>2009-09-26T13:12:05Z</time></trkpt>
<trkpt lat="46.32254791" lon="7.01265001"><ele>670.961975</ele><time>2009-09-26T13:12:11Z</time></trkpt>
<trkpt lat="46.32215881" lon="7.01180983"><ele>656.051025</ele><time>2009-09-26T13:12:27Z</time></trkpt>
<trkpt lat="46.32225037" lon="7.01152992"><ele>650.054993</ele><time>2009-09-26T13:12:30Z</time></trkpt>
<trkpt lat="46.32250214" lon="7.01101494"><ele>643.002991</ele><time>2009-09-26T13:12:36Z</time></trkpt>
<trkpt lat="46.32250214" lon="7.01094007"><ele>641.846985</ele><time>2009-09-26T13:12:37Z</time></trkpt>
<trkpt lat="46.32243347" lon="7.01081991"><ele>635.804016</ele><time>2009-09-26T13:12:41Z</time></trkpt>
<trkpt lat="46.32182693" lon="7.01045799"><ele>606.914001</ele><time>2009-09-26T13:13:08Z</time></trkpt>
<trkpt lat="46.32101440" lon="7.00955009"><ele>640.01001</ele><time>2009-09-26T13:13:11Z</time></trkpt>
<trkpt lat="46.32087326" lon="7.00918913"><ele>638.026001</ele><time>2009-09-26T13:13:16Z</time></trkpt>
<trkpt lat="46.32072067" lon="7.00856876"><ele>634.697021</ele><time>2009-09-26T13:13:23Z</time></trkpt>
<trkpt lat="46.32070541" lon="7.00841522"><ele>633.828003</ele><time>2009-09-26T13:13:25Z</time></trkpt>
<trkpt lat="46.32072830" lon="7.00793695"><ele>635.468018</ele><time>2009-09-26T13:13:30Z</time></trkpt>
<trkpt lat="46.32073593" lon="7.00786114"><ele>634.47998</ele><time>2009-09-26T13:13:31Z</time></trkpt>
<trkpt lat="46.32076263" lon="7.00765085"><ele>633.06897</ele><time>2009-09-26T13:13:34Z</time></trkpt>
<trkpt lat="46.32072067" lon="7.00726604"><ele>629.637024</ele><time>2009-09-26T13:13:40Z</time></trkpt>
<trkpt lat="46.32066345" lon="7.00714779"><ele>627.695007</ele><time>2009-09-26T13:13:42Z</time></trkpt>
<trkpt lat="46.32052612" lon="7.00697088"><ele>625.367981</ele><time>2009-09-26T13:13:45Z</time></trkpt>
<trkpt lat="46.32027435" lon="7.00654078"><ele>624.807007</ele><time>2009-09-26T13:13:51Z</time></trkpt>
<trkpt lat="46.32013702" lon="7.00620794"><ele>623.674011</ele><time>2009-09-26T13:13:55Z</time></trkpt>
<trkpt lat="46.31999588" lon="7.00602293"><ele>621.603027</ele><time>2009-09-26T13:13:58Z</time></trkpt>
<trkpt lat="46.31995392" lon="7.00598907"><ele>623.330994</ele><time>2009-09-26T13:14:00Z</time></trkpt>
<trkpt lat="46.31988144" lon="7.00592518"><ele>626.030029</ele><time>2009-09-26T13:14:03Z</time></trkpt>
<trkpt lat="46.31967545" lon="7.00564194"><ele>629.270996</ele><time>2009-09-26T13:14:09Z</time></trkpt>
<trkpt lat="46.31966782" lon="7.00563002"><ele>630.286011</ele><time>2009-09-26T13:14:10Z</time></trkpt>
<trkpt lat="46.31949615" lon="7.00530481"><ele>634.971008</ele><time>2009-09-26T13:14:13Z</time></trkpt>
<trkpt lat="46.31950760" lon="7.00503492"><ele>636.060974</ele><time>2009-09-26T13:14:16Z</time></trkpt>
<trkpt lat="46.31941986" lon="7.00465012"><ele>628.658997</ele><time>2009-09-26T13:14:20Z</time></trkpt>
<trkpt lat="46.31935883" lon="7.00455523"><ele>626.291992</ele><time>2009-09-26T13:14:21Z</time></trkpt>
<trkpt lat="46.31910706" lon="7.00405598"><ele>624.744995</ele><time>2009-09-26T13:14:27Z</time></trkpt>
<trkpt lat="46.31900406" lon="7.00392389"><ele>626.116028</ele><time>2009-09-26T13:14:29Z</time></trkpt>
<trkpt lat="46.31874847" lon="7.00349617"><ele>622.01001</ele><time>2009-09-26T13:14:33Z</time></trkpt>
<trkpt lat="46.31858826" lon="7.00285101"><ele>619.523987</ele><time>2009-09-26T13:14:37Z</time></trkpt>
<trkpt lat="46.31827927" lon="7.00220823"><ele>619.245972</ele><time>2009-09-26T13:14:42Z</time></trkpt>
<trkpt lat="46.31817245" lon="7.00181103"><ele>618.072021</ele><time>2009-09-26T13:14:45Z</time></trkpt>
<trkpt lat="46.31796646" lon="7.00146389"><ele>616.536011</ele><time>2009-09-26T13:14:49Z</time></trkpt>
<trkpt lat="46.31775665" lon="7.00084209"><ele>614.445984</ele><time>2009-09-26T13:14:54Z</time></trkpt>
<trkpt lat="46.31771469" lon="7.00058699"><ele>614.403992</ele><time>2009-09-26T13:14:56Z</time></trkpt>
<trkpt lat="46.31764603" lon="7.00001383"><ele>614.671997</ele><time>2009-09-26T13:15:00Z</time></trkpt>
<trkpt lat="46.31748581" lon="6.99965715"><ele>615.948975</ele><time>2009-09-26T13:15:03Z</time></trkpt>
<trkpt lat="46.31723404" lon="6.99918413"><ele>617.507996</ele><time>2009-09-26T13:15:06Z</time></trkpt>
<trkpt lat="46.31707382" lon="6.99863005"><ele>616.927002</ele><time>2009-09-26T13:15:10Z</time></trkpt>
<trkpt lat="46.31710052" lon="6.99832010"><ele>616.202026</ele><time>2009-09-26T13:15:12Z</time></trkpt>
<trkpt lat="46.31703949" lon="6.99760485"><ele>614.64502</ele><time>2009-09-26T13:15:15Z</time></trkpt>
<trkpt lat="46.31683731" lon="6.99738312"><ele>612.539001</ele><time>2009-09-26T13:15:18Z</time></trkpt>
<trkpt lat="46.31667328" lon="6.99717522"><ele>611.195007</ele><time>2009-09-26T13:15:20Z</time></trkpt>
<trkpt lat="46.31657791" lon="6.99696922"><ele>609.63501</ele><time>2009-09-26T13:15:22Z</time></trkpt>
<trkpt lat="46.31627655" lon="6.99618292"><ele>605.286987</ele><time>2009-09-26T13:15:27Z</time></trkpt>
<trkpt lat="46.31600571" lon="6.99559879"><ele>603.778992</ele><time>2009-09-26T13:15:31Z</time></trkpt>
<trkpt lat="46.31597900" lon="6.99551392"><ele>603.528015</ele><time>2009-09-26T13:15:32Z</time></trkpt>
<trkpt lat="46.31582642" lon="6.99493694"><ele>598.383972</ele><time>2009-09-26T13:15:36Z</time></trkpt>
<trkpt lat="46.31581116" lon="6.99462414"><ele>596.929993</ele><time>2009-09-26T13:15:38Z</time></trkpt>
<trkpt lat="46.31583786" lon="6.99433517"><ele>594.307007</ele><time>2009-09-26T13:15:40Z</time></trkpt>
<trkpt lat="46.31601334" lon="6.99386787"><ele>592.749023</ele><time>2009-09-26T13:15:44Z</time></trkpt>
<trkpt lat="46.31621933" lon="6.99355698"><ele>592.11499</ele><time>2009-09-26T13:15:46Z</time></trkpt>
<trkpt lat="46.31641388" lon="6.99325991"><ele>591.192993</ele><time>2009-09-26T13:15:48Z</time></trkpt>
<trkpt lat="46.31683731" lon="6.99246597"><ele>584.486023</ele><time>2009-09-26T13:15:52Z</time></trkpt>
<trkpt lat="46.31680298" lon="6.99139023"><ele>581.663025</ele><time>2009-09-26T13:15:56Z</time></trkpt>
<trkpt lat="46.31669617" lon="6.99098778"><ele>580.844971</ele><time>2009-09-26T13:15:58Z</time></trkpt>
<trkpt lat="46.31648636" lon="6.99039316"><ele>578.552002</ele><time>2009-09-26T13:16:01Z</time></trkpt>
<trkpt lat="46.31613159" lon="6.98946285"><ele>569.557007</ele><time>2009-09-26T13:16:07Z</time></trkpt>
<trkpt lat="46.31604767" lon="6.98914480"><ele>565.674988</ele><time>2009-09-26T13:16:09Z</time></trkpt>
<trkpt lat="46.31597900" lon="6.98863506"><ele>559.411011</ele><time>2009-09-26T13:16:13Z</time></trkpt>
<trkpt lat="46.31595612" lon="6.98837805"><ele>556.59198</ele><time>2009-09-26T13:16:15Z</time></trkpt>
<trkpt lat="46.31602478" lon="6.98795891"><ele>551.427002</ele><time>2009-09-26T13:16:19Z</time></trkpt>
<trkpt lat="46.31607819" lon="6.98703003"><ele>546.650024</ele><time>2009-09-26T13:16:24Z</time></trkpt>
<trkpt lat="46.31600189" lon="6.98636103"><ele>544.909973</ele><time>2009-09-26T13:16:28Z</time></trkpt>
<trkpt lat="46.31597137" lon="6.98605013"><ele>543.820007</ele><time>2009-09-26T13:16:30Z</time></trkpt>
<trkpt lat="46.31580353" lon="6.98509789"><ele>541.906006</ele><time>2009-09-26T13:16:36Z</time></trkpt>
<trkpt lat="46.31570435" lon="6.98463678"><ele>539.830017</ele><time>2009-09-26T13:16:39Z</time></trkpt>
<trkpt lat="46.31567001" lon="6.98411703"><ele>536.744019</ele><time>2009-09-26T13:16:42Z</time></trkpt>
<trkpt lat="46.31561279" lon="6.98361301"><ele>532.585999</ele><time>2009-09-26T13:16:45Z</time></trkpt>
<trkpt lat="46.31591415" lon="6.98320580"><ele>529.039001</ele><time>2009-09-26T13:16:48Z</time></trkpt>
<trkpt lat="46.31599045" lon="6.98305082"><ele>527.978027</ele><time>2009-09-26T13:16:49Z</time></trkpt>
<trkpt lat="46.31624985" lon="6.98265982"><ele>521.708984</ele><time>2009-09-26T13:16:52Z</time></trkpt>
<trkpt lat="46.31651688" lon="6.98217678"><ele>499.800995</ele><time>2009-09-26T13:16:55Z</time></trkpt>
<trkpt lat="46.31649399" lon="6.98197603"><ele>498.641998</ele><time>2009-09-26T13:16:56Z</time></trkpt>
<trkpt lat="46.31642914" lon="6.98134708"><ele>494.446991</ele><time>2009-09-26T13:17:00Z</time></trkpt>
<trkpt lat="46.31668472" lon="6.98040485"><ele>482.011993</ele><time>2009-09-26T13:17:07Z</time></trkpt>
<trkpt lat="46.31681442" lon="6.98003101"><ele>463.134003</ele><time>2009-09-26T13:17:13Z</time></trkpt>
<trkpt lat="46.31711578" lon="6.97890997"><ele>452.587006</ele><time>2009-09-26T13:17:18Z</time></trkpt>
<trkpt lat="46.31716919" lon="6.97866011"><ele>444.641998</ele><time>2009-09-26T13:17:21Z</time></trkpt>
<trkpt lat="46.31701279" lon="6.97841311"><ele>446.069</ele><time>2009-09-26T13:17:23Z</time></trkpt>
<trkpt lat="46.31697464" lon="6.97801208"><ele>443.437012</ele><time>2009-09-26T13:17:27Z</time></trkpt>
<trkpt lat="46.31700134" lon="6.97746706"><ele>440.160004</ele><time>2009-09-26T13:17:32Z</time></trkpt>
<trkpt lat="46.31697845" lon="6.97723722"><ele>439.449005</ele><time>2009-09-26T13:17:34Z</time></trkpt>
<trkpt lat="46.31683731" lon="6.97689581"><ele>437.984009</ele><time>2009-09-26T13:17:38Z</time></trkpt>
<trkpt lat="46.31664658" lon="6.97630596"><ele>435.825012</ele><time>2009-09-26T13:17:45Z</time></trkpt>
<trkpt lat="46.31662750" lon="6.97621202"><ele>435.562012</ele><time>2009-09-26T13:17:46Z</time></trkpt>
<trkpt lat="46.31650543" lon="6.97577715"><ele>434.320007</ele><time>2009-09-26T13:17:51Z</time></trkpt>
<trkpt lat="46.31646729" lon="6.97571182"><ele>434.208008</ele><time>2009-09-26T13:17:52Z</time></trkpt>
<trkpt lat="46.31625748" lon="6.97534180"><ele>431.382996</ele><time>2009-09-26T13:17:59Z</time></trkpt>
<trkpt lat="46.31623840" lon="6.97531509"><ele>431.320007</ele><time>2009-09-26T13:18:02Z</time></trkpt>
<trkpt lat="46.31616592" lon="6.97518587"><ele>435.812012</ele><time>2009-09-26T13:18:24Z</time></trkpt>
<trkpt lat="46.31611252" lon="6.97503614"><ele>433.645996</ele><time>2009-09-26T13:18:28Z</time></trkpt>
<trkpt lat="46.31595993" lon="6.97480297"><ele>432.963989</ele><time>2009-09-26T13:18:33Z</time></trkpt>
<trkpt lat="46.31591415" lon="6.97475195"><ele>433.174988</ele><time>2009-09-26T13:18:34Z</time></trkpt>
<trkpt lat="46.31578445" lon="6.97460222"><ele>431.183014</ele><time>2009-09-26T13:18:37Z</time></trkpt>
<trkpt lat="46.31554794" lon="6.97438717"><ele>432.820007</ele><time>2009-09-26T13:18:42Z</time></trkpt>
<trkpt lat="46.31554794" lon="6.97438717"><ele>431.735992</ele><time>2009-09-26T13:18:46Z</time></trkpt>
<trkpt lat="46.31531143" lon="6.97402191"><ele>432.884003</ele><time>2009-09-26T13:18:50Z</time></trkpt>
<trkpt lat="46.31526184" lon="6.97402191"><ele>433.480988</ele><time>2009-09-26T13:18:51Z</time></trkpt>
<trkpt lat="46.31518173" lon="6.97384691"><ele>431.826996</ele><time>2009-09-26T13:18:55Z</time></trkpt>
<trkpt lat="46.31489944" lon="6.97331715"><ele>429.187012</ele><time>2009-09-26T13:19:01Z</time></trkpt>
<trkpt lat="46.31462097" lon="6.97300911"><ele>426.158997</ele><time>2009-09-26T13:19:06Z</time></trkpt>
<trkpt lat="46.31426620" lon="6.97263193"><ele>424.569</ele><time>2009-09-26T13:19:12Z</time></trkpt>
<trkpt lat="46.31384277" lon="6.97216320"><ele>421.194</ele><time>2009-09-26T13:19:19Z</time></trkpt>
<trkpt lat="46.31373215" lon="6.97200108"><ele>420.769989</ele><time>2009-09-26T13:19:21Z</time></trkpt>
<trkpt lat="46.31341934" lon="6.97194386"><ele>419.619995</ele><time>2009-09-26T13:19:25Z</time></trkpt>
<trkpt lat="46.31285858" lon="6.97195816"><ele>419.213013</ele><time>2009-09-26T13:19:32Z</time></trkpt>
<trkpt lat="46.31219101" lon="6.97197914"><ele>418.527008</ele><time>2009-09-26T13:19:40Z</time></trkpt>
<trkpt lat="46.31193161" lon="6.97198391"><ele>418.138</ele><time>2009-09-26T13:19:43Z</time></trkpt>
<trkpt lat="46.31154251" lon="6.97179890"><ele>416.748993</ele><time>2009-09-26T13:19:48Z</time></trkpt>
<trkpt lat="46.31110764" lon="6.97158194"><ele>415.593994</ele><time>2009-09-26T13:19:54Z</time></trkpt>
<trkpt lat="46.31056213" lon="6.97128296"><ele>414.200989</ele><time>2009-09-26T13:20:02Z</time></trkpt>
<trkpt lat="46.31019974" lon="6.97096205"><ele>413.359985</ele><time>2009-09-26T13:20:08Z</time></trkpt>
<trkpt lat="46.30974197" lon="6.97080803"><ele>412.341003</ele><time>2009-09-26T13:20:15Z</time></trkpt>
<trkpt lat="46.30934525" lon="6.97066784"><ele>411.630005</ele><time>2009-09-26T13:20:21Z</time></trkpt>
<trkpt lat="46.30900574" lon="6.97037506"><ele>412.536011</ele><time>2009-09-26T13:20:27Z</time></trkpt>
<trkpt lat="46.30890656" lon="6.97025585"><ele>412.751007</ele><time>2009-09-26T13:20:29Z</time></trkpt>
<trkpt lat="46.30860138" lon="6.96977901"><ele>411.721008</ele><time>2009-09-26T13:20:36Z</time></trkpt>
<trkpt lat="46.30832672" lon="6.96920490"><ele>410.60199</ele><time>2009-09-26T13:20:43Z</time></trkpt>
<trkpt lat="46.30798340" lon="6.96851015"><ele>410.023987</ele><time>2009-09-26T13:20:51Z</time></trkpt>
<trkpt lat="46.30766296" lon="6.96813202"><ele>408.313995</ele><time>2009-09-26T13:20:57Z</time></trkpt>
<trkpt lat="46.30752182" lon="6.96799612"><ele>408.118011</ele><time>2009-09-26T13:21:01Z</time></trkpt>
<trkpt lat="46.30744934" lon="6.96793890"><ele>407.872009</ele><time>2009-09-26T13:21:04Z</time></trkpt>
<trkpt lat="46.30723190" lon="6.96787977"><ele>407.049988</ele><time>2009-09-26T13:21:09Z</time></trkpt>
<trkpt lat="46.30686951" lon="6.96777105"><ele>406.27301</ele><time>2009-09-26T13:21:14Z</time></trkpt>
<trkpt lat="46.30626678" lon="6.96761990"><ele>404.851013</ele><time>2009-09-26T13:21:22Z</time></trkpt>
<trkpt lat="46.30609131" lon="6.96752310"><ele>404.529999</ele><time>2009-09-26T13:21:24Z</time></trkpt>
<trkpt lat="46.30573273" lon="6.96724701"><ele>402.747009</ele><time>2009-09-26T13:21:29Z</time></trkpt>
<trkpt lat="46.30565643" lon="6.96720886"><ele>402.56601</ele><time>2009-09-26T13:21:30Z</time></trkpt>
<trkpt lat="46.30530548" lon="6.96716404"><ele>401.921997</ele><time>2009-09-26T13:21:35Z</time></trkpt>
<trkpt lat="46.30490494" lon="6.96737099"><ele>400.434998</ele><time>2009-09-26T13:21:40Z</time></trkpt>
<trkpt lat="46.30465317" lon="6.96751881"><ele>399.306</ele><time>2009-09-26T13:21:43Z</time></trkpt>
<trkpt lat="46.30427933" lon="6.96820879"><ele>398.195007</ele><time>2009-09-26T13:21:50Z</time></trkpt>
<trkpt lat="46.30396271" lon="6.96899080"><ele>395.95401</ele><time>2009-09-26T13:21:57Z</time></trkpt>
<trkpt lat="46.30380249" lon="6.96969223"><ele>396.548004</ele><time>2009-09-26T13:22:03Z</time></trkpt>
<trkpt lat="46.30369949" lon="6.97061920"><ele>397.048004</ele><time>2009-09-26T13:22:11Z</time></trkpt>
<trkpt lat="46.30362320" lon="6.97117090"><ele>397.264008</ele><time>2009-09-26T13:22:16Z</time></trkpt>
<trkpt lat="46.30351639" lon="6.97184086"><ele>397.553986</ele><time>2009-09-26T13:22:22Z</time></trkpt>
<trkpt lat="46.30338287" lon="6.97260904"><ele>398.048004</ele><time>2009-09-26T13:22:29Z</time></trkpt>
<trkpt lat="46.30323410" lon="6.97324705"><ele>398.497986</ele><time>2009-09-26T13:22:35Z</time></trkpt>
<trkpt lat="46.30298233" lon="6.97386217"><ele>399.81601</ele><time>2009-09-26T13:22:42Z</time></trkpt>
<trkpt lat="46.30276489" lon="6.97436714"><ele>400.837006</ele><time>2009-09-26T13:22:49Z</time></trkpt>
<trkpt lat="46.30252457" lon="6.97493410"><ele>402.856995</ele><time>2009-09-26T13:22:58Z</time></trkpt>
<trkpt lat="46.30234528" lon="6.97534180"><ele>405.102997</ele><time>2009-09-26T13:23:05Z</time></trkpt>
<trkpt lat="46.30219650" lon="6.97587395"><ele>406.709991</ele><time>2009-09-26T13:23:14Z</time></trkpt>
<trkpt lat="46.30217361" lon="6.97606897"><ele>407.677002</ele><time>2009-09-26T13:23:17Z</time></trkpt>
<trkpt lat="46.30210876" lon="6.97663689"><ele>408.390991</ele><time>2009-09-26T13:23:26Z</time></trkpt>
<trkpt lat="46.30201721" lon="6.97715187"><ele>408.483002</ele><time>2009-09-26T13:23:34Z</time></trkpt>
<trkpt lat="46.30183029" lon="6.97777414"><ele>409.894012</ele><time>2009-09-26T13:23:44Z</time></trkpt>
<trkpt lat="46.30159378" lon="6.97842884"><ele>409.825989</ele><time>2009-09-26T13:23:55Z</time></trkpt>
<trkpt lat="46.30134201" lon="6.97903585"><ele>411.174011</ele><time>2009-09-26T13:24:05Z</time></trkpt>
<trkpt lat="46.30112839" lon="6.97949219"><ele>410.877991</ele><time>2009-09-26T13:24:13Z</time></trkpt>
<trkpt lat="46.30080032" lon="6.98015499"><ele>410.65799</ele><time>2009-09-26T13:24:25Z</time></trkpt>
<trkpt lat="46.30050278" lon="6.98069382"><ele>410.859985</ele><time>2009-09-26T13:24:35Z</time></trkpt>
<trkpt lat="46.30041885" lon="6.98085308"><ele>410.60199</ele><time>2009-09-26T13:24:38Z</time></trkpt>
<trkpt lat="46.30023956" lon="6.98111486"><ele>409.968994</ele><time>2009-09-26T13:24:43Z</time></trkpt>
<trkpt lat="46.29988098" lon="6.98157215"><ele>409.277008</ele><time>2009-09-26T13:24:52Z</time></trkpt>
<trkpt lat="46.29941940" lon="6.98216486"><ele>410.82901</ele><time>2009-09-26T13:25:04Z</time></trkpt>
<trkpt lat="46.29917145" lon="6.98248196"><ele>411.897003</ele><time>2009-09-26T13:25:11Z</time></trkpt>
<trkpt lat="46.29885864" lon="6.98284578"><ele>414.148987</ele><time>2009-09-26T13:25:20Z</time></trkpt>
<trkpt lat="46.29836655" lon="6.98334980"><ele>415.774994</ele><time>2009-09-26T13:25:32Z</time></trkpt>
<trkpt lat="46.29786301" lon="6.98382807"><ele>416.09201</ele><time>2009-09-26T13:25:43Z</time></trkpt>
<trkpt lat="46.29753113" lon="6.98410416"><ele>416.088989</ele><time>2009-09-26T13:25:50Z</time></trkpt>
<trkpt lat="46.29702377" lon="6.98454905"><ele>415.334991</ele><time>2009-09-26T13:26:00Z</time></trkpt>
<trkpt lat="46.29660034" lon="6.98488522"><ele>414.065002</ele><time>2009-09-26T13:26:07Z</time></trkpt>
<trkpt lat="46.29608536" lon="6.98521996"><ele>411.963989</ele><time>2009-09-26T13:26:14Z</time></trkpt>
<trkpt lat="46.29566956" lon="6.98547602"><ele>409.727997</ele><time>2009-09-26T13:26:19Z</time></trkpt>
<trkpt lat="46.29509354" lon="6.98575783"><ele>407.28299</ele><time>2009-09-26T13:26:25Z</time></trkpt>
<trkpt lat="46.29414368" lon="6.98617315"><ele>404.985992</ele><time>2009-09-26T13:26:35Z</time></trkpt>
<trkpt lat="46.29354477" lon="6.98637915"><ele>403.648987</ele><time>2009-09-26T13:26:42Z</time></trkpt>
<trkpt lat="46.29273605" lon="6.98654604"><ele>401.541992</ele><time>2009-09-26T13:26:51Z</time></trkpt>
<trkpt lat="46.29188538" lon="6.98669815"><ele>399.868011</ele><time>2009-09-26T13:27:00Z</time></trkpt>
<trkpt lat="46.29117966" lon="6.98683977"><ele>399.636993</ele><time>2009-09-26T13:27:08Z</time></trkpt>
<trkpt lat="46.29061127" lon="6.98697376"><ele>399.819</ele><time>2009-09-26T13:27:15Z</time></trkpt>
<trkpt lat="46.28994751" lon="6.98710918"><ele>399.957001</ele><time>2009-09-26T13:27:24Z</time></trkpt>
<trkpt lat="46.28941727" lon="6.98721218"><ele>400.108002</ele><time>2009-09-26T13:27:32Z</time></trkpt>
<trkpt lat="46.28893661" lon="6.98730612"><ele>400.518005</ele><time>2009-09-26T13:27:40Z</time></trkpt>
<trkpt lat="46.28860092" lon="6.98736811"><ele>400.738007</ele><time>2009-09-26T13:27:46Z</time></trkpt>
<trkpt lat="46.28813553" lon="6.98747015"><ele>400.980011</ele><time>2009-09-26T13:27:54Z</time></trkpt>
<trkpt lat="46.28760910" lon="6.98762989"><ele>400.375</ele><time>2009-09-26T13:28:03Z</time></trkpt>
<trkpt lat="46.28709793" lon="6.98783016"><ele>400.501007</ele><time>2009-09-26T13:28:12Z</time></trkpt>
<trkpt lat="46.28667831" lon="6.98805618"><ele>400.690002</ele><time>2009-09-26T13:28:20Z</time></trkpt>
<trkpt lat="46.28651810" lon="6.98816299"><ele>400.776001</ele><time>2009-09-26T13:28:24Z</time></trkpt>
<trkpt lat="46.28622055" lon="6.98831892"><ele>401.42099</ele><time>2009-09-26T13:28:29Z</time></trkpt>
<trkpt lat="46.28602219" lon="6.98849392"><ele>402.013</ele><time>2009-09-26T13:28:33Z</time></trkpt>
<trkpt lat="46.28552246" lon="6.98901892"><ele>403.332001</ele><time>2009-09-26T13:28:43Z</time></trkpt>
<trkpt lat="46.28515244" lon="6.98933983"><ele>404.19101</ele><time>2009-09-26T13:28:50Z</time></trkpt>
<trkpt lat="46.28476715" lon="6.98963499"><ele>405.072998</ele><time>2009-09-26T13:28:57Z</time></trkpt>
<trkpt lat="46.28432465" lon="6.98999596"><ele>406.313995</ele><time>2009-09-26T13:29:06Z</time></trkpt>
<trkpt lat="46.28379822" lon="6.99039602"><ele>406.955994</ele><time>2009-09-26T13:29:17Z</time></trkpt>
<trkpt lat="46.28337860" lon="6.99069214"><ele>408.364014</ele><time>2009-09-26T13:29:26Z</time></trkpt>
<trkpt lat="46.28290939" lon="6.99102211"><ele>409.334015</ele><time>2009-09-26T13:29:36Z</time></trkpt>
<trkpt lat="46.28246689" lon="6.99126387"><ele>410.281006</ele><time>2009-09-26T13:29:45Z</time></trkpt>
<trkpt lat="46.28188324" lon="6.99153709"><ele>411.779999</ele><time>2009-09-26T13:29:57Z</time></trkpt>
<trkpt lat="46.28144836" lon="6.99169779"><ele>413.062988</ele><time>2009-09-26T13:30:07Z</time></trkpt>
<trkpt lat="46.28095245" lon="6.99184990"><ele>414.63501</ele><time>2009-09-26T13:30:18Z</time></trkpt>
<trkpt lat="46.28041077" lon="6.99199677"><ele>415.894012</ele><time>2009-09-26T13:30:30Z</time></trkpt>
<trkpt lat="46.27994156" lon="6.99211407"><ele>416.92099</ele><time>2009-09-26T13:30:40Z</time></trkpt>
<trkpt lat="46.27957153" lon="6.99221277"><ele>417.686005</ele><time>2009-09-26T13:30:48Z</time></trkpt>
<trkpt lat="46.27920151" lon="6.99231911"><ele>418.43399</ele><time>2009-09-26T13:30:56Z</time></trkpt>
<trkpt lat="46.27865219" lon="6.99247599"><ele>419.584991</ele><time>2009-09-26T13:31:08Z</time></trkpt>
<trkpt lat="46.27800751" lon="6.99265480"><ele>420.911987</ele><time>2009-09-26T13:31:22Z</time></trkpt>
<trkpt lat="46.27734375" lon="6.99283504"><ele>422.362</ele><time>2009-09-26T13:31:36Z</time></trkpt>
<trkpt lat="46.27685928" lon="6.99296808"><ele>423.43399</ele><time>2009-09-26T13:31:46Z</time></trkpt>
<trkpt lat="46.27636337" lon="6.99310303"><ele>424.45401</ele><time>2009-09-26T13:31:56Z</time></trkpt>
<trkpt lat="46.27585983" lon="6.99324083"><ele>425.433014</ele><time>2009-09-26T13:32:06Z</time></trkpt>
<trkpt lat="46.27535248" lon="6.99337912"><ele>426.36499</ele><time>2009-09-26T13:32:16Z</time></trkpt>
<trkpt lat="46.27500534" lon="6.99347496"><ele>427.024994</ele><time>2009-09-26T13:32:24Z</time></trkpt>
<trkpt lat="46.27452087" lon="6.99360800"><ele>427.984985</ele><time>2009-09-26T13:32:34Z</time></trkpt>
<trkpt lat="46.27399063" lon="6.99375582"><ele>429.145996</ele><time>2009-09-26T13:32:45Z</time></trkpt>
<trkpt lat="46.27340698" lon="6.99391890"><ele>430.114014</ele><time>2009-09-26T13:32:57Z</time></trkpt>
<trkpt lat="46.27302551" lon="6.99402618"><ele>430.569</ele><time>2009-09-26T13:33:05Z</time></trkpt>
<trkpt lat="46.27278519" lon="6.99409580"><ele>430.916992</ele><time>2009-09-26T13:33:11Z</time></trkpt>
<trkpt lat="46.27245712" lon="6.99418688"><ele>431.367004</ele><time>2009-09-26T13:33:19Z</time></trkpt>
<trkpt lat="46.27220154" lon="6.99425793"><ele>431.817993</ele><time>2009-09-26T13:33:26Z</time></trkpt>
<trkpt lat="46.27199173" lon="6.99431705"><ele>431.806</ele><time>2009-09-26T13:33:31Z</time></trkpt>
<trkpt lat="46.27171707" lon="6.99439383"><ele>432.001007</ele><time>2009-09-26T13:33:38Z</time></trkpt>
<trkpt lat="46.27138138" lon="6.99448681"><ele>432.351013</ele><time>2009-09-26T13:33:46Z</time></trkpt>
<trkpt lat="46.27094269" lon="6.99460888"><ele>433.03299</ele><time>2009-09-26T13:33:56Z</time></trkpt>
<trkpt lat="46.27045059" lon="6.99474478"><ele>434.014008</ele><time>2009-09-26T13:34:07Z</time></trkpt>
<trkpt lat="46.27009964" lon="6.99484015"><ele>434.610992</ele><time>2009-09-26T13:34:15Z</time></trkpt>
<trkpt lat="46.26965332" lon="6.99495983"><ele>435.493988</ele><time>2009-09-26T13:34:25Z</time></trkpt>
<trkpt lat="46.26934052" lon="6.99504519"><ele>436.274994</ele><time>2009-09-26T13:34:32Z</time></trkpt>
<trkpt lat="46.26890564" lon="6.99516201"><ele>437.627014</ele><time>2009-09-26T13:34:42Z</time></trkpt>
<trkpt lat="46.26834869" lon="6.99531889"><ele>439.171997</ele><time>2009-09-26T13:34:55Z</time></trkpt>
<trkpt lat="46.26786041" lon="6.99549198"><ele>439.493011</ele><time>2009-09-26T13:35:06Z</time></trkpt>
<trkpt lat="46.26744080" lon="6.99565220"><ele>438.899994</ele><time>2009-09-26T13:35:15Z</time></trkpt>
<trkpt lat="46.26700592" lon="6.99581385"><ele>437.825012</ele><time>2009-09-26T13:35:23Z</time></trkpt>
<trkpt lat="46.26663971" lon="6.99596691"><ele>436.864014</ele><time>2009-09-26T13:35:29Z</time></trkpt>
<trkpt lat="46.26612473" lon="6.99620819"><ele>435.292999</ele><time>2009-09-26T13:35:37Z</time></trkpt>
<trkpt lat="46.26554489" lon="6.99648714"><ele>433.822998</ele><time>2009-09-26T13:35:46Z</time></trkpt>
<trkpt lat="46.26490784" lon="6.99679995"><ele>432.596008</ele><time>2009-09-26T13:35:56Z</time></trkpt>
<trkpt lat="46.26438522" lon="6.99707413"><ele>431.707001</ele><time>2009-09-26T13:36:04Z</time></trkpt>
<trkpt lat="46.26386261" lon="6.99734306"><ele>430.915009</ele><time>2009-09-26T13:36:13Z</time></trkpt>
<trkpt lat="46.26354980" lon="6.99750280"><ele>430.667999</ele><time>2009-09-26T13:36:18Z</time></trkpt>
<trkpt lat="46.26283264" lon="6.99787617"><ele>429.72699</ele><time>2009-09-26T13:36:29Z</time></trkpt>
<trkpt lat="46.26212311" lon="6.99825001"><ele>428.777008</ele><time>2009-09-26T13:36:40Z</time></trkpt>
<trkpt lat="46.26129532" lon="6.99868584"><ele>427.757996</ele><time>2009-09-26T13:36:52Z</time></trkpt>
<trkpt lat="46.26061249" lon="6.99904919"><ele>426.878998</ele><time>2009-09-26T13:37:02Z</time></trkpt>
<trkpt lat="46.26007843" lon="6.99933481"><ele>426.338013</ele><time>2009-09-26T13:37:10Z</time></trkpt>
<trkpt lat="46.26001358" lon="6.99937105"><ele>426.207001</ele><time>2009-09-26T13:37:11Z</time></trkpt>
<trkpt lat="46.25954437" lon="6.99963188"><ele>425.255005</ele><time>2009-09-26T13:37:18Z</time></trkpt>
<trkpt lat="46.25900269" lon="6.99994087"><ele>424.263</ele><time>2009-09-26T13:37:26Z</time></trkpt>
<trkpt lat="46.25875473" lon="7.00005484"><ele>423.945007</ele><time>2009-09-26T13:37:30Z</time></trkpt>
<trkpt lat="46.25853729" lon="7.00063705"><ele>423.674011</ele><time>2009-09-26T13:37:36Z</time></trkpt>
<trkpt lat="46.25812912" lon="7.00120592"><ele>422.792999</ele><time>2009-09-26T13:37:44Z</time></trkpt>
<trkpt lat="46.25760651" lon="7.00193977"><ele>421.289001</ele><time>2009-09-26T13:37:54Z</time></trkpt>
<trkpt lat="46.25709915" lon="7.00264692"><ele>420.602997</ele><time>2009-09-26T13:38:03Z</time></trkpt>
<trkpt lat="46.25647736" lon="7.00351715"><ele>418.30899</ele><time>2009-09-26T13:38:14Z</time></trkpt>
<trkpt lat="46.25600052" lon="7.00418282"><ele>417.554993</ele><time>2009-09-26T13:38:23Z</time></trkpt>
<trkpt lat="46.25554657" lon="7.00480223"><ele>417.131989</ele><time>2009-09-26T13:38:32Z</time></trkpt>
<trkpt lat="46.25504684" lon="7.00548315"><ele>416.312988</ele><time>2009-09-26T13:38:42Z</time></trkpt>
<trkpt lat="46.25465012" lon="7.00608778"><ele>415.039001</ele><time>2009-09-26T13:38:50Z</time></trkpt>
<trkpt lat="46.25432205" lon="7.00645399"><ele>414.25</ele><time>2009-09-26T13:38:56Z</time></trkpt>
<trkpt lat="46.25420761" lon="7.00655413"><ele>414.136993</ele><time>2009-09-26T13:38:58Z</time></trkpt>
<trkpt lat="46.25374222" lon="7.00684214"><ele>414.881989</ele><time>2009-09-26T13:39:06Z</time></trkpt>
<trkpt lat="46.25348282" lon="7.00703478"><ele>416.292999</ele><time>2009-09-26T13:39:12Z</time></trkpt>
<trkpt lat="46.25338364" lon="7.00713587"><ele>416.721985</ele><time>2009-09-26T13:39:17Z</time></trkpt>
<trkpt lat="46.25337982" lon="7.00714493"><ele>416.781006</ele><time>2009-09-26T13:39:19Z</time></trkpt>
<trkpt lat="46.25333405" lon="7.00725222"><ele>417.032013</ele><time>2009-09-26T13:39:23Z</time></trkpt>
<trkpt lat="46.25314713" lon="7.00760698"><ele>418.559998</ele><time>2009-09-26T13:39:30Z</time></trkpt>
<trkpt lat="46.25288010" lon="7.00816298"><ele>419.959991</ele><time>2009-09-26T13:39:40Z</time></trkpt>
<trkpt lat="46.25264740" lon="7.00864220"><ele>421.453003</ele><time>2009-09-26T13:39:49Z</time></trkpt>
<trkpt lat="46.25241852" lon="7.00911093"><ele>422.442993</ele><time>2009-09-26T13:39:58Z</time></trkpt>
<trkpt lat="46.25227737" lon="7.00952816"><ele>422.181</ele><time>2009-09-26T13:40:06Z</time></trkpt>
<trkpt lat="46.25211716" lon="7.01010180"><ele>422.700012</ele><time>2009-09-26T13:40:16Z</time></trkpt>
<trkpt lat="46.25208664" lon="7.01022577"><ele>422.993988</ele><time>2009-09-26T13:40:18Z</time></trkpt>
<trkpt lat="46.25194931" lon="7.01069784"><ele>423.796997</ele><time>2009-09-26T13:40:26Z</time></trkpt>
<trkpt lat="46.25180817" lon="7.01122189"><ele>425.184998</ele><time>2009-09-26T13:40:35Z</time></trkpt>
<trkpt lat="46.25170135" lon="7.01167488"><ele>424.487</ele><time>2009-09-26T13:40:43Z</time></trkpt>
<trkpt lat="46.25159073" lon="7.01198006"><ele>424.316986</ele><time>2009-09-26T13:40:49Z</time></trkpt>
<trkpt lat="46.25154114" lon="7.01216698"><ele>425.266998</ele><time>2009-09-26T13:40:53Z</time></trkpt>
<trkpt lat="46.25144577" lon="7.01255178"><ele>423.829987</ele><time>2009-09-26T13:40:59Z</time></trkpt>
<trkpt lat="46.25136566" lon="7.01290417"><ele>422.459991</ele><time>2009-09-26T13:41:05Z</time></trkpt>
<trkpt lat="46.25132751" lon="7.01311684"><ele>424.369995</ele><time>2009-09-26T13:41:10Z</time></trkpt>
<trkpt lat="46.25129318" lon="7.01331377"><ele>424.330994</ele><time>2009-09-26T13:41:14Z</time></trkpt>
<trkpt lat="46.25128174" lon="7.01350498"><ele>429.321014</ele><time>2009-09-26T13:41:18Z</time></trkpt>
<trkpt lat="46.25126648" lon="7.01378012"><ele>431.571014</ele><time>2009-09-26T13:41:23Z</time></trkpt>
<trkpt lat="46.25122833" lon="7.01391220"><ele>430.674988</ele><time>2009-09-26T13:41:27Z</time></trkpt>
<trkpt lat="46.25118637" lon="7.01397800"><ele>433.496002</ele><time>2009-09-26T13:41:32Z</time></trkpt>
<trkpt lat="46.25118637" lon="7.01397800"><ele>432.734985</ele><time>2009-09-26T13:41:35Z</time></trkpt>
<trkpt lat="46.25118637" lon="7.01397800"><ele>433.300995</ele><time>2009-09-26T13:41:40Z</time></trkpt>
<trkpt lat="46.25108719" lon="7.01413488"><ele>418.44101</ele><time>2009-09-26T13:42:43Z</time></trkpt>
<trkpt lat="46.25099564" lon="7.01429987"><ele>425.67099</ele><time>2009-09-26T13:42:47Z</time></trkpt>
<trkpt lat="46.25088882" lon="7.01451778"><ele>428.368988</ele><time>2009-09-26T13:42:51Z</time></trkpt>
<trkpt lat="46.25080490" lon="7.01469517"><ele>433.493011</ele><time>2009-09-26T13:42:54Z</time></trkpt>
<trkpt lat="46.25064087" lon="7.01497412"><ele>434.182007</ele><time>2009-09-26T13:42:59Z</time></trkpt>
<trkpt lat="46.25041199" lon="7.01530790"><ele>432.445007</ele><time>2009-09-26T13:43:04Z</time></trkpt>
<trkpt lat="46.25037384" lon="7.01536798"><ele>431.334015</ele><time>2009-09-26T13:43:05Z</time></trkpt>
<trkpt lat="46.25029373" lon="7.01549387"><ele>429.834015</ele><time>2009-09-26T13:43:09Z</time></trkpt>
<trkpt lat="46.25029373" lon="7.01549387"><ele>429.292999</ele><time>2009-09-26T13:43:10Z</time></trkpt>
<trkpt lat="46.25024033" lon="7.01560688"><ele>430.268005</ele><time>2009-09-26T13:43:15Z</time></trkpt>
<trkpt lat="46.25022888" lon="7.01564407"><ele>429.165985</ele><time>2009-09-26T13:43:16Z</time></trkpt>
<trkpt lat="46.24997330" lon="7.01572323"><ele>429.056</ele><time>2009-09-26T13:43:21Z</time></trkpt>
<trkpt lat="46.24987793" lon="7.01571703"><ele>427.902008</ele><time>2009-09-26T13:43:23Z</time></trkpt>
<trkpt lat="46.24972916" lon="7.01570892"><ele>427.856995</ele><time>2009-09-26T13:43:26Z</time></trkpt>
<trkpt lat="46.24945831" lon="7.01569319"><ele>426.463989</ele><time>2009-09-26T13:43:32Z</time></trkpt>
<trkpt lat="46.24945831" lon="7.01569319"><ele>425.975006</ele><time>2009-09-26T13:43:35Z</time></trkpt>
<trkpt lat="46.24945831" lon="7.01569319"><ele>426.61499</ele><time>2009-09-26T13:43:37Z</time></trkpt>
<trkpt lat="46.24922180" lon="7.01577902"><ele>427.619995</ele><time>2009-09-26T13:43:44Z</time></trkpt>
<trkpt lat="46.24922180" lon="7.01577902"><ele>429.257996</ele><time>2009-09-26T13:43:49Z</time></trkpt>
<trkpt lat="46.24922180" lon="7.01577902"><ele>430.179993</ele><time>2009-09-26T13:43:51Z</time></trkpt>
<trkpt lat="46.24901581" lon="7.01591206"><ele>429.938995</ele><time>2009-09-26T13:43:55Z</time></trkpt>
<trkpt lat="46.24900818" lon="7.01591682"><ele>429.656006</ele><time>2009-09-26T13:43:56Z</time></trkpt>
<trkpt lat="46.24893188" lon="7.01577377"><ele>427.100006</ele><time>2009-09-26T13:44:02Z</time></trkpt>
<trkpt lat="46.24884033" lon="7.01554203"><ele>426.325989</ele><time>2009-09-26T13:44:06Z</time></trkpt>
<trkpt lat="46.24858475" lon="7.01497698"><ele>425.747986</ele><time>2009-09-26T13:44:14Z</time></trkpt>
<trkpt lat="46.24826431" lon="7.01419306"><ele>425.286011</ele><time>2009-09-26T13:44:24Z</time></trkpt>
<trkpt lat="46.24804688" lon="7.01352978"><ele>424.61499</ele><time>2009-09-26T13:44:32Z</time></trkpt>
<trkpt lat="46.24785614" lon="7.01284313"><ele>423.993011</ele><time>2009-09-26T13:44:41Z</time></trkpt>
<trkpt lat="46.24783707" lon="7.01277399"><ele>423.85199</ele><time>2009-09-26T13:44:42Z</time></trkpt>
<trkpt lat="46.24768066" lon="7.01269197"><ele>424.144012</ele><time>2009-09-26T13:44:46Z</time></trkpt>
<trkpt lat="46.24763107" lon="7.01270103"><ele>424.315002</ele><time>2009-09-26T13:44:47Z</time></trkpt>
<trkpt lat="46.24715042" lon="7.01267815"><ele>425.136993</ele><time>2009-09-26T13:44:56Z</time></trkpt>
<trkpt lat="46.24685287" lon="7.01252604"><ele>426.475006</ele><time>2009-09-26T13:45:03Z</time></trkpt>
<trkpt lat="46.24671555" lon="7.01237106"><ele>428.484009</ele><time>2009-09-26T13:45:08Z</time></trkpt>
<trkpt lat="46.24671173" lon="7.01236677"><ele>428.704987</ele><time>2009-09-26T13:45:09Z</time></trkpt>
<trkpt lat="46.24610138" lon="7.01241589"><ele>430.091003</ele><time>2009-09-26T13:45:17Z</time></trkpt>
<trkpt lat="46.24610138" lon="7.01242495"><ele>430.963013</ele><time>2009-09-26T13:45:20Z</time></trkpt>
<trkpt lat="46.24609375" lon="7.01244688"><ele>432.05899</ele><time>2009-09-26T13:45:30Z</time></trkpt>
<trkpt lat="46.24608612" lon="7.01245880"><ele>432.217987</ele><time>2009-09-26T13:45:32Z</time></trkpt>
</trkseg></trk></gpx>